GFSSGP_sfc_thetae_000.txt.gz
Theta_e
362 356 352 345 325 315 310 316 321 321 322 331 333 330 326 330 323 315 342 351 355 356 359 361 366 367 366 366 366 366 368 368 367 368 369 370 370 370 369 369 366 367 365 364 364 364 363 361 361
354 352 347 336 317 304 305 320 320 322 328 333 335 333 330 327 336 336 343 352 356 357 358 361 366 368 367 367 367 367 369 369 370 370 370 371 371 370 369 365 364 364 364 363 362 361 361 360 359
349 349 334 326 311 303 309 321 324 326 331 332 331 336 333 332 340 342 348 353 356 356 359 361 368 368 367 368 369 369 369 369 370 371 370 371 369 368 365 364 363 364 363 362 361 359 359 359 358
343 335 331 318 304 310 319 324 327 326 330 336 336 330 338 345 342 346 350 353 354 358 361 367 369 368 368 370 370 369 369 368 370 370 369 368 367 364 364 364 364 364 363 361 360 359 359 358 358
339 327 314 306 307 314 325 328 329 328 331 333 335 330 333 343 349 351 352 353 353 357 362 362 367 368 367 370 371 371 370 369 369 369 368 369 368 365 365 364 363 362 361 360 359 358 358 358 358
320 321 312 308 310 312 323 328 330 333 334 334 333 332 334 346 349 351 353 353 356 358 363 362 367 368 369 369 369 371 370 369 369 368 368 369 368 366 364 363 362 360 359 358 358 359 360 360 360
320 318 313 313 314 317 323 330 329 333 333 333 338 330 335 342 349 352 352 354 357 362 362 364 363 364 369 371 371 370 369 369 369 369 368 367 366 364 363 363 362 361 360 359 359 360 361 362 362
324 320 315 314 312 309 325 323 331 332 331 342 340 330 330 341 349 352 352 353 355 358 362 362 362 363 364 365 370 368 369 369 367 367 366 366 365 363 362 362 364 362 362 360 359 361 362 362 361
328 314 311 313 314 315 318 322 332 335 336 336 337 337 343 346 349 349 348 350 353 355 357 358 361 361 362 364 366 369 368 368 368 366 367 367 356 354 346 354 355 358 361 362 360 361 361 363 360
321 314 315 320 321 319 321 323 326 330 330 331 335 341 346 347 347 346 346 346 348 351 353 356 356 357 360 365 358 358 362 362 360 360 359 356 352 351 354 352 350 354 361 361 360 360 359 357 350
319 315 322 322 325 326 325 327 331 328 326 331 330 335 343 344 345 345 346 347 348 351 353 354 357 357 358 360 357 357 357 358 357 356 355 354 352 351 350 348 350 350 356 353 357 355 353 352 348
317 322 323 322 328 324 324 325 321 328 329 336 336 340 341 342 342 345 345 346 347 349 351 355 356 356 356 357 358 357 355 355 355 354 354 352 349 346 349 348 350 349 350 349 350 349 349 348 347
318 321 324 326 323 323 325 322 325 329 334 336 336 338 338 340 342 343 344 346 348 347 350 353 357 355 355 355 356 355 356 356 355 354 355 353 349 348 351 348 350 349 349 346 347 345 346 346 347
322 323 323 324 322 323 320 322 322 331 335 334 334 334 336 337 339 339 339 342 345 348 352 355 355 355 354 353 352 352 352 352 353 351 353 353 350 348 349 347 346 346 347 348 347 346 345 345 344
322 317 319 322 323 324 328 322 322 331 334 332 333 334 335 336 337 338 341 341 342 345 352 352 352 356 354 353 354 351 354 353 350 350 351 350 352 350 347 344 343 344 345 346 346 344 343 342 344
312 311 306 317 323 325 322 314 324 332 331 329 332 334 335 335 336 338 342 341 341 345 350 352 356 356 352 353 354 354 353 351 351 350 350 350 351 351 347 342 343 345 344 344 341 338 338 338 339
305 302 307 311 319 321 320 316 324 328 327 327 330 332 333 333 335 337 340 342 342 344 348 349 353 354 354 354 355 354 353 352 351 351 348 350 349 350 346 343 345 344 341 340 339 338 337 337 337
300 304 309 309 314 316 318 317 324 327 326 327 328 329 331 332 334 337 340 341 341 344 346 345 346 352 354 353 354 353 352 349 351 350 347 350 347 351 350 345 344 344 342 340 340 338 337 337 336
306 308 309 312 314 319 318 319 323 327 327 327 328 329 331 332 335 337 340 341 343 345 345 345 346 349 352 349 347 346 344 345 347 348 350 350 348 349 346 346 345 344 341 340 340 337 336 335 336
305 306 308 312 314 311 318 318 323 326 327 329 329 331 332 334 334 337 340 343 343 343 344 347 346 350 350 350 347 348 347 348 349 350 351 350 348 349 347 346 344 341 339 337 336 335 334 334 336
302 306 307 309 314 314 317 312 316 324 327 328 331 333 333 335 334 336 339 340 343 343 347 348 349 351 351 351 350 349 347 345 342 343 344 341 339 340 341 339 336 336 336 334 334 334 333 330 333
297 307 313 312 311 303 312 301 309 318 319 321 326 329 331 333 338 338 339 338 342 346 351 350 352 352 352 350 350 345 339 330 332 336 338 334 334 337 337 336 337 337 335 334 334 338 334 332 328
304 307 306 313 309 304 307 303 310 312 309 313 322 328 330 333 338 339 340 340 344 348 352 352 352 352 352 348 349 336 326 328 333 333 331 329 330 334 336 339 336 334 334 333 334 333 332 332 330
311 305 301 301 299 295 304 302 301 309 313 316 319 328 330 332 337 340 342 340 345 349 352 353 350 347 342 339 331 325 327 327 329 328 325 327 324 333 337 336 333 333 331 332 332 333 332 331 330
304 296 291 290 290 290 296 303 305 314 318 317 318 326 329 332 333 336 336 338 345 347 349 351 348 343 334 331 328 325 328 327 326 326 327 326 329 329 330 330 330 327 328 331 332 331 329 330 329
300 298 292 288 290 293 299 295 302 317 321 320 322 327 330 330 332 334 334 338 343 347 347 349 345 342 334 331 329 329 330 328 327 328 329 323 325 329 330 329 329 329 330 332 332 330 329 330 329
301 296 301 295 296 293 296 301 311 315 318 319 319 322 325 329 331 332 335 338 342 345 347 348 343 340 336 332 330 330 330 331 332 332 328 325 328 330 329 330 329 330 332 331 331 330 330 329 328
305 304 296 293 289 287 294 297 300 310 314 317 317 317 321 327 331 332 334 337 342 344 347 349 344 341 337 336 332 332 332 332 331 329 328 329 327 329 329 329 330 330 330 330 329 328 328 327 327
302 299 297 297 294 290 289 294 306 313 316 317 319 321 319 324 328 332 334 336 342 344 346 348 345 342 338 337 335 334 334 333 330 330 329 329 329 330 332 332 331 329 328 330 329 329 329 327 327
305 301 298 294 292 293 293 296 311 313 315 320 320 322 321 322 327 330 333 334 339 341 345 346 346 343 341 340 337 336 336 333 331 330 330 330 330 329 328 328 328 328 330 330 329 328 329 327 326

GFSSGP_sfc_thetae_003.txt.gz
Theta_e
359 355 351 344 323 313 310 314 322 320 322 331 333 329 325 327 322 314 341 348 352 353 354 357 363 363 364 364 364 364 364 363 367 367 368 368 367 367 366 365 364 364 362 362 362 361 360 360 359
354 352 347 335 309 304 306 319 318 322 329 334 334 332 329 325 334 338 342 353 356 356 356 359 363 366 365 364 364 366 365 365 368 368 370 369 368 369 367 364 363 362 362 361 360 359 357 357 358
351 349 332 326 309 306 308 319 321 327 334 333 330 335 332 329 338 341 347 354 356 355 357 361 366 365 366 366 368 368 368 368 369 369 369 369 368 366 363 362 361 361 361 360 359 357 356 356 356
343 335 330 315 305 311 318 320 324 327 330 335 334 328 337 344 341 345 351 355 354 356 360 364 367 366 367 367 370 369 369 369 369 370 370 367 366 364 363 362 362 361 360 358 357 356 356 355 356
338 325 311 305 307 321 324 325 326 324 330 332 334 329 332 342 347 349 351 354 353 358 360 362 369 369 370 370 368 369 368 369 370 369 366 366 364 363 363 362 362 360 359 358 358 357 357 357 356
319 318 307 305 310 321 326 327 327 331 333 333 331 331 333 346 344 348 351 352 357 359 360 362 367 368 369 369 369 369 368 366 368 365 365 365 365 365 363 361 360 358 357 357 357 358 358 358 359
316 313 310 309 311 318 323 330 330 330 330 331 336 328 337 342 347 350 350 352 357 361 360 360 361 364 367 370 370 369 367 366 365 365 366 365 365 364 362 361 360 359 358 358 359 360 360 360 361
322 316 312 311 311 313 324 327 334 331 331 340 338 326 329 342 350 351 352 353 357 360 360 359 360 360 362 364 368 366 367 365 364 365 364 364 364 361 361 362 362 360 361 361 360 360 361 360 360
326 312 308 311 312 314 325 325 336 339 334 334 337 336 339 347 350 348 349 350 353 357 357 359 360 359 360 360 363 365 365 366 366 364 365 366 354 354 351 354 357 356 360 361 358 359 359 358 358
318 310 312 319 319 319 322 327 330 331 330 332 334 339 343 346 346 344 344 346 348 351 355 356 358 359 359 364 359 359 357 358 356 356 357 354 350 349 350 352 352 352 357 360 358 357 358 357 349
317 314 320 320 322 321 322 325 328 329 325 331 332 336 340 342 344 344 345 347 347 350 354 355 355 357 357 358 357 356 356 354 354 355 354 352 349 348 348 345 347 348 353 352 352 352 350 348 347
308 320 321 320 326 322 322 325 327 329 329 336 339 341 341 341 343 343 345 346 347 350 352 354 356 356 356 356 355 354 354 353 353 352 353 350 344 344 343 345 346 346 348 346 346 346 346 347 347
310 318 321 323 321 323 323 324 326 328 334 338 341 342 341 342 343 345 348 348 349 349 352 354 357 355 356 354 355 354 353 353 353 353 352 351 345 343 346 346 346 345 346 344 344 344 344 343 343
318 320 320 319 319 321 324 327 328 330 335 335 340 340 341 342 343 345 346 346 347 349 350 354 356 355 354 352 351 352 353 352 352 350 352 352 347 345 346 344 344 343 344 344 345 343 342 341 342
321 314 317 318 319 319 325 319 324 331 333 333 336 337 340 341 344 342 343 345 348 348 350 353 355 353 353 352 347 347 349 349 349 350 350 351 350 347 346 343 340 341 343 342 342 340 338 338 339
314 310 310 316 321 323 321 313 327 331 330 329 332 334 336 338 340 340 341 344 346 347 350 353 357 355 353 351 350 350 351 349 349 348 347 348 350 348 345 340 341 342 341 341 339 336 335 335 335
305 307 306 311 320 320 318 313 327 331 328 327 329 331 333 334 336 339 342 343 342 345 350 351 353 354 352 352 352 349 350 349 349 349 347 347 347 349 345 340 340 341 340 339 337 335 334 333 334
306 302 309 310 318 316 316 315 325 329 328 327 329 330 331 332 333 338 341 343 341 345 349 351 352 352 352 352 350 350 349 349 349 348 346 346 347 348 345 345 343 342 339 337 335 334 334 333 333
306 304 309 314 315 316 314 316 322 326 326 326 327 329 330 332 335 336 340 342 341 342 346 346 346 350 351 348 346 345 345 345 345 347 349 347 346 348 345 343 342 341 338 337 337 335 333 332 333
303 300 303 309 315 315 313 315 320 323 323 325 326 326 328 331 332 333 337 339 339 340 343 343 345 347 351 348 345 346 345 345 345 347 349 349 347 347 345 343 341 341 337 335 334 334 331 332 334
300 300 301 306 313 316 316 311 316 322 324 326 327 329 330 330 330 332 334 336 339 340 342 344 344 347 350 349 346 346 346 344 342 342 345 346 347 347 344 342 339 334 334 332 332 332 330 328 331
296 305 307 308 308 303 314 301 309 317 320 324 326 328 330 331 333 333 335 337 339 340 344 345 345 348 349 349 345 344 342 337 334 336 341 339 338 336 338 336 334 335 333 332 332 336 333 330 326
304 306 304 307 306 304 306 302 307 315 314 319 324 327 331 333 333 333 335 338 341 342 345 346 347 348 349 349 348 345 336 330 330 332 335 331 331 332 333 334 336 333 332 331 332 331 331 330 328
309 303 299 299 299 296 305 302 300 310 316 319 322 326 331 332 335 335 337 339 340 344 347 348 347 349 349 349 348 341 332 328 329 329 328 324 324 326 332 336 332 331 330 330 330 330 330 329 329
302 295 289 291 293 294 300 301 303 313 320 321 321 323 330 332 335 336 336 337 339 343 346 349 348 347 348 347 342 336 327 328 329 327 325 325 325 327 329 328 329 325 325 328 329 329 327 328 327
298 296 290 286 287 293 297 298 306 314 320 323 324 324 329 330 333 336 338 338 339 344 346 348 348 347 342 339 334 326 327 326 327 326 325 323 325 327 327 327 326 324 326 329 330 329 327 327 328
299 294 298 291 291 290 293 297 305 313 314 320 319 320 325 329 330 336 338 338 340 343 345 348 348 348 341 334 330 326 327 326 325 327 326 321 322 327 327 326 325 326 329 330 328 327 328 328 327
303 302 293 291 287 287 292 294 297 306 310 315 317 317 323 328 330 333 338 336 341 344 346 347 349 347 341 333 330 329 329 328 329 329 325 323 325 326 326 325 326 326 328 328 326 325 326 326 326
299 295 294 294 292 289 288 292 302 307 312 313 316 319 322 326 328 331 334 336 339 344 345 346 346 345 341 335 331 329 329 331 329 328 326 325 325 324 325 326 327 328 326 325 326 326 327 326 325
301 299 298 295 290 289 291 294 306 309 314 316 317 318 319 323 327 331 333 334 335 338 342 344 345 343 341 337 333 331 332 331 329 327 327 326 325 325 328 328 327 326 325 326 327 327 327 326 325

GFSSGP_sfc_thetae_006.txt.gz
Theta_e
360 356 351 344 319 313 308 312 320 320 323 330 332 328 325 327 321 312 339 346 351 350 353 357 364 361 360 361 360 360 360 363 365 366 366 365 365 365 364 363 363 363 361 361 361 361 360 359 357
353 350 347 333 310 304 306 317 316 322 329 333 332 331 328 324 335 337 339 352 354 353 353 355 363 363 362 362 364 363 362 364 366 366 367 366 366 364 364 363 362 361 361 360 360 359 357 357 356
351 346 332 324 306 304 307 317 321 329 333 332 330 334 331 328 338 339 347 354 355 354 356 358 363 364 364 364 364 367 366 366 365 367 366 366 366 364 363 361 361 360 360 359 357 357 356 356 355
341 334 327 308 302 311 315 319 327 328 332 334 332 328 337 341 340 345 352 354 354 355 357 363 364 364 365 365 367 365 366 367 367 368 365 365 364 362 361 360 360 359 358 356 356 356 356 356 356
334 322 307 305 308 319 322 324 327 325 330 331 333 328 330 341 347 349 351 353 353 355 358 360 366 366 365 365 365 368 367 367 368 367 365 364 364 362 361 361 359 358 357 357 356 357 357 358 357
318 316 305 302 309 320 322 324 326 330 332 331 330 329 332 343 343 348 351 351 357 357 359 360 365 366 366 367 366 367 367 367 368 365 364 364 363 363 361 360 358 357 356 357 357 358 359 359 359
319 311 308 307 313 318 321 329 329 328 329 330 335 326 335 339 346 349 350 354 358 360 358 359 361 363 366 368 367 367 366 364 365 363 365 364 363 363 362 361 359 358 357 358 359 359 360 360 360
319 312 310 309 312 314 323 328 332 329 330 338 337 325 328 339 348 349 350 353 356 358 359 358 359 360 360 360 364 364 364 364 364 364 364 364 363 362 361 360 360 360 360 362 361 358 358 359 356
325 311 306 309 311 314 324 327 334 338 333 334 336 334 339 346 349 347 347 351 353 355 357 358 358 356 359 360 361 363 364 363 362 361 363 363 357 357 359 354 358 359 359 359 361 358 358 359 357
316 309 311 316 316 320 324 329 331 330 329 331 333 340 345 346 345 343 342 343 346 349 354 356 357 358 359 363 360 358 358 359 359 359 358 358 355 354 347 355 355 355 354 359 359 357 359 355 352
316 311 317 318 319 326 323 328 329 327 324 330 329 336 342 343 343 343 342 343 345 350 354 355 356 357 358 359 358 357 357 356 357 357 357 356 352 351 352 348 349 352 354 353 354 352 351 351 350
310 317 319 319 324 324 322 326 327 327 327 335 335 339 342 341 342 342 342 345 345 348 352 354 355 356 356 356 357 354 355 356 354 354 355 353 348 348 347 348 350 350 351 349 349 349 349 349 349
307 310 319 322 320 322 325 324 327 326 333 338 338 340 339 340 342 344 345 347 347 347 350 352 354 355 357 354 355 355 353 355 355 354 354 353 348 344 346 349 350 349 350 349 348 349 347 346 347
310 317 319 319 319 320 322 324 327 329 337 337 336 337 338 339 342 343 345 345 346 348 350 352 354 355 355 354 354 354 354 354 354 353 354 354 349 347 347 348 347 347 349 347 349 347 345 343 344
318 313 317 317 318 322 325 319 321 331 335 335 336 337 339 341 343 343 345 345 347 348 350 351 353 356 353 353 351 351 353 353 352 352 353 351 350 348 347 347 346 347 346 346 345 344 341 341 342
311 311 307 315 319 323 319 310 325 331 331 332 336 337 339 340 343 345 347 347 348 349 348 351 355 355 353 353 351 351 351 351 351 352 352 351 353 351 348 346 344 346 346 344 343 341 340 340 339
305 304 305 311 318 320 317 312 325 330 330 331 334 336 337 339 341 344 345 346 347 348 348 349 354 354 353 350 350 352 352 351 351 352 350 350 351 352 349 345 345 346 345 344 342 340 339 339 339
303 305 304 309 315 317 314 313 324 327 327 328 330 331 334 335 337 341 341 344 346 347 349 350 352 353 351 352 351 350 350 351 351 351 349 350 350 351 349 346 346 346 344 342 341 340 340 339 338
306 307 309 311 315 313 312 314 323 326 325 325 326 328 331 332 336 339 340 343 343 343 347 348 349 352 351 349 348 348 347 349 349 349 350 350 349 350 348 347 345 345 343 342 342 340 339 338 338
308 303 306 308 314 314 313 314 322 325 325 326 326 327 328 331 331 334 337 340 339 340 345 347 349 350 352 349 348 349 348 348 349 349 350 350 350 349 347 346 345 345 343 340 339 338 336 337 339
299 299 299 307 313 315 314 310 314 323 325 326 327 329 330 330 330 331 334 337 339 338 342 345 346 349 351 350 348 348 348 347 346 347 349 350 349 349 348 346 345 342 339 338 338 337 336 334 336
296 304 304 307 308 301 311 298 309 316 319 322 324 325 327 329 332 332 332 334 337 339 342 344 345 347 348 350 347 346 344 343 343 342 347 347 347 346 344 342 340 338 338 337 337 340 338 336 332
302 305 304 307 304 303 306 300 304 315 313 318 322 324 327 329 330 331 333 335 337 340 341 343 344 344 348 349 349 346 342 342 334 336 341 340 339 337 339 338 338 339 337 336 337 338 337 336 334
306 300 298 298 299 294 302 303 300 308 315 319 322 326 328 329 331 333 334 336 337 340 342 343 343 344 347 348 348 346 343 335 332 333 336 333 332 332 335 337 339 338 336 336 336 336 336 335 335
299 295 289 289 291 292 299 301 305 310 319 320 321 325 329 331 332 332 332 334 337 338 341 343 344 343 347 348 348 347 343 334 332 333 333 328 327 331 334 336 334 333 333 334 335 335 334 334 334
297 296 290 286 287 294 300 299 306 316 317 321 322 326 327 330 332 333 333 335 337 339 341 343 344 344 347 349 348 347 341 333 333 332 330 329 329 332 334 332 333 329 330 333 335 334 333 333 334
296 293 297 290 287 289 293 298 305 309 311 316 320 322 324 329 332 334 335 336 337 339 341 343 345 346 346 347 347 340 336 330 330 331 330 329 329 331 331 331 331 329 330 335 334 333 333 333 333
300 300 293 289 286 285 291 293 297 303 308 311 316 319 322 327 331 333 336 337 338 340 342 344 346 346 346 346 343 339 333 330 329 329 329 327 327 330 331 331 330 330 330 333 333 331 332 332 332
296 294 292 292 290 287 286 291 300 304 308 311 314 320 321 324 329 331 336 339 340 340 342 344 346 347 346 343 339 335 330 329 329 330 330 328 327 328 329 329 329 330 330 332 330 330 331 331 332
301 297 295 293 288 289 290 292 304 307 308 314 315 319 318 323 328 331 336 338 339 339 341 343 345 346 348 345 337 333 330 331 330 330 330 329 328 328 329 330 330 331 332 332 330 330 333 332 331

GFSSGP_sfc_thetae_009.txt.gz
Theta_e
362 360 356 348 325 322 315 317 325 323 324 333 331 327 327 329 323 319 344 350 352 353 356 358 362 361 361 360 359 361 361 363 365 366 365 363 361 362 362 363 363 362 362 361 361 360 360 359 358
354 353 350 338 318 311 314 321 322 325 331 335 334 333 329 325 336 338 343 352 354 354 356 356 361 362 361 361 361 361 363 363 365 366 365 363 363 362 362 362 361 361 361 361 360 359 358 358 358
353 349 340 325 316 311 314 321 326 331 334 332 331 336 331 330 337 341 349 353 355 356 358 359 361 362 361 361 361 362 364 363 363 363 364 363 363 363 362 361 360 360 360 359 358 358 358 357 357
346 342 335 315 313 318 320 325 330 331 334 335 333 327 337 342 340 346 352 354 354 356 357 361 363 364 363 362 362 364 366 364 366 364 364 364 363 361 360 359 359 359 359 358 357 357 357 358 358
341 332 317 314 316 323 326 330 333 330 332 332 333 327 331 344 349 350 352 353 353 355 359 361 364 364 364 364 364 367 366 364 366 364 364 363 362 361 360 360 359 359 358 357 357 357 358 359 359
328 326 315 312 318 324 327 332 332 332 333 333 330 329 333 348 345 349 352 353 354 355 358 361 363 364 365 365 365 366 366 364 365 364 364 363 362 361 360 359 357 357 356 357 358 359 360 359 360
325 321 315 316 319 321 325 333 331 332 331 330 334 328 337 342 346 350 352 355 356 357 358 361 363 365 366 368 365 366 366 365 364 364 364 363 363 362 360 359 358 358 357 359 360 359 358 359 359
328 324 316 318 319 319 328 331 336 333 330 339 338 328 330 342 347 350 352 354 356 357 359 361 363 364 365 363 364 364 365 364 364 363 363 363 363 362 361 362 359 359 360 360 361 359 357 358 357
330 320 315 315 320 322 331 328 336 339 335 335 337 337 339 347 348 347 348 351 354 356 360 361 360 364 366 364 363 363 363 362 363 362 362 361 363 361 359 356 358 358 358 358 359 357 358 358 355
324 320 318 322 325 325 330 331 333 333 332 332 335 341 345 347 344 342 343 345 349 351 356 360 362 362 363 358 364 365 361 359 360 363 363 361 362 364 359 354 356 355 355 357 358 358 357 355 356
324 318 322 323 325 330 330 330 336 331 327 332 334 339 343 344 343 342 342 344 346 351 354 359 361 364 363 364 363 366 362 362 361 363 362 365 362 362 360 359 357 356 357 359 358 358 357 357 356
317 322 323 324 327 329 328 333 331 332 329 336 340 343 343 342 342 342 342 344 347 350 354 356 360 363 364 364 360 362 358 360 358 360 364 365 364 358 359 357 359 362 360 360 358 357 358 356 354
314 316 321 325 328 329 332 330 329 331 334 339 342 342 342 342 343 345 346 347 349 349 354 357 360 362 363 363 360 359 361 357 358 361 361 360 363 359 359 358 359 361 360 359 359 359 356 355 351
315 318 321 325 327 329 327 329 330 331 339 338 340 340 341 342 344 347 347 347 349 350 353 358 360 363 364 362 364 362 361 364 361 361 360 363 360 366 362 357 359 359 360 359 359 357 354 351 351
323 319 322 323 326 325 330 324 325 333 338 336 337 339 341 343 346 346 348 348 351 352 353 354 357 362 363 364 366 363 362 361 358 359 363 363 363 363 363 362 361 360 359 358 356 355 355 351 350
319 320 315 321 325 327 326 316 328 336 336 334 335 337 339 341 344 348 350 350 354 353 353 354 354 357 360 362 363 361 361 361 360 367 368 363 363 364 364 364 362 359 358 356 355 353 351 351 348
316 312 314 317 325 325 323 318 328 335 335 334 335 336 338 340 344 348 350 352 354 356 356 356 359 359 362 364 363 365 364 363 365 362 362 363 362 363 364 364 361 358 356 358 356 353 351 345 344
311 313 314 315 320 324 321 320 328 333 334 334 336 337 338 340 343 349 351 353 354 356 358 359 358 362 365 366 365 366 364 365 365 360 361 362 362 360 360 360 358 357 356 355 354 352 352 347 346
316 316 315 318 322 321 320 321 326 331 332 332 335 337 338 339 344 348 350 352 353 355 356 358 358 361 362 359 359 359 356 360 359 364 362 361 361 360 361 360 358 357 353 354 353 351 347 345 349
316 315 315 317 321 321 319 319 325 330 330 332 333 335 337 339 342 346 348 349 350 353 355 357 359 362 363 360 361 360 360 360 360 361 362 362 360 361 359 358 355 354 351 352 350 349 345 345 349
313 314 315 314 318 320 320 316 320 328 331 332 333 335 336 337 339 342 344 347 349 350 353 356 360 362 363 364 362 361 361 361 358 358 358 359 360 360 359 357 354 353 350 344 350 348 346 341 346
307 315 317 315 314 309 319 306 317 323 326 329 331 332 334 336 338 340 342 344 347 349 352 356 359 361 362 364 360 360 355 353 355 356 357 358 360 358 358 356 352 352 347 349 349 348 349 347 340
310 314 313 315 314 312 313 309 313 321 321 326 330 332 334 336 337 338 341 343 346 349 350 353 358 361 362 363 363 358 358 357 357 354 356 360 359 358 354 352 350 349 347 350 348 349 347 346 342
311 310 310 312 311 303 309 310 308 316 320 324 329 331 333 335 337 339 342 344 345 348 349 351 356 359 359 360 361 360 359 358 353 350 348 351 353 351 350 348 349 350 349 348 345 347 345 345 345
310 308 300 300 300 299 308 310 311 319 324 326 327 330 332 335 336 337 340 341 343 346 348 350 355 356 355 357 359 359 359 360 356 353 348 348 349 347 345 347 347 347 349 346 346 345 345 343 341
307 308 302 296 297 300 307 304 310 321 324 327 329 331 332 334 335 337 340 343 344 345 348 350 353 355 355 355 359 361 361 358 355 354 348 347 348 346 346 346 347 348 345 343 345 343 342 344 341
306 303 311 305 300 301 305 310 313 318 320 322 325 329 331 333 336 337 340 342 345 347 350 352 354 355 355 355 360 359 360 359 355 353 349 348 349 343 345 345 346 344 340 343 345 340 342 343 343
308 310 302 303 298 296 301 303 305 315 318 322 323 327 330 334 337 338 341 342 346 347 349 352 354 355 356 355 357 357 358 358 357 352 346 346 346 344 344 344 343 341 340 341 344 341 341 341 340
304 303 304 306 303 299 297 301 315 318 324 322 323 327 330 333 337 340 342 344 346 347 349 350 351 354 354 355 358 358 356 354 355 350 343 342 344 343 343 343 341 341 340 341 342 342 341 339 340
308 306 307 302 301 302 302 303 315 317 320 322 324 326 329 335 338 339 341 343 344 346 346 348 349 350 355 357 357 355 354 353 346 348 342 345 335 342 342 342 341 341 340 341 341 340 337 338 338

GFSSGP_sfc_thetae_012.txt.gz
Theta_e
363 364 364 355 332 324 316 320 328 326 327 334 332 329 329 333 328 324 350 353 354 355 358 359 360 360 359 360 361 362 363 362 365 364 362 361 362 363 364 364 362 362 362 362 361 359 359 359 358
363 359 355 343 321 313 317 325 324 329 333 336 335 333 331 329 339 342 347 353 354 354 356 358 361 361 359 360 361 363 361 361 363 362 361 361 362 362 363 362 361 362 361 360 360 359 359 358 358
356 354 340 325 317 314 317 325 329 332 334 333 333 338 334 333 341 344 352 355 355 355 355 359 361 361 362 361 361 363 362 363 363 362 361 361 361 363 362 361 361 361 360 359 358 358 358 359 359
348 346 341 316 313 319 323 329 333 332 334 335 334 330 339 344 343 349 354 356 355 356 356 358 361 362 362 362 362 363 363 363 363 362 362 363 363 361 360 361 360 360 358 358 358 357 358 359 358
349 338 320 315 317 321 327 332 334 331 332 332 333 329 334 345 350 353 355 356 355 356 357 358 363 363 363 363 363 364 363 363 363 363 363 363 361 361 360 360 359 358 357 357 358 359 359 359 359
335 332 317 313 317 322 327 333 334 332 334 334 331 333 337 348 349 353 355 356 356 356 358 362 364 364 364 364 365 365 364 364 364 364 363 362 361 360 360 359 357 357 356 357 359 359 359 359 359
330 324 316 318 318 320 325 333 331 333 333 332 336 331 340 343 350 353 354 355 356 357 359 361 363 366 365 365 366 365 364 364 363 363 363 362 361 360 359 359 358 357 358 359 360 357 357 357 357
333 327 317 320 318 318 327 331 334 332 332 340 337 330 334 342 350 352 353 354 355 357 359 359 362 362 364 364 365 365 364 362 362 362 361 361 361 360 360 360 358 358 359 358 360 357 357 357 357
335 322 318 318 319 324 330 328 335 338 336 337 338 336 341 345 349 349 350 352 353 354 356 360 360 364 365 361 361 363 363 363 362 362 362 360 359 362 358 358 356 358 357 357 357 356 358 356 356
327 322 319 323 325 327 329 329 333 333 333 333 337 341 344 344 346 345 347 348 351 354 356 357 360 361 360 357 363 364 360 358 357 358 360 357 362 363 359 358 355 355 355 356 357 356 357 358 357
323 320 325 325 325 330 330 329 335 329 329 333 335 339 342 343 345 345 347 349 350 353 355 356 359 362 360 359 360 359 358 358 359 363 360 359 361 363 361 362 359 359 356 359 358 358 358 357 356
317 321 322 324 327 330 329 333 330 330 329 336 339 343 343 342 342 343 345 347 349 352 354 357 359 361 361 361 359 359 357 357 355 356 363 362 357 360 361 359 362 361 362 359 361 359 359 358 357
317 319 320 323 326 330 333 330 330 331 335 339 341 343 342 342 343 345 346 347 349 351 354 356 360 363 363 363 358 358 357 356 355 357 360 358 357 360 358 361 362 359 361 360 358 359 358 357 354
319 319 320 323 327 331 329 331 332 332 336 339 340 341 342 342 343 345 346 347 349 351 353 357 359 363 364 362 363 359 359 357 358 356 357 362 358 365 358 358 357 358 360 360 359 359 356 355 354
321 319 323 325 329 329 331 327 328 334 338 338 339 341 341 342 344 345 347 348 350 352 354 357 360 362 363 364 364 362 359 358 357 356 363 365 367 363 361 360 356 357 363 362 360 360 358 353 352
319 320 316 325 328 330 330 319 330 337 336 337 338 340 340 342 344 347 349 351 352 353 354 357 357 359 362 363 363 361 359 359 367 360 362 362 364 364 362 357 357 357 358 360 357 357 352 349 346
318 313 315 321 328 328 327 320 330 337 336 336 337 337 339 341 344 348 349 351 352 355 357 357 358 357 360 365 364 363 365 366 363 363 363 363 363 363 361 358 360 361 360 358 357 352 351 342 340
312 313 315 316 325 327 324 323 329 335 334 335 337 337 337 339 342 347 350 353 354 357 359 359 358 361 364 371 368 365 360 360 360 367 369 366 363 362 361 359 359 359 359 356 353 351 348 344 341
316 316 315 319 326 324 322 322 327 334 334 334 337 337 337 338 342 347 351 352 354 357 359 361 361 364 367 357 355 356 354 357 358 360 364 364 363 363 363 358 358 359 355 354 353 346 343 338 345
315 314 315 319 325 324 322 322 326 331 334 334 336 338 339 339 341 346 349 351 352 355 359 361 363 365 366 360 366 360 359 357 359 360 364 364 363 364 361 361 358 359 352 353 348 346 340 341 346
315 314 315 317 322 325 321 320 323 327 332 335 336 338 341 340 340 343 346 349 351 353 358 361 364 366 367 367 364 364 364 363 358 358 359 362 364 364 363 362 358 356 349 340 347 346 344 337 345
311 317 317 317 317 312 322 310 318 323 327 331 335 336 336 340 343 344 345 347 350 352 357 362 364 366 367 369 368 366 356 350 350 353 353 355 361 361 360 360 357 351 344 347 347 346 346 345 339
312 318 317 317 316 316 317 313 316 322 322 327 333 336 336 337 340 342 344 346 350 352 355 359 364 366 368 368 370 362 361 354 353 353 356 358 360 358 355 359 352 349 345 349 350 347 347 344 338
316 315 316 316 314 308 314 313 312 316 322 324 330 334 337 335 337 341 344 346 348 351 353 356 363 368 367 367 367 366 363 359 352 354 351 348 350 353 357 357 351 350 348 349 348 347 346 345 344
313 312 305 304 304 304 315 312 314 319 322 324 325 332 337 337 337 338 341 343 347 349 352 354 360 363 365 365 365 366 365 364 361 359 352 350 346 346 353 357 350 346 352 350 348 347 345 345 342
310 312 306 300 301 305 313 308 313 322 324 325 328 330 336 337 336 337 341 343 346 348 351 354 357 363 363 363 364 368 367 361 360 361 350 347 344 345 352 354 349 349 350 350 346 342 342 344 342
309 308 315 309 310 306 309 313 318 321 322 325 326 330 333 336 335 337 340 343 346 348 353 358 362 361 361 361 364 366 366 365 361 363 360 352 353 346 351 351 348 347 349 346 346 341 343 343 343
311 315 307 309 302 300 305 308 310 316 318 321 325 328 332 336 338 336 340 342 346 349 351 354 357 360 360 360 361 361 363 365 365 363 360 358 353 352 350 349 345 347 346 345 346 342 343 343 338
308 308 310 311 308 303 302 306 318 317 320 320 323 329 331 335 338 339 339 342 346 348 350 352 354 357 358 359 363 362 361 362 364 363 361 359 355 353 350 350 346 346 343 344 345 344 340 340 341
311 309 311 305 306 308 307 307 319 321 321 321 322 324 329 335 339 341 342 343 345 347 348 350 352 353 356 362 364 361 362 362 361 364 361 360 355 351 351 349 347 344 343 343 343 340 338 338 337

GFSSGP_sfc_thetae_015.txt.gz
Theta_e
361 361 360 352 326 323 318 321 327 325 327 333 334 331 330 332 326 323 344 351 355 353 356 358 360 360 361 361 363 363 362 364 364 364 365 363 364 365 364 363 363 363 362 361 360 359 359 359 359
362 361 359 347 322 313 315 325 323 328 333 336 335 334 331 331 340 342 344 352 352 352 355 356 362 361 361 361 361 363 360 361 361 363 362 362 363 363 362 361 362 361 361 360 359 358 359 359 359
364 360 343 330 318 313 316 324 329 332 335 333 333 337 336 332 342 343 351 351 351 351 354 359 361 360 361 362 362 363 362 361 361 361 361 361 362 362 361 361 360 360 359 358 358 359 359 359 359
355 348 341 318 315 322 324 327 331 331 334 335 336 332 340 346 344 349 352 352 350 350 354 360 362 361 362 362 363 363 363 363 360 360 361 362 362 361 360 360 359 359 359 359 359 360 359 359 359
349 341 325 314 315 322 329 331 332 329 332 332 335 332 335 345 351 353 352 352 351 355 356 357 363 362 362 363 364 364 364 363 361 361 362 362 361 360 361 359 357 357 358 359 360 360 360 359 358
336 332 317 313 315 321 328 332 331 330 333 332 334 334 338 349 349 351 352 353 354 355 355 358 363 363 363 363 364 363 362 362 362 362 362 361 360 359 359 357 357 357 357 358 360 358 358 358 357
332 324 317 317 317 318 323 332 329 330 331 331 338 333 340 346 351 354 354 355 353 356 355 360 361 364 364 364 363 363 364 363 362 362 362 361 360 359 358 357 356 357 358 360 359 357 357 357 355
335 324 318 320 316 316 325 328 330 330 331 338 340 333 335 346 351 352 354 352 353 354 356 358 360 360 362 363 364 363 363 361 360 361 361 361 362 361 359 359 358 356 357 356 358 356 356 356 356
336 320 318 317 321 320 326 324 331 336 333 334 336 339 344 349 350 348 348 351 349 352 355 355 356 358 364 363 365 364 363 360 360 361 362 360 358 359 362 361 357 356 356 355 356 356 358 357 358
328 317 319 324 326 324 326 325 328 329 330 332 334 342 345 347 347 345 345 346 348 350 352 355 356 357 358 354 362 360 357 356 357 357 361 356 362 363 358 359 358 356 357 358 358 359 360 360 357
324 320 324 325 326 329 327 326 329 328 326 332 333 338 342 344 345 345 346 347 347 352 354 356 358 361 357 362 357 357 357 357 357 361 360 358 359 358 360 357 358 360 359 356 359 357 358 357 354
319 324 323 324 328 327 326 330 325 326 329 334 338 340 341 342 343 344 345 347 349 352 352 353 358 360 359 357 356 355 354 354 354 357 363 362 358 360 360 360 359 362 359 357 360 358 361 356 356
319 322 323 323 326 327 330 327 326 325 331 336 339 340 340 342 344 346 346 347 350 349 352 353 357 362 362 363 356 357 355 353 354 355 361 359 356 363 358 359 358 360 359 356 358 359 357 358 355
322 322 322 323 325 328 327 327 329 328 333 335 338 339 340 341 342 345 345 346 349 351 352 355 357 362 363 364 366 359 361 359 355 361 357 362 359 365 366 363 355 356 362 359 359 358 357 358 357
322 318 323 322 325 325 328 323 324 330 335 334 337 338 339 340 342 343 345 346 349 351 354 355 357 360 363 364 363 360 357 356 357 356 361 364 364 362 364 359 357 360 363 362 360 358 358 355 353
318 319 316 322 324 327 327 319 326 333 333 333 334 337 338 340 341 345 346 347 350 352 354 357 355 357 361 364 364 360 357 360 359 357 361 363 366 365 364 358 356 361 360 359 361 355 354 349 343
317 312 315 317 325 327 325 317 328 333 331 331 334 335 337 339 342 345 346 348 350 353 355 356 358 357 360 368 364 363 367 364 361 362 357 364 365 365 363 359 359 362 357 361 356 355 350 343 340
312 313 316 318 321 326 322 322 328 332 331 330 332 334 336 337 340 345 347 349 350 353 356 358 357 363 366 373 368 366 359 361 360 358 363 365 363 364 364 358 360 359 362 357 359 352 347 344 341
317 316 314 319 323 322 322 322 326 332 332 330 332 333 334 336 342 345 348 349 350 353 356 359 362 370 363 358 361 356 355 357 356 356 363 366 364 365 364 360 361 360 356 356 352 347 345 338 344
315 315 315 319 321 322 322 321 327 331 331 333 333 333 334 335 338 342 346 348 350 352 358 363 366 371 368 361 363 360 358 355 355 356 364 363 363 366 361 364 358 361 353 355 350 347 339 338 344
315 314 315 316 322 324 321 318 322 327 332 334 334 337 336 335 335 340 343 347 349 352 357 364 370 372 371 371 366 365 368 360 356 354 358 361 362 362 364 362 361 359 354 342 348 346 344 337 341
311 317 317 316 315 313 320 310 320 323 326 330 334 335 336 336 337 338 343 346 348 352 356 365 370 373 371 373 366 368 356 350 349 352 352 356 360 358 362 361 357 356 348 355 348 345 346 344 338
312 318 317 317 317 317 315 312 316 322 321 325 331 335 337 337 338 338 341 345 348 351 353 360 371 373 374 374 370 361 362 352 351 350 362 364 364 357 354 356 357 353 344 351 350 346 347 344 339
316 315 317 316 315 308 315 312 315 317 322 325 328 333 337 338 338 341 343 345 347 350 352 359 370 373 374 374 372 372 371 361 352 355 352 349 350 352 356 355 355 352 350 350 348 348 346 346 345
313 311 305 305 305 305 316 313 317 323 324 325 325 329 335 339 339 338 342 342 347 351 355 359 367 371 373 369 370 369 371 371 366 362 352 354 347 348 359 359 355 347 352 351 350 350 348 345 343
310 310 305 301 303 306 314 309 314 325 326 326 327 328 332 337 339 337 340 344 348 350 357 359 364 369 372 370 372 374 374 360 358 362 354 348 347 349 364 356 354 349 350 350 351 344 342 348 342
309 307 314 309 311 307 310 315 320 324 324 325 325 326 327 335 339 338 339 341 346 349 356 359 364 368 370 364 373 373 373 371 360 366 366 355 358 349 353 356 352 349 349 350 351 342 346 345 345
309 313 307 311 304 303 307 310 311 318 320 323 324 324 327 333 338 339 338 340 345 347 352 358 363 366 366 367 369 368 370 373 372 372 370 363 361 359 359 354 351 349 349 349 349 346 347 345 341
307 307 311 311 310 304 303 309 320 321 323 322 324 325 327 331 337 339 339 340 343 345 348 353 357 362 364 366 367 367 366 368 371 370 369 368 360 362 357 357 351 348 349 346 347 347 344 343 345
311 308 309 307 307 309 309 309 321 322 323 323 324 326 328 331 336 339 340 341 342 344 344 347 351 351 359 363 367 367 368 368 366 369 370 370 365 361 359 356 352 350 347 348 345 343 342 340 339

GFSSGP_sfc_thetae_018.txt.gz
Theta_e
359 358 357 342 325 321 315 320 327 325 325 333 335 330 328 332 325 321 345 351 352 351 355 356 361 361 360 362 365 365 366 367 367 367 367 367 367 367 366 365 365 364 363 360 360 360 360 359 359
357 356 351 330 318 311 315 325 322 326 330 336 336 334 331 328 337 339 344 351 352 351 353 355 362 362 362 364 365 365 365 365 366 366 366 367 367 366 364 362 361 361 360 360 359 360 360 360 359
357 355 340 333 320 312 316 324 327 331 334 333 332 336 334 332 341 343 349 352 350 350 354 357 362 364 364 364 365 365 365 364 365 365 365 366 365 364 362 361 360 359 359 359 360 360 360 359 360
355 349 345 326 316 321 322 326 329 329 334 335 335 330 339 344 343 347 350 349 350 353 353 361 363 363 365 364 365 364 365 364 364 364 365 365 363 361 361 360 358 358 359 360 361 360 360 359 359
355 340 324 320 317 324 328 329 331 327 330 333 335 331 334 343 348 349 348 349 350 351 353 357 364 365 365 365 365 365 363 362 364 364 364 363 362 360 361 358 357 357 358 360 361 359 359 358 357
336 337 321 311 314 323 327 333 330 328 331 332 332 332 335 348 346 349 350 349 350 350 351 355 363 365 365 365 366 365 363 362 363 362 363 362 361 360 359 356 356 357 358 360 361 358 358 357 355
329 326 318 316 314 318 324 332 329 328 329 331 338 330 337 343 349 351 351 352 351 352 354 356 358 362 364 366 364 364 363 363 363 362 361 360 360 360 358 357 356 356 359 359 359 357 356 356 354
332 326 321 319 314 315 324 327 330 329 329 337 339 329 332 343 350 352 352 351 351 353 354 358 359 358 361 361 364 363 362 362 360 360 360 360 361 361 360 362 359 356 356 356 357 356 356 355 357
335 320 317 317 318 317 325 322 331 335 331 333 337 337 341 345 351 347 349 349 351 351 353 355 355 361 363 362 360 363 362 360 359 360 362 363 357 361 361 363 361 358 358 355 357 359 361 361 362
325 319 318 324 325 321 324 324 325 326 327 329 336 340 343 344 347 345 344 344 345 348 350 351 355 358 360 355 363 364 358 355 356 358 362 359 355 362 360 360 359 359 359 356 361 364 363 362 358
325 316 323 325 327 327 324 324 326 326 323 329 333 337 340 341 341 344 344 344 346 347 349 352 358 359 358 360 359 357 357 357 358 365 361 366 356 354 357 360 355 359 360 356 357 359 355 361 357
320 325 325 326 328 328 324 326 323 327 326 334 339 341 341 339 339 340 341 343 347 349 351 354 358 359 362 357 355 357 357 358 357 361 368 370 364 363 356 363 357 359 359 356 362 358 357 359 358
319 320 325 324 323 325 328 325 323 325 331 335 338 339 340 340 340 341 343 345 349 346 353 356 360 362 367 362 363 358 363 355 357 362 364 361 365 354 360 363 361 364 360 361 356 359 357 356 358
321 321 322 323 323 324 325 325 325 326 331 332 335 336 338 340 340 342 344 345 349 349 351 358 360 364 370 364 370 364 349 366 352 355 361 370 368 369 365 364 360 356 362 365 363 361 361 360 359
320 317 320 321 322 323 328 321 322 328 330 331 333 335 337 339 342 342 344 346 349 350 353 357 358 361 365 368 371 371 367 360 354 361 365 362 369 369 371 365 363 362 359 361 366 361 362 357 355
315 316 312 320 322 324 324 317 324 329 327 328 332 333 335 338 339 344 344 346 349 351 355 359 354 359 361 365 369 364 359 365 362 358 367 362 371 371 370 365 361 358 358 360 354 357 355 353 351
313 309 311 315 322 323 321 319 327 329 328 327 330 332 333 337 340 344 344 347 348 354 359 359 360 359 362 367 365 364 364 362 366 366 358 365 362 368 366 361 362 363 364 362 359 357 353 348 345
308 310 313 315 320 322 321 319 323 326 327 327 328 331 333 334 337 343 345 347 349 354 359 360 361 368 365 363 368 368 364 359 358 367 362 362 367 368 365 363 360 366 365 360 360 352 353 348 344
313 314 313 317 322 319 322 319 320 326 328 327 328 329 332 334 340 343 345 346 348 353 357 359 361 367 367 364 357 360 358 363 362 366 364 362 369 370 366 362 365 366 357 359 352 353 346 344 346
313 312 313 318 322 321 320 321 324 328 328 328 328 328 329 332 336 341 344 345 347 352 355 360 361 369 366 364 364 362 360 359 361 353 365 366 365 368 366 365 361 357 358 353 354 349 344 345 348
311 311 313 313 319 321 319 316 321 326 329 330 331 332 331 332 332 339 343 344 348 351 356 360 363 366 364 368 364 366 366 360 359 360 363 360 367 366 363 363 364 362 358 354 352 350 348 340 347
308 315 315 314 315 310 319 308 320 322 326 328 330 332 333 333 335 338 342 345 347 351 357 362 364 365 367 366 363 362 355 355 360 363 361 364 364 364 365 366 363 362 358 354 352 351 347 348 339
311 316 315 314 313 315 316 311 318 323 322 326 329 331 333 337 336 336 340 345 347 352 355 361 365 367 366 368 364 362 360 357 357 356 365 362 368 363 363 365 362 358 352 357 353 350 348 349 344
315 314 314 314 312 306 313 312 313 318 319 322 328 332 334 336 338 338 341 345 347 351 355 357 365 366 366 367 365 366 359 356 356 361 357 359 357 358 364 359 361 357 353 354 352 351 350 348 349
311 308 303 303 304 303 314 312 315 322 325 325 324 330 335 338 339 339 339 342 346 349 353 358 363 364 366 367 366 364 367 363 365 368 358 354 348 352 358 362 357 353 355 358 354 353 353 348 347
308 307 304 298 301 304 313 308 315 326 327 326 329 331 333 336 338 339 341 342 346 348 353 356 362 363 366 364 367 367 367 366 361 365 360 357 354 354 355 357 356 355 354 354 354 351 347 349 345
308 304 311 305 308 305 309 313 318 323 325 325 325 328 328 335 338 339 342 344 347 348 350 355 361 364 366 366 366 368 366 365 363 364 364 359 359 362 355 355 356 352 354 353 354 347 346 348 348
309 312 303 305 299 300 306 309 311 319 322 325 324 326 327 330 338 340 340 344 347 350 351 356 360 363 366 366 366 366 366 365 364 364 364 358 361 359 357 356 354 351 350 353 350 345 347 347 345
307 305 306 307 306 302 302 307 321 323 326 326 326 327 327 329 336 338 341 341 347 349 351 353 356 362 365 365 365 366 366 367 365 366 363 361 363 358 358 356 352 349 348 350 346 343 343 341 344
311 307 307 302 303 306 306 309 321 324 324 327 327 328 329 331 334 338 341 341 342 345 348 352 355 358 362 364 364 365 366 366 366 363 366 365 361 363 358 355 351 348 346 347 344 340 340 341 340

GFSSGP_sfc_thetae_021.txt.gz
Theta_e
359 357 353 342 324 320 316 319 327 324 325 331 332 330 328 330 324 316 342 348 350 350 354 355 361 362 363 364 366 366 367 368 368 368 368 367 365 365 365 363 363 364 362 360 360 360 359 358 358
355 354 349 330 319 311 315 321 322 327 330 334 334 332 328 325 334 336 340 349 351 351 351 354 362 363 363 365 367 366 365 365 367 367 368 367 365 365 364 362 362 361 360 359 359 359 359 359 358
354 351 337 326 318 313 315 322 326 331 335 333 331 335 332 330 339 340 347 350 350 349 351 355 363 364 364 364 366 366 366 364 365 366 368 367 365 363 362 361 360 360 360 360 359 359 358 359 359
349 347 340 323 315 321 322 326 329 331 333 335 334 328 337 343 341 346 349 348 347 350 355 362 364 362 365 365 365 364 364 365 366 366 368 366 365 362 361 359 359 359 359 360 360 360 358 358 358
351 338 322 320 318 322 325 328 331 329 331 332 333 328 331 342 346 349 347 348 347 350 355 358 366 366 366 364 364 365 363 363 366 367 367 366 365 362 360 358 358 357 358 359 359 357 357 356 357
335 334 318 314 316 323 326 328 330 330 333 334 331 330 332 344 344 345 348 348 350 351 354 357 364 366 367 365 364 365 363 363 366 367 366 366 365 364 362 359 357 356 357 359 358 356 357 356 355
324 320 316 316 313 319 325 331 330 330 331 331 337 328 334 339 343 347 347 349 349 350 352 355 358 361 366 367 365 364 364 364 366 366 365 365 364 361 361 362 358 357 357 357 357 356 357 359 358
331 324 319 317 316 312 327 327 332 331 330 339 341 329 329 339 345 346 347 347 346 350 352 353 355 356 357 359 364 363 364 363 363 364 362 362 360 360 359 363 362 357 356 356 357 359 362 362 363
334 318 315 316 317 315 323 325 332 336 333 336 338 338 342 345 346 345 345 345 348 349 350 353 354 354 355 355 358 364 363 363 363 362 364 363 355 354 358 360 361 357 358 358 359 363 364 364 365
324 318 316 323 323 319 324 327 328 329 330 331 335 341 345 345 344 342 341 342 345 346 350 352 353 354 355 357 355 355 356 353 352 353 353 355 352 350 358 360 363 359 359 362 362 363 364 362 354
323 314 323 324 325 325 320 322 325 324 326 331 332 337 342 343 342 341 341 343 344 345 350 351 353 354 353 352 354 355 353 350 349 350 353 353 354 351 350 352 351 352 358 351 355 356 354 350 352
317 322 322 323 327 321 319 321 323 324 329 336 336 336 342 340 340 340 341 342 343 344 346 349 352 353 352 355 353 353 351 350 349 352 355 352 352 347 351 352 348 352 352 351 353 351 350 351 348
317 320 323 324 325 323 324 323 324 325 335 338 338 337 338 339 341 341 342 344 343 344 346 349 352 351 353 351 348 349 350 352 351 354 354 351 351 350 348 353 352 351 351 353 350 354 350 348 349
319 319 317 321 322 323 321 321 323 328 337 337 337 335 336 335 338 341 341 341 343 345 347 351 351 352 353 350 352 354 350 352 352 353 354 354 351 349 353 350 351 353 353 355 352 349 348 348 350
317 313 315 316 315 320 325 320 319 328 334 334 335 336 337 336 336 335 343 342 342 345 348 350 350 356 353 351 355 354 355 347 345 354 355 355 354 352 352 352 349 353 354 354 352 350 350 350 351
311 308 302 313 317 320 320 311 323 325 329 330 332 334 336 336 336 337 342 343 342 345 348 351 355 354 355 353 356 353 350 353 351 348 355 356 356 356 352 353 351 351 353 350 347 346 345 347 342
304 300 303 308 317 318 318 313 321 323 327 326 329 331 333 334 336 338 339 342 343 347 350 350 351 351 351 355 358 353 351 353 350 354 354 355 357 357 352 353 353 352 351 348 348 344 343 335 332
298 300 304 306 314 318 316 315 321 323 321 325 327 329 330 332 334 338 339 342 344 349 350 349 351 351 350 357 355 355 352 354 356 353 349 352 356 358 353 351 352 351 347 347 344 343 342 334 333
306 305 305 310 317 317 317 316 319 319 320 320 326 327 329 331 334 338 339 342 345 350 348 350 350 353 353 353 353 351 347 353 350 352 355 355 356 356 353 349 351 351 348 346 344 339 331 331 335
306 304 304 310 318 317 318 316 319 318 319 321 324 326 328 330 332 336 338 339 343 347 348 348 350 357 354 354 351 351 350 352 352 353 357 358 356 356 352 351 350 349 349 347 338 334 331 333 338
304 303 304 306 315 318 318 313 315 317 321 324 325 327 329 329 330 334 336 337 340 345 348 349 350 356 356 354 354 353 352 352 348 351 353 356 357 358 354 353 351 350 346 340 336 334 333 329 337
301 309 309 308 308 305 317 305 313 315 320 323 323 324 326 329 332 334 336 337 339 345 350 350 352 357 354 356 351 348 345 344 348 352 352 357 357 356 355 353 351 346 343 339 336 337 332 333 327
304 310 309 309 306 309 310 304 311 318 317 320 322 325 325 327 330 333 336 338 341 346 348 353 353 354 355 355 352 351 347 347 350 346 349 354 352 353 356 353 351 343 340 341 338 334 332 335 334
309 307 307 307 305 299 306 307 305 313 317 320 324 326 327 327 329 333 337 339 339 346 349 354 353 353 357 352 354 353 349 348 346 346 350 351 351 348 353 352 346 342 336 339 338 337 335 333 335
305 297 295 294 296 294 305 305 308 317 320 324 325 326 329 330 329 329 334 337 339 344 349 353 353 353 356 356 354 354 352 348 345 349 349 347 344 343 347 349 344 341 339 341 340 336 335 333 333
301 300 295 289 292 296 303 301 308 320 322 327 328 326 329 330 331 330 334 336 339 342 347 353 354 353 357 357 357 355 356 352 351 352 347 344 344 345 347 349 344 341 339 344 342 337 337 336 333
300 298 302 293 296 294 299 303 310 319 320 322 322 324 326 326 332 332 333 336 339 341 347 348 355 355 356 358 358 356 355 357 356 351 353 346 342 347 347 350 344 341 340 339 341 337 336 338 334
304 303 295 298 289 290 297 299 302 308 316 319 319 321 324 325 331 333 333 335 339 342 346 350 356 355 357 355 359 360 358 356 356 353 351 349 344 349 346 349 345 343 341 340 340 335 338 335 338
302 300 298 296 297 292 292 298 306 311 319 319 320 322 321 327 329 333 335 336 340 342 345 349 354 355 357 358 356 359 360 358 357 355 352 350 349 347 347 348 346 341 341 342 340 335 334 337 333
306 301 298 295 290 294 295 297 310 311 319 322 321 322 321 322 332 334 335 336 340 341 342 348 355 356 358 360 358 356 358 359 356 354 355 354 349 349 349 348 346 342 338 341 340 335 336 334 335

GFSSGP_sfc_thetae_027.txt.gz
Theta_e
355 354 352 342 323 319 315 319 325 322 323 330 332 328 325 327 322 315 340 345 347 347 351 355 361 361 362 363 365 365 364 364 364 363 362 362 362 362 361 361 360 359 359 358 359 359 358 358 357
353 351 347 331 317 307 311 321 321 323 328 331 331 330 326 323 333 335 339 345 348 349 350 354 361 362 363 363 365 365 364 364 363 363 362 362 362 361 360 360 359 358 358 358 358 358 358 357 357
353 349 332 323 315 309 312 322 324 327 331 331 328 333 329 326 335 337 342 347 348 349 351 354 361 362 363 363 364 365 364 363 362 362 362 362 361 360 359 359 359 358 359 359 358 357 357 357 357
342 341 337 321 316 320 321 325 328 328 331 332 331 325 334 339 338 342 346 348 348 349 352 357 361 362 363 362 362 362 362 363 362 361 361 362 361 359 358 358 358 358 359 358 358 357 357 357 357
345 335 320 318 318 322 327 328 330 327 328 329 331 326 329 339 343 344 346 348 346 348 351 355 362 364 363 362 361 361 361 362 362 361 361 361 360 358 358 358 357 357 359 359 357 358 357 357 356
330 330 316 311 316 324 328 331 330 329 330 330 328 328 330 342 342 345 346 345 348 349 352 355 361 362 362 362 361 361 360 362 362 361 361 361 360 358 358 357 356 356 358 358 357 357 357 354 355
322 317 313 316 316 322 326 333 328 328 328 327 332 324 332 338 344 346 346 347 348 353 353 353 354 357 362 362 361 361 360 362 362 362 361 361 360 359 358 356 356 356 356 356 356 355 355 355 356
329 316 314 316 316 317 329 331 331 329 328 336 335 324 326 338 344 345 346 347 348 352 353 352 352 352 354 355 362 361 360 361 362 362 362 361 360 358 357 361 357 356 356 355 355 355 355 356 358
331 311 310 313 315 319 329 327 333 336 330 332 335 333 336 343 343 343 343 343 347 350 351 351 352 352 354 356 357 361 361 361 362 361 361 362 353 352 356 358 359 359 357 356 356 355 357 358 358
321 310 311 319 319 322 329 329 330 330 328 330 332 336 340 342 341 339 339 339 342 344 349 351 351 353 354 358 354 354 354 353 354 355 353 354 351 350 355 358 360 357 358 358 359 356 358 354 350
321 315 320 321 326 328 328 329 332 328 324 330 328 333 337 338 339 338 339 339 341 344 348 351 351 353 352 353 350 351 351 351 350 350 350 349 351 348 351 349 352 350 355 349 351 351 348 351 347
318 323 324 324 326 325 327 330 328 329 328 335 334 336 336 336 337 337 337 339 340 343 346 350 351 352 350 348 351 351 350 348 347 346 347 347 347 346 346 346 348 346 347 350 350 348 349 346 348
322 322 322 326 326 324 330 328 329 329 334 337 336 336 335 335 337 339 339 342 343 343 345 348 350 350 351 346 349 347 347 348 346 344 345 348 346 344 344 346 348 347 348 350 348 350 347 344 347
310 316 315 316 317 324 326 328 328 331 336 335 335 334 335 336 337 339 339 341 342 344 345 348 348 349 349 347 345 346 346 347 346 345 346 350 348 346 345 344 348 349 351 351 351 348 345 344 347
311 307 310 311 312 317 327 321 324 331 334 334 334 335 336 337 338 339 340 342 343 344 347 347 348 349 348 347 347 345 346 348 347 348 348 348 349 346 345 345 345 347 348 351 351 344 346 344 339
303 302 299 308 315 316 319 310 325 331 331 332 334 335 336 337 338 340 342 342 344 345 346 347 350 349 348 348 346 347 346 349 350 347 350 350 350 347 347 346 345 347 348 348 343 342 339 333 330
298 296 299 302 315 317 313 309 326 331 330 330 333 334 335 336 338 339 341 343 344 344 345 346 348 347 348 347 347 347 348 347 347 347 349 350 350 350 348 348 348 347 345 346 344 339 337 329 329
295 295 297 299 305 314 310 311 325 329 329 330 332 334 335 335 337 339 340 343 343 344 344 346 347 347 349 346 347 346 345 346 346 347 349 350 351 353 348 347 348 348 345 344 339 337 337 329 329
300 298 298 302 308 311 311 311 323 327 327 326 330 332 334 335 338 340 340 342 342 343 343 344 344 345 347 345 346 343 341 343 346 347 349 350 352 352 349 347 347 346 343 342 339 334 328 325 330
300 298 298 301 307 310 309 311 317 326 326 327 327 329 332 334 335 335 339 340 340 341 343 344 344 344 347 348 348 347 344 344 346 347 347 348 351 352 350 346 346 346 343 341 337 330 325 327 330
297 296 299 298 303 309 309 307 311 324 327 329 330 331 331 331 331 331 335 338 340 338 342 344 345 345 347 349 347 345 346 346 345 345 346 349 349 352 351 347 346 345 343 340 333 330 326 325 329
293 300 302 300 298 293 308 298 307 317 322 325 327 329 330 331 332 332 334 337 339 339 343 345 346 346 346 348 348 346 343 341 343 345 347 350 353 352 351 348 347 345 343 338 332 332 327 325 325
300 303 301 301 296 293 298 298 302 313 314 317 323 327 329 331 332 332 333 337 339 341 343 345 346 346 346 345 347 346 343 345 343 343 345 346 349 351 351 348 346 342 341 336 333 331 331 326 325
305 300 297 297 294 289 297 296 297 307 312 315 317 324 328 329 331 333 334 335 338 341 344 345 344 345 346 346 347 346 345 342 341 340 342 344 347 348 349 348 345 340 338 335 333 331 331 332 330
300 293 288 285 287 289 295 294 300 307 316 318 318 319 326 328 330 330 331 333 334 338 342 344 344 345 347 347 347 348 346 345 343 342 342 343 344 343 347 347 344 338 337 336 333 329 329 331 329
296 295 286 282 283 289 294 292 298 311 315 320 322 322 323 326 328 330 331 332 334 337 341 343 343 345 348 348 347 348 348 346 345 342 343 345 347 346 348 348 346 339 335 336 333 332 330 329 329
296 293 297 287 288 286 291 296 302 309 312 315 318 320 321 324 327 329 331 332 334 335 339 342 342 344 348 349 348 347 348 347 345 343 344 346 346 347 345 348 345 340 335 336 333 331 331 330 328
300 297 291 285 285 285 287 291 293 301 306 310 316 318 321 324 326 328 330 331 334 335 338 342 343 343 346 349 349 348 347 348 347 345 345 345 345 344 344 346 344 340 336 336 335 331 330 332 329
297 294 290 291 288 287 284 291 299 302 306 308 313 320 322 323 325 327 329 331 333 335 337 340 343 343 343 347 348 348 348 348 348 346 346 346 343 342 343 345 342 339 336 336 335 333 331 330 330
302 299 293 289 287 289 292 291 300 304 306 307 309 317 321 325 326 327 328 329 332 334 336 339 343 343 344 347 347 347 347 349 349 348 348 348 344 341 342 343 342 339 337 334 337 335 334 330 328

GFSSGP_sfc_thetae_033.txt.gz
Theta_e
356 355 354 345 325 323 316 319 328 324 325 332 333 328 326 329 323 318 342 348 350 349 354 356 360 362 362 363 366 366 365 364 365 364 361 361 361 361 360 360 359 359 359 359 358 358 358 356 356
355 352 348 332 319 316 317 324 323 326 330 333 333 331 328 325 335 337 340 349 349 351 353 356 360 364 363 365 366 366 363 363 363 362 361 361 361 360 360 359 359 360 359 359 359 359 358 356 355
353 352 337 327 322 316 316 324 326 329 332 331 330 334 330 329 337 340 345 350 349 350 353 360 362 365 364 364 364 365 364 362 363 362 362 361 360 359 359 359 359 360 360 358 358 358 358 356 354
348 344 339 324 318 322 322 327 330 330 332 333 332 327 334 340 339 344 348 349 348 350 354 360 364 363 364 364 364 362 362 362 362 362 361 361 359 358 359 359 360 361 359 358 358 358 357 356 355
344 338 325 321 320 324 329 331 332 329 330 330 331 326 329 341 346 347 348 349 348 350 356 358 365 365 364 363 363 362 361 361 362 362 361 360 359 358 358 358 359 360 360 358 357 356 356 356 355
336 334 319 315 318 325 330 332 332 330 331 330 329 328 332 344 343 346 348 348 350 350 354 356 362 364 363 363 362 362 361 361 361 362 361 359 359 358 358 357 358 359 359 357 357 356 356 355 357
328 324 316 317 318 323 328 335 331 330 329 328 333 326 333 338 344 347 348 350 351 352 354 355 356 361 362 362 361 361 362 361 361 360 361 360 358 357 357 357 357 357 357 356 356 356 356 356 357
332 324 316 319 319 320 331 332 335 331 328 336 336 327 326 339 346 348 348 350 350 352 353 356 355 356 358 359 361 360 361 361 361 361 360 359 358 356 356 357 356 357 355 355 356 355 355 355 356
332 320 318 317 319 322 334 330 334 337 332 332 335 334 337 344 346 345 345 347 349 350 352 354 354 359 361 360 359 360 360 361 361 360 359 360 363 362 359 359 360 357 356 355 356 355 356 358 357
325 321 319 323 325 322 332 332 332 330 329 329 333 337 340 343 343 341 341 341 344 347 350 353 354 356 358 356 360 361 358 356 358 359 362 362 362 361 359 361 360 356 356 356 356 357 357 356 359
330 323 326 324 327 330 331 332 334 330 326 331 331 334 338 340 340 340 340 341 343 346 349 352 354 357 356 356 357 358 356 356 358 362 361 361 362 362 361 362 361 363 357 360 358 360 358 357 355
324 329 329 328 329 331 331 334 331 332 328 334 337 338 339 338 338 339 339 341 343 346 348 351 354 356 357 356 356 357 356 356 355 356 362 360 356 359 361 361 362 362 360 356 358 358 360 359 358
329 327 327 329 328 326 333 331 331 332 334 337 339 338 337 338 339 341 342 343 345 345 347 351 354 356 357 358 356 356 357 355 354 356 358 356 356 359 361 361 359 360 356 356 364 358 357 358 356
322 326 323 318 320 323 324 327 332 334 337 337 336 336 337 338 339 341 342 343 344 346 347 351 353 356 357 357 358 358 358 357 356 354 355 357 356 360 360 360 358 358 360 361 357 362 355 356 356
314 309 312 313 315 315 321 319 326 334 336 334 334 335 337 338 341 341 343 344 345 346 349 350 353 356 357 357 357 358 357 356 353 353 357 357 357 360 362 360 358 362 364 365 363 356 355 344 341
308 308 305 312 313 315 319 310 324 335 334 333 333 334 336 338 341 343 345 346 348 347 349 351 351 354 355 356 357 356 356 355 353 353 353 356 358 361 361 359 357 360 363 367 362 353 355 350 342
304 302 304 307 314 316 318 313 321 334 334 332 333 334 335 338 341 344 346 347 348 349 350 350 352 353 354 357 356 356 356 353 352 353 353 357 358 361 359 358 359 362 361 364 360 357 354 347 345
299 300 304 305 311 317 316 316 322 332 333 333 333 334 335 336 338 343 345 347 349 350 352 352 352 354 355 355 355 354 353 351 351 352 354 359 360 361 361 359 361 361 358 359 359 357 353 347 346
303 303 304 307 311 314 315 316 320 330 332 332 333 334 334 336 340 343 345 347 348 350 351 353 353 357 354 351 349 348 346 349 353 357 360 361 361 363 363 360 361 361 358 359 360 355 350 344 348
303 301 303 306 309 309 311 314 319 328 331 333 333 334 335 337 338 341 343 346 347 349 351 354 355 358 355 353 353 351 351 351 355 359 361 362 362 364 363 362 360 361 358 359 357 353 348 346 347
303 300 302 303 307 309 310 309 314 325 330 333 336 337 337 337 337 340 342 344 347 349 351 354 358 359 358 358 354 353 355 355 354 356 358 360 363 364 364 364 361 362 360 355 357 353 349 341 345
299 305 304 303 303 300 310 301 311 317 325 329 332 335 336 338 340 341 342 343 345 349 352 356 357 359 358 361 356 356 349 346 350 355 357 359 363 363 364 364 362 363 359 359 357 353 350 344 340
302 306 304 304 303 303 304 302 308 316 319 325 330 333 336 338 340 341 342 346 347 348 349 352 357 359 360 360 359 355 354 351 353 354 360 364 363 363 362 364 363 362 360 361 359 354 350 344 342
309 305 305 304 303 296 303 302 305 309 315 322 329 332 335 338 340 342 345 347 347 348 349 350 355 357 359 359 359 359 358 357 352 354 353 354 355 357 361 362 363 363 361 360 359 357 352 347 345
306 303 296 294 294 294 305 301 305 313 317 319 325 331 334 337 339 341 343 344 347 349 350 351 354 354 357 357 358 359 358 360 359 357 353 356 353 355 361 363 362 361 362 361 360 356 352 350 345
303 302 296 290 292 296 303 299 305 313 316 321 324 329 334 336 337 339 342 345 346 347 350 350 352 353 355 356 356 359 360 356 356 357 353 353 353 356 363 363 363 363 362 360 358 354 351 350 348
302 300 305 298 297 296 300 304 309 312 314 318 322 325 329 334 337 339 342 344 345 346 349 350 351 353 355 355 356 357 358 359 357 360 361 355 361 356 360 362 362 362 361 359 357 352 351 348 348
304 307 297 299 292 291 297 298 302 310 311 315 318 321 326 330 334 337 340 343 345 345 348 350 351 352 354 355 355 355 356 359 359 361 359 360 360 360 359 360 361 361 361 359 356 352 352 348 346
300 300 302 302 299 294 293 297 309 312 317 317 318 321 324 327 330 332 338 342 345 345 346 349 350 352 353 354 355 356 356 357 359 358 360 360 362 361 361 360 360 360 360 358 356 354 351 347 347
305 303 303 297 296 298 298 298 310 312 314 317 318 321 324 328 332 332 333 338 340 344 345 346 349 350 352 354 355 356 357 357 357 358 359 361 361 361 363 361 360 360 359 358 356 353 350 348 346

GFSSGP_sfc_thetae_036.txt.gz
Theta_e
355 355 354 347 329 328 321 321 329 327 328 335 335 331 327 331 325 319 345 349 352 349 353 357 361 362 364 365 366 366 364 363 364 364 362 362 361 361 361 359 359 360 359 358 359 358 357 357 357
357 354 348 340 325 320 320 327 325 330 334 337 336 334 331 329 338 339 344 350 350 350 357 358 362 364 364 365 366 366 363 363 362 362 362 361 361 361 360 359 361 360 360 360 359 359 357 356 355
355 352 338 332 326 319 319 327 331 333 336 335 333 338 334 331 341 342 347 350 351 351 356 360 362 364 364 364 365 365 363 362 362 362 362 361 361 360 359 360 360 360 359 359 359 358 358 356 354
349 347 340 327 320 325 326 331 333 333 335 336 336 331 338 343 342 348 351 349 350 351 355 359 362 363 364 363 363 362 362 362 362 362 361 360 360 360 360 361 360 360 359 359 358 358 357 355 355
349 340 330 324 322 327 331 334 334 331 333 333 334 328 330 341 348 352 350 350 350 351 356 359 365 365 365 364 363 363 362 363 362 361 360 360 359 359 359 360 361 360 358 358 357 357 357 357 356
337 337 323 316 321 328 333 335 334 332 334 333 333 333 334 346 346 348 350 349 351 351 352 357 364 364 365 364 362 362 362 362 362 361 361 360 359 359 358 358 359 359 358 357 357 356 356 357 357
336 328 321 320 321 325 330 337 333 332 332 331 337 332 338 341 347 348 348 349 350 351 350 354 357 362 364 363 362 362 362 362 362 361 360 360 359 358 358 357 357 357 357 356 356 357 357 357 357
340 329 321 324 321 324 334 335 337 333 331 340 340 330 332 341 348 349 349 348 349 350 350 352 355 356 359 360 362 362 362 361 361 361 360 359 359 357 358 357 357 356 355 356 355 356 357 357 357
340 325 322 320 322 325 336 333 337 339 334 335 338 338 343 346 348 347 345 345 347 348 349 351 351 356 359 358 359 361 361 362 361 361 359 359 362 361 360 359 358 356 355 355 355 355 356 358 360
333 324 321 327 326 325 333 334 335 332 332 333 336 341 344 345 346 344 344 343 347 347 348 349 351 353 356 353 359 360 356 356 357 359 361 362 363 363 360 359 358 356 355 356 356 357 358 357 354
332 324 327 325 329 333 333 334 337 332 328 334 334 338 342 343 344 344 345 346 346 348 347 349 352 356 355 354 356 355 354 355 358 362 362 364 365 364 363 361 358 360 359 357 357 357 356 356 357
327 330 330 328 330 330 332 336 334 334 331 338 341 341 343 342 343 344 344 345 346 348 349 351 353 356 355 354 354 354 351 353 352 355 362 365 359 361 365 362 361 361 359 359 358 355 358 359 356
329 329 328 330 330 328 329 331 330 334 336 339 341 341 341 342 343 345 346 347 348 347 350 352 355 357 358 357 353 352 353 351 352 355 359 360 360 364 362 362 361 361 360 357 356 359 355 356 352
328 329 327 325 324 324 323 327 330 333 339 338 339 340 341 341 343 344 344 345 347 349 349 352 354 358 358 357 359 355 355 353 353 352 355 361 360 366 364 362 360 361 362 359 357 357 354 356 355
327 316 318 320 320 319 322 319 322 332 339 338 338 340 340 342 343 343 345 345 347 349 351 352 354 357 358 359 359 358 354 353 352 352 358 361 362 364 366 359 359 359 362 362 360 362 358 354 351
316 315 310 318 319 319 319 314 323 332 336 337 338 339 339 341 342 345 346 347 349 350 352 353 353 354 358 358 359 356 355 354 352 351 355 360 361 365 366 361 362 362 361 360 360 362 352 352 347
311 309 312 314 319 319 318 317 324 331 335 336 338 338 338 340 342 345 346 347 348 350 352 353 355 354 356 360 359 358 359 356 352 352 354 360 362 364 364 360 363 369 364 361 361 356 354 347 348
308 308 312 313 317 318 318 318 322 330 334 335 337 338 338 339 340 344 346 348 349 351 353 355 355 358 360 358 360 357 354 354 351 352 354 360 361 363 365 361 362 361 363 358 358 359 354 348 344
312 311 310 315 318 315 316 317 320 329 332 333 336 338 339 340 343 346 347 348 349 352 353 355 356 360 358 356 353 351 348 350 349 353 358 363 364 367 369 362 365 365 358 361 363 358 355 347 347
309 307 309 314 316 314 316 316 321 326 331 334 335 337 339 341 342 344 346 348 348 350 354 357 358 361 361 357 357 352 350 348 349 354 360 366 367 368 368 369 363 365 362 364 364 361 351 349 347
307 307 308 309 313 314 313 312 316 322 329 333 336 338 339 340 341 342 344 346 347 349 353 357 361 363 362 364 357 356 353 351 349 354 358 364 366 368 370 368 367 366 365 358 362 359 355 345 344
304 310 309 308 308 304 315 305 315 319 322 327 331 336 338 341 343 343 343 345 347 350 354 359 362 364 363 366 360 362 349 346 348 354 358 359 367 366 368 369 368 370 362 364 362 360 358 354 340
305 310 308 308 306 307 309 307 312 318 317 322 327 333 338 342 343 343 344 345 347 350 352 357 362 367 369 366 365 357 358 350 351 352 366 369 368 367 365 368 369 368 365 365 365 362 361 353 344
310 308 307 308 306 300 307 308 309 314 318 321 327 332 336 340 342 345 347 347 347 350 352 356 363 367 368 366 364 368 365 361 352 357 355 356 358 360 365 366 368 369 367 366 365 366 362 358 351
308 306 299 297 298 298 309 307 310 316 320 322 323 328 336 341 342 343 346 347 347 348 351 354 361 364 365 363 364 364 366 366 366 364 357 361 354 354 364 366 367 365 369 367 368 366 362 360 354
306 306 300 294 296 299 307 303 309 318 321 322 325 326 333 338 342 342 346 348 350 350 355 356 360 363 365 363 368 370 371 360 359 364 359 358 355 357 362 363 365 367 367 368 368 363 359 360 357
307 303 309 302 304 301 305 308 313 317 319 321 322 324 327 336 340 343 345 347 350 352 356 358 362 364 363 361 367 369 369 367 362 367 368 360 367 359 362 363 366 367 367 368 368 361 360 358 358
309 311 301 303 296 295 301 304 306 312 315 319 320 323 326 332 338 341 344 346 349 352 355 358 362 363 364 363 363 363 365 369 369 370 369 368 367 368 364 363 365 366 366 367 367 362 362 359 355
306 305 306 306 304 298 298 302 314 314 317 318 321 324 327 331 335 339 341 345 347 350 353 354 357 361 362 363 365 365 363 364 366 367 369 370 368 370 367 367 364 363 364 366 366 365 361 358 357
310 307 307 301 301 303 303 305 313 315 317 320 321 324 327 330 333 336 339 342 345 347 349 350 353 355 357 362 366 365 365 365 364 367 368 372 370 370 369 368 366 364 363 365 365 362 359 358 356

GFSSGP_sfc_thetae_039.txt.gz
Theta_e
354 354 353 349 328 329 319 321 328 326 327 334 334 332 330 333 327 320 342 348 347 349 355 358 362 364 364 365 366 365 363 363 364 363 362 362 362 361 359 360 361 360 360 360 359 358 357 357 357
353 353 353 340 325 316 318 326 324 328 335 337 336 334 333 329 339 339 339 351 345 344 353 358 362 364 365 365 365 366 363 364 363 363 362 361 361 360 360 361 360 360 361 360 359 357 356 355 355
353 352 338 334 324 314 317 325 329 334 337 334 334 337 335 334 341 340 346 348 347 350 355 360 362 364 365 365 364 365 363 363 363 362 362 361 360 360 361 360 361 360 360 359 359 357 356 355 354
351 348 343 324 320 325 324 329 333 333 334 337 336 332 340 346 344 348 352 347 347 354 354 360 363 365 364 363 363 363 363 363 362 362 361 360 360 360 362 361 361 359 359 359 358 357 356 356 355
349 342 330 326 322 325 330 333 334 331 333 334 335 331 333 342 349 352 349 350 349 352 355 359 364 365 364 363 363 363 363 363 362 361 360 360 360 360 361 361 361 360 359 359 358 358 358 357 357
340 339 319 315 321 326 330 334 333 333 335 336 335 334 336 347 348 348 350 350 352 354 354 359 364 365 364 363 363 363 363 362 361 361 360 360 359 359 359 360 360 360 359 358 357 356 357 358 358
336 331 320 319 321 325 328 334 330 333 333 335 339 333 339 343 348 347 349 350 351 351 354 356 358 362 364 363 362 362 362 362 361 361 360 360 360 359 358 358 358 358 359 357 357 356 357 358 358
343 334 322 322 318 322 330 332 334 333 333 342 343 333 333 344 348 348 349 348 351 349 350 351 353 356 359 360 362 362 361 361 361 361 360 360 360 360 359 359 358 357 357 357 357 357 357 357 359
345 328 319 319 318 325 332 329 335 339 336 338 339 341 344 347 347 345 344 344 346 345 347 348 350 355 359 358 360 361 361 361 361 360 360 360 362 362 361 361 357 356 356 356 357 357 357 357 358
334 323 319 325 326 325 331 329 331 332 333 334 338 344 346 346 343 343 341 341 343 343 345 347 350 352 354 351 358 359 356 355 356 357 360 357 362 361 358 360 359 358 358 358 358 358 361 357 354
332 323 326 327 330 330 329 329 332 329 328 334 336 340 343 345 345 342 343 344 344 346 345 347 350 354 352 354 353 353 352 353 356 364 362 362 360 359 354 357 356 357 359 354 358 354 357 352 352
326 330 330 328 330 331 328 331 329 330 330 338 341 343 342 342 343 345 345 346 346 346 346 347 351 354 353 353 351 351 350 352 352 357 363 365 359 360 363 356 360 355 355 356 356 355 355 353 353
327 328 332 332 331 330 332 329 331 331 333 339 342 343 342 343 343 345 347 347 347 345 346 347 352 358 358 358 352 352 351 350 351 355 361 362 361 361 358 360 357 364 358 356 359 357 354 349 352
329 329 330 329 329 328 326 327 330 335 337 339 340 341 342 343 343 345 345 345 346 347 347 349 352 357 358 359 362 354 353 352 351 352 356 362 360 363 364 360 360 361 357 351 356 359 355 353 351
329 323 328 328 327 323 327 322 325 335 338 338 338 340 342 343 344 344 345 345 346 347 349 350 353 356 358 359 359 356 353 352 351 351 359 361 363 363 365 358 363 359 360 362 363 357 357 350 349
323 323 317 323 324 324 323 316 324 332 337 337 338 339 340 342 343 345 346 347 348 348 350 352 351 353 357 359 358 355 353 352 351 351 356 361 363 364 364 359 358 364 361 357 358 354 351 352 346
316 313 316 317 324 322 320 317 323 330 335 336 338 339 339 340 343 345 346 347 347 350 352 352 354 353 356 363 359 358 362 354 352 351 353 364 363 365 364 360 359 366 360 355 354 352 351 343 343
310 312 316 315 320 321 318 318 324 328 332 334 338 339 339 339 340 345 346 347 348 350 353 355 354 362 365 361 363 356 353 353 353 351 353 364 362 364 365 362 363 362 357 359 359 358 349 345 341
315 315 314 319 320 319 318 319 322 326 330 332 337 339 339 340 342 344 346 347 347 349 352 358 359 366 360 355 353 352 349 352 351 352 358 361 362 365 368 363 361 362 361 360 356 356 351 344 344
316 314 315 318 320 319 318 318 322 325 330 333 335 337 339 341 342 342 345 346 345 348 354 361 363 368 365 359 361 355 356 350 350 351 363 361 364 367 367 372 357 365 362 362 358 357 350 345 343
313 312 313 313 318 319 317 315 319 323 329 334 336 338 340 341 341 342 343 345 346 349 356 359 365 368 366 366 362 362 359 355 348 350 353 360 364 366 371 367 365 365 362 363 363 358 354 345 340
307 314 314 312 313 309 317 306 316 319 323 328 333 336 337 340 343 344 343 344 345 349 354 363 367 369 368 370 361 362 350 345 346 349 351 358 367 366 367 367 364 367 363 367 363 357 358 355 343
308 313 312 312 311 311 312 310 314 319 318 323 328 333 337 340 342 343 344 344 346 349 350 358 368 370 370 369 367 358 357 348 348 349 362 367 373 367 364 370 371 370 363 371 364 363 362 355 348
313 310 311 311 309 303 309 309 311 314 319 322 326 329 334 338 341 344 347 347 345 347 349 356 366 369 372 371 369 370 362 359 350 352 352 354 356 362 370 368 373 373 369 366 363 367 364 361 355
310 307 300 299 300 300 311 308 312 318 321 323 324 328 331 338 341 343 345 345 346 348 352 356 365 368 371 371 369 368 368 366 370 366 353 358 352 352 365 371 372 364 372 370 372 373 366 362 357
308 307 300 295 297 300 309 305 310 320 323 325 327 329 332 334 340 343 345 346 349 350 354 355 362 367 371 370 371 372 372 361 360 364 356 355 353 354 370 371 371 371 371 368 374 364 362 365 359
308 305 310 305 307 303 305 309 314 319 320 322 324 327 328 333 339 342 345 347 350 351 355 357 362 367 370 369 371 372 372 370 362 367 369 362 365 357 367 369 370 369 370 372 374 361 366 365 362
311 313 303 305 299 299 304 307 307 314 317 321 322 324 327 331 338 342 344 346 351 351 354 358 362 366 369 369 371 371 372 373 371 371 370 367 368 371 372 368 367 368 371 372 373 365 369 366 359
307 308 308 308 306 301 301 305 316 317 319 319 322 325 326 328 335 341 344 346 350 352 352 356 359 365 367 370 370 370 371 371 374 370 372 372 372 375 371 372 369 370 370 371 372 369 368 365 364
312 309 310 303 304 306 306 307 317 318 319 321 322 325 327 330 334 340 342 345 347 349 352 354 357 357 364 366 370 369 371 370 370 371 372 374 373 374 374 375 372 371 370 371 370 367 361 365 362

GFSSGP_sfc_thetae_042.txt.gz
Theta_e
353 352 353 345 329 326 319 321 328 325 327 332 335 332 330 332 326 320 345 347 348 349 353 358 365 365 365 366 365 366 365 365 365 364 365 363 362 362 363 362 361 361 361 360 359 359 359 358 358
352 350 350 340 322 314 316 327 324 328 333 335 336 334 333 329 337 336 340 347 348 349 353 357 364 365 365 365 366 365 365 363 365 365 363 363 361 363 363 361 361 362 361 360 359 358 357 357 356
354 351 338 330 322 315 316 326 328 332 335 334 334 338 336 332 337 338 345 345 347 348 353 359 364 364 364 366 366 366 365 364 363 363 363 361 361 362 361 361 360 360 360 360 359 358 357 356 355
350 347 340 326 319 323 325 329 332 332 334 337 335 331 339 343 338 342 345 342 342 351 355 362 364 364 365 366 366 365 364 363 363 362 361 361 362 363 362 362 360 360 360 359 359 358 357 356 357
350 340 321 317 322 326 330 332 334 331 332 334 336 331 332 341 344 345 343 339 348 350 356 360 365 365 366 366 365 365 364 362 363 362 361 361 361 361 362 362 360 360 360 359 359 359 358 357 358
337 331 317 314 318 325 330 334 333 331 334 336 333 332 334 345 344 345 339 341 352 351 353 358 364 366 366 364 364 365 363 362 362 361 360 360 360 360 361 362 361 360 359 359 358 358 358 358 359
334 323 319 319 317 324 328 334 330 331 333 334 338 330 336 341 346 344 346 351 351 351 353 357 359 362 364 365 363 363 362 362 362 361 360 360 360 359 360 360 361 360 359 359 359 358 358 357 358
340 333 323 322 318 320 330 330 333 333 334 342 341 330 331 341 345 349 348 349 349 350 352 355 357 355 357 358 362 362 362 361 361 361 360 360 360 360 359 362 362 359 360 359 358 358 357 358 358
339 326 321 320 319 320 330 329 335 338 338 339 341 340 343 345 345 345 345 346 348 348 349 350 350 357 360 359 359 362 361 360 361 360 360 362 363 359 359 364 363 358 356 357 357 357 359 360 361
331 320 319 327 325 324 327 328 331 331 331 335 337 343 344 344 343 340 342 340 342 341 344 347 350 353 355 351 360 361 357 356 359 359 338 340 360 362 360 360 365 358 356 356 359 354 360 357 352
330 321 325 327 328 331 327 327 332 329 327 335 335 339 342 342 342 340 341 342 342 345 342 346 351 356 353 353 355 356 355 356 353 351 347 349 358 364 359 357 354 347 356 355 356 352 356 357 354
324 325 328 328 331 329 326 330 327 328 330 340 341 341 342 340 340 340 341 342 343 344 344 346 352 356 355 354 351 354 353 353 356 359 360 366 357 354 353 355 353 349 353 355 355 357 355 356 357
325 325 329 331 331 330 330 328 325 327 334 341 342 341 340 341 341 343 344 344 345 344 344 347 353 358 363 363 353 353 358 355 358 362 365 362 355 358 356 358 354 357 356 356 360 357 356 344 353
327 327 329 331 328 331 329 329 328 330 334 337 339 339 340 340 342 345 345 345 345 345 345 350 354 359 366 366 374 356 365 356 359 358 361 367 359 361 365 359 358 360 353 355 360 362 359 356 352
326 322 326 326 327 325 327 325 326 330 334 333 336 338 339 340 345 344 346 346 347 346 347 350 354 356 363 365 368 367 365 351 357 359 366 367 370 371 371 362 359 354 363 363 359 361 352 348 352
321 321 316 324 327 326 323 315 329 332 333 333 335 337 338 339 339 344 346 345 347 346 349 352 348 354 356 361 364 363 358 360 359 359 363 366 371 372 363 351 357 357 367 361 361 350 357 352 351
319 312 316 319 326 324 320 316 323 334 332 333 334 335 336 340 341 344 343 346 345 348 352 353 355 354 356 363 361 360 361 362 362 363 362 366 368 370 367 356 352 355 365 357 358 354 355 351 345
312 312 316 316 320 321 319 317 323 326 331 333 335 335 336 337 339 343 343 345 347 351 355 354 355 360 359 359 362 358 356 359 360 363 363 367 367 368 366 355 354 362 353 363 361 358 352 352 344
317 314 312 318 323 318 317 318 322 325 326 333 332 337 336 337 341 344 345 345 347 351 354 354 357 362 359 356 354 354 351 356 359 361 366 368 369 369 368 365 359 366 359 356 364 354 356 351 347
316 313 311 316 321 319 318 316 320 324 326 333 334 337 337 337 339 343 344 344 345 348 353 356 357 362 361 358 358 357 359 355 356 360 366 368 368 371 371 365 367 363 362 364 360 361 355 350 351
314 312 312 313 318 319 318 314 318 323 324 329 335 337 338 339 339 340 342 343 345 349 352 356 357 362 362 361 361 363 362 363 357 355 356 362 368 369 369 369 366 364 368 363 366 359 359 343 346
309 317 315 314 313 308 317 306 317 318 321 327 331 332 337 340 342 342 343 344 345 348 353 357 359 360 363 364 359 359 351 348 350 354 356 359 363 365 368 367 365 369 366 360 362 364 362 357 345
309 314 315 314 311 311 311 308 313 318 317 324 329 332 335 340 341 342 342 344 346 349 352 356 359 361 363 360 364 357 355 352 352 355 357 362 364 368 368 368 368 371 365 365 363 364 361 363 355
313 312 312 311 310 303 308 309 311 314 318 321 327 333 335 338 342 344 345 346 346 349 353 355 359 360 363 363 360 364 356 356 349 351 353 357 363 363 369 369 368 369 368 368 366 370 366 363 361
310 306 300 299 300 299 309 307 312 318 322 323 326 329 335 338 341 344 345 344 345 347 351 354 359 359 362 363 361 359 364 357 359 363 350 354 355 359 363 367 367 366 367 368 369 369 368 364 362
307 305 300 294 297 299 308 304 309 319 322 324 327 329 332 335 339 342 346 346 346 347 350 353 358 359 363 362 363 362 363 361 355 361 355 353 355 357 365 363 366 365 367 366 370 368 365 365 361
307 303 309 303 304 301 304 308 313 319 320 322 323 327 329 333 336 341 347 347 347 346 349 351 355 360 362 362 364 364 360 364 359 357 363 362 360 362 368 365 365 365 367 365 368 363 364 366 362
310 311 302 304 297 297 301 306 306 313 317 320 322 324 328 332 336 342 345 347 348 348 349 352 356 358 362 364 363 364 364 364 363 361 362 360 366 363 374 366 365 366 366 367 367 365 365 363 362
307 306 306 306 304 298 298 304 317 317 318 320 322 325 327 332 335 339 345 348 350 349 349 351 353 359 362 364 365 365 365 364 364 362 363 367 363 372 365 369 366 365 365 365 367 363 362 363 360
311 307 309 303 302 305 305 305 317 319 321 322 323 326 328 332 337 340 344 346 349 349 349 350 353 355 361 365 366 364 366 367 365 363 363 365 367 366 370 368 366 365 364 366 363 362 358 361 359

GFSSGP_sfc_thetae_045.txt.gz
Theta_e
352 351 349 344 325 322 318 320 328 326 326 334 334 331 329 332 325 317 341 345 348 349 354 361 365 366 366 365 366 365 364 363 363 364 365 362 362 363 362 361 361 361 360 360 360 359 359 359 357
349 347 349 337 323 313 315 325 323 328 331 334 335 334 331 327 334 337 337 344 348 350 354 358 365 365 364 365 366 365 362 363 363 365 364 362 364 364 361 361 362 361 360 359 358 358 358 357 357
348 349 335 327 320 314 316 325 327 331 335 334 333 337 334 328 337 336 343 345 347 349 356 358 365 366 365 365 365 366 364 362 362 364 362 362 365 362 362 361 361 360 360 359 359 358 357 357 356
348 345 339 323 318 323 323 328 331 331 334 336 335 329 334 340 338 341 345 345 345 352 357 363 365 365 366 365 365 364 363 362 364 364 362 363 363 362 361 361 361 360 360 359 359 358 358 357 356
349 338 319 316 317 325 329 331 332 330 331 333 334 326 327 337 342 343 343 344 348 353 357 360 365 366 366 365 364 364 363 362 363 363 362 362 362 363 362 361 361 361 360 360 359 359 358 358 356
335 331 317 313 318 324 328 333 333 331 333 332 329 330 331 339 339 339 341 342 352 353 356 358 363 366 366 363 363 364 362 362 363 363 361 361 361 362 365 361 360 360 360 359 358 358 358 359 357
331 320 313 317 319 323 328 334 331 332 332 331 335 328 332 334 338 339 337 347 351 352 354 357 358 359 363 365 363 363 362 362 362 361 361 360 360 360 361 361 363 360 360 359 359 358 358 358 357
336 321 313 320 319 318 329 332 336 333 331 340 339 328 328 336 333 334 342 346 348 352 354 354 354 354 355 357 363 363 362 362 362 361 360 359 358 358 359 363 364 361 359 358 357 358 359 359 358
340 322 317 320 318 320 327 329 337 339 334 336 337 337 339 335 334 342 342 342 344 349 351 352 351 351 352 353 357 361 362 362 362 361 361 357 354 353 356 358 362 359 358 358 358 362 364 361 357
327 319 321 326 326 323 326 328 334 333 333 333 335 340 339 339 341 339 339 339 341 344 347 348 349 349 351 354 353 353 355 354 353 353 338 339 346 353 357 359 364 360 361 363 363 357 360 357 349
328 321 325 326 328 330 325 326 330 331 329 333 332 335 338 341 339 339 339 341 341 342 344 344 348 350 349 350 351 352 350 349 351 348 345 338 354 353 352 351 350 334 346 350 352 350 350 350 350
322 329 327 327 329 329 326 327 326 333 334 339 339 338 338 338 337 338 339 339 341 340 340 343 347 348 346 348 348 349 349 349 347 350 347 338 349 341 348 351 346 345 346 349 351 349 349 348 350
322 325 328 329 327 329 329 325 328 333 339 341 340 339 337 337 339 340 341 340 341 338 338 342 346 347 348 346 344 345 346 349 349 352 350 351 348 344 352 353 348 347 349 347 352 350 347 342 340
325 326 326 326 326 328 322 325 325 335 339 338 338 336 338 337 338 339 339 339 339 339 338 344 345 348 348 351 348 344 352 347 354 356 354 351 352 349 351 349 351 352 348 342 351 349 350 347 345
325 320 325 326 327 327 328 321 322 335 337 335 336 336 337 337 339 338 339 339 339 339 342 344 345 350 349 348 349 351 350 346 344 355 354 354 351 350 351 352 350 349 350 347 352 350 345 340 344
318 319 312 322 324 327 326 314 325 333 334 332 334 336 336 337 339 340 341 340 342 342 344 345 347 349 351 348 350 351 348 350 348 353 353 353 355 355 348 347 350 351 353 352 348 349 346 340 344
311 307 310 316 323 323 323 316 325 329 331 331 333 334 335 336 339 340 342 342 343 342 345 345 345 346 350 349 351 349 349 349 350 354 353 353 354 357 350 348 345 339 352 352 350 344 346 342 344
304 306 310 312 319 321 315 312 324 327 328 330 332 333 333 336 337 341 343 344 342 341 344 343 346 346 348 352 351 348 346 349 349 349 353 355 356 358 355 350 346 347 349 353 351 342 337 336 336
312 311 310 314 321 317 315 313 323 325 329 330 331 331 332 333 336 341 342 341 340 343 345 343 346 348 346 351 348 347 343 345 346 347 356 356 356 357 354 349 349 351 349 346 350 342 340 338 336
311 310 311 314 317 316 313 312 317 324 328 329 331 329 332 333 335 337 337 339 340 343 344 345 347 349 348 350 348 346 347 346 347 347 353 358 357 358 357 353 352 352 350 349 349 344 341 337 337
308 308 309 309 313 315 313 310 314 323 328 326 331 333 334 333 334 335 335 337 340 343 344 345 347 352 350 351 350 349 348 347 346 345 344 354 355 356 358 355 354 349 353 349 348 344 343 332 335
303 312 313 312 309 302 313 300 308 315 322 326 331 333 332 333 335 336 335 336 339 343 347 346 349 354 351 352 350 347 345 342 344 343 345 351 356 358 358 357 355 353 353 350 349 349 343 337 329
307 312 311 311 308 306 309 304 308 312 312 323 329 330 330 335 335 335 336 338 338 344 347 348 349 352 353 352 350 349 345 344 342 344 343 348 351 354 361 357 356 353 354 350 350 351 346 341 339
314 309 307 309 307 299 303 306 306 309 312 323 328 330 333 336 337 336 339 339 339 345 347 350 348 350 353 352 352 348 346 342 342 339 341 347 352 355 358 359 357 357 355 353 352 351 347 347 345
309 302 294 293 295 295 301 300 302 312 315 318 324 329 331 335 335 336 336 337 339 342 345 349 349 348 352 351 350 352 348 347 342 341 340 344 351 353 355 359 357 356 356 356 355 356 351 348 347
305 303 294 289 291 295 300 296 302 311 315 320 327 330 333 333 336 336 337 338 338 340 344 348 348 349 351 354 351 349 353 350 348 348 347 344 349 352 354 357 359 356 357 356 357 355 356 353 348
302 299 301 291 294 291 295 299 306 311 312 313 317 329 330 331 336 337 338 338 338 341 344 346 349 349 351 352 354 351 350 356 349 345 349 343 347 351 356 357 359 357 357 356 355 357 354 355 351
304 304 295 296 287 288 294 297 299 304 307 311 312 321 327 332 336 338 338 339 339 341 345 347 350 350 352 353 355 355 352 350 355 348 346 352 348 348 355 356 356 357 358 357 355 356 356 353 354
301 299 300 296 294 289 289 295 305 307 309 310 313 315 324 330 335 339 340 340 340 341 344 346 348 352 353 355 354 356 356 354 353 354 348 352 352 355 353 357 356 357 357 358 355 355 354 354 352
306 302 300 295 291 293 292 296 310 310 312 313 315 316 322 329 335 340 340 341 341 340 342 344 347 352 354 356 356 355 357 357 353 353 354 349 355 354 357 359 358 358 357 357 357 355 356 351 352

GFSSGP_sfc_thetae_048.txt.gz
Theta_e
352 352 349 344 322 322 316 319 328 325 326 335 333 329 328 329 325 316 340 344 347 349 355 358 364 364 363 365 363 364 361 362 363 362 362 362 362 362 361 362 361 361 360 360 359 359 359 358 356
350 348 348 336 321 312 315 325 323 327 332 335 334 334 330 326 335 334 336 346 350 352 356 360 364 364 363 364 364 364 362 363 362 362 362 363 362 361 363 362 361 360 360 359 359 359 357 358 357
348 348 335 326 318 314 315 324 326 331 334 334 332 335 332 329 335 335 343 348 350 353 356 358 366 366 363 363 364 363 363 363 361 361 362 362 363 361 361 361 360 360 360 359 358 357 357 356 356
343 344 338 321 316 322 324 328 330 330 334 335 333 326 333 340 335 339 346 347 350 354 356 363 365 363 363 364 362 363 361 363 361 362 363 363 362 361 361 361 360 360 360 359 358 358 357 357 356
348 336 318 317 317 322 327 331 332 329 331 332 332 324 328 338 342 343 344 347 351 354 357 359 367 366 364 363 362 361 362 362 361 362 362 363 363 362 361 361 361 360 360 359 359 358 358 357 356
332 331 316 312 317 324 329 333 333 331 330 329 327 327 329 339 339 341 344 350 353 354 357 359 365 366 364 362 362 362 361 361 361 361 361 362 363 362 362 361 360 360 359 358 358 358 358 357 357
325 320 314 315 318 322 328 329 331 330 330 329 334 324 330 333 339 342 343 351 354 356 356 357 357 359 362 363 363 361 361 361 361 361 361 361 361 361 361 361 360 359 359 359 359 359 358 356 356
329 322 317 319 316 318 329 332 335 332 330 338 335 323 325 332 338 338 342 349 352 354 355 354 353 353 355 357 363 362 362 362 361 361 361 360 359 358 359 361 364 359 358 358 357 358 358 357 357
332 320 315 319 319 321 329 330 335 338 333 335 336 332 334 336 337 332 340 345 348 352 353 352 351 352 352 354 357 361 362 362 362 360 361 357 351 352 355 357 359 357 357 357 355 357 359 358 357
331 318 318 326 326 323 328 330 332 332 332 331 332 336 334 335 331 332 339 341 344 346 350 351 350 350 350 356 353 352 355 354 353 351 341 342 347 351 355 357 360 357 358 358 358 357 357 355 347
330 319 327 326 329 330 325 331 335 331 327 331 329 329 329 329 330 337 339 341 343 347 349 348 348 349 349 350 350 350 351 350 349 342 339 342 351 350 350 350 344 334 344 348 351 349 344 348 347
321 328 328 327 328 328 325 327 332 333 331 336 335 330 327 327 336 337 338 340 342 345 346 346 347 348 345 350 349 349 348 347 347 347 341 343 343 345 344 347 343 343 343 344 347 349 349 347 347
322 325 329 330 327 328 327 326 330 333 337 338 335 332 330 334 337 339 340 341 342 341 343 344 347 346 346 345 345 346 346 347 347 348 345 347 341 338 344 346 347 345 347 346 347 348 347 344 339
324 325 326 329 325 326 325 325 328 334 338 335 334 335 336 336 337 338 339 339 339 340 340 343 346 345 346 343 340 342 344 346 347 349 349 349 347 347 348 348 348 347 347 347 343 347 347 343 341
317 316 323 325 326 325 328 320 329 335 336 333 333 335 336 336 337 337 339 338 341 338 339 342 344 346 345 343 342 342 346 347 348 351 352 349 343 347 348 347 348 348 347 346 346 346 342 337 342
312 313 311 323 325 328 324 313 331 335 333 332 332 333 335 335 337 339 339 339 340 338 337 342 346 347 343 347 346 347 345 343 346 352 353 351 348 351 348 348 347 349 349 349 346 345 341 337 342
304 302 308 316 325 326 321 314 331 335 332 330 331 332 334 334 337 338 340 340 340 337 339 341 343 347 344 346 345 346 346 346 346 349 350 352 353 350 344 346 347 344 345 350 347 343 342 339 342
298 302 306 309 320 323 320 316 328 332 331 330 331 332 333 333 334 338 339 341 340 340 341 341 342 347 345 347 344 344 343 344 346 349 349 350 353 352 348 347 342 341 348 347 346 341 340 339 336
305 305 306 311 318 320 317 318 321 330 330 330 331 331 332 333 337 339 340 340 340 341 341 341 341 345 346 345 342 340 338 340 343 345 350 351 353 355 350 348 347 346 347 346 343 336 336 331 334
303 302 305 312 316 315 317 316 321 328 328 330 331 331 332 334 335 338 339 339 340 340 341 341 341 342 346 346 346 342 340 341 343 344 351 353 353 355 352 348 347 347 348 344 345 340 339 332 333
301 300 302 307 312 314 314 311 318 323 329 331 332 333 334 333 334 336 338 339 341 339 341 342 343 343 344 347 344 344 344 342 341 341 345 352 354 355 354 352 351 349 349 346 345 342 337 329 334
297 306 306 307 306 300 312 302 310 318 322 327 329 331 332 333 335 337 338 339 339 338 342 343 345 344 344 348 345 344 343 342 341 340 341 350 353 354 355 353 352 348 349 348 347 343 341 328 327
302 307 306 307 304 300 306 302 308 318 319 321 324 325 327 333 334 333 337 338 338 340 341 343 347 345 346 348 346 343 341 342 340 341 340 344 351 352 354 354 352 349 350 349 347 348 343 336 328
310 306 305 303 300 297 302 303 303 313 319 321 324 326 328 333 334 335 336 336 338 341 341 343 346 346 347 348 347 344 342 340 340 338 338 340 346 349 354 354 352 350 349 349 346 349 344 342 336
307 299 294 290 292 292 301 298 304 317 323 323 324 327 330 333 334 334 334 334 337 340 341 342 344 346 348 347 347 347 345 343 342 339 338 338 345 346 349 354 352 352 351 350 349 348 345 343 344
303 300 292 287 288 292 298 295 303 310 316 328 328 330 333 329 332 334 335 335 336 340 342 342 342 344 348 348 347 347 346 347 345 342 339 339 345 349 351 355 355 353 354 353 352 350 348 345 344
302 299 301 291 289 290 294 297 304 307 307 324 328 331 331 330 331 334 335 336 337 339 342 344 343 343 347 348 348 349 348 347 347 343 342 338 343 351 351 354 356 353 354 353 352 351 351 350 346
304 304 294 289 287 283 290 292 298 302 304 306 325 328 331 331 334 333 335 337 337 339 342 345 345 343 345 349 349 347 348 352 349 345 343 348 341 348 351 351 355 355 354 353 351 351 351 351 349
299 300 297 297 290 289 285 293 300 302 304 305 314 328 330 331 334 333 336 337 338 339 342 344 345 345 345 347 350 349 347 346 353 348 344 345 347 343 346 352 353 355 354 353 351 350 352 350 350
308 297 297 293 288 288 289 294 305 306 307 307 309 326 330 332 333 334 336 337 337 338 341 342 346 346 347 349 349 351 351 349 346 352 349 346 346 348 347 351 352 354 354 354 352 351 353 352 350

GFSSGP_sfc_thetae_051.txt.gz
Theta_e
352 352 347 341 323 322 314 319 328 325 326 334 330 329 325 329 324 314 339 342 348 349 355 360 364 363 362 363 362 362 362 363 363 363 362 361 361 361 361 361 361 361 360 358 359 358 356 355 356
350 348 346 335 321 311 314 323 322 326 331 333 333 332 328 325 333 335 336 345 350 352 355 357 363 364 361 364 361 364 363 360 362 362 362 361 361 361 361 361 361 360 360 360 358 358 357 356 355
348 348 333 324 318 312 314 325 325 330 334 333 330 334 330 328 334 335 341 348 352 353 356 356 363 364 362 363 362 362 363 360 361 362 363 361 361 361 361 361 361 360 359 358 357 357 358 356 355
343 342 337 320 315 321 322 326 330 329 333 334 331 325 334 340 335 340 346 350 352 355 356 360 362 361 363 361 363 361 362 361 362 362 363 361 361 360 360 360 360 360 359 357 358 358 358 357 354
345 335 319 316 318 323 327 330 332 328 331 330 330 324 327 336 342 344 346 352 351 352 355 357 364 362 363 361 361 362 361 361 361 362 363 362 362 361 361 361 361 360 360 359 359 358 358 357 356
333 330 313 310 316 323 328 332 332 331 329 328 327 326 329 338 340 342 348 350 353 353 355 357 361 362 361 362 360 361 361 361 361 362 362 362 362 362 361 361 360 359 358 358 358 358 358 357 356
323 318 313 315 317 321 326 331 329 329 328 327 330 324 330 334 340 343 349 351 354 355 355 356 354 357 361 361 361 361 360 361 361 361 361 361 361 361 361 361 361 360 360 359 358 358 356 356 356
330 324 317 318 316 318 328 328 334 332 329 335 333 323 325 333 340 346 349 350 352 353 355 352 352 352 353 355 361 361 361 361 361 360 360 360 359 360 360 360 362 359 359 359 358 358 357 358 357
331 318 313 316 318 321 329 329 336 337 332 334 333 331 333 338 338 345 345 347 350 352 351 349 350 351 352 353 356 361 362 361 361 360 360 357 350 350 354 357 359 359 359 358 358 358 358 358 358
328 316 317 325 326 323 330 330 332 330 330 328 329 333 335 337 334 338 341 340 343 347 349 348 349 350 350 356 352 352 355 354 353 352 347 344 346 349 354 354 357 358 359 360 359 356 358 353 345
329 319 326 326 328 328 327 328 335 330 325 328 325 328 332 333 332 335 341 341 343 346 350 348 348 348 348 351 350 350 351 351 349 344 337 343 349 350 351 349 343 335 346 345 349 347 344 346 346
321 328 329 326 329 328 324 329 331 332 331 333 331 331 332 331 329 336 340 341 343 345 347 348 347 347 346 347 348 348 348 347 346 342 337 345 344 345 344 344 340 342 342 342 344 346 347 346 347
322 325 329 332 328 327 328 325 331 331 335 333 331 332 331 329 329 338 341 343 344 343 346 346 346 346 346 344 345 346 346 346 347 345 341 340 339 342 342 343 345 343 345 344 344 346 346 341 337
321 323 324 327 327 326 323 327 332 333 335 330 328 328 328 327 335 337 339 341 342 344 344 345 344 346 344 343 341 343 344 345 346 345 346 343 341 340 342 345 346 345 345 345 342 344 340 342 340
315 312 315 318 324 324 328 318 324 333 333 328 325 326 325 331 337 336 339 340 342 343 343 342 344 345 342 342 340 341 344 345 345 346 347 347 346 346 347 345 345 346 346 346 342 345 341 337 337
308 307 303 313 323 325 322 311 329 333 330 327 327 325 326 330 336 338 340 340 342 341 340 341 346 344 342 341 339 341 342 343 345 347 349 349 345 346 347 346 346 346 346 346 345 343 337 336 333
298 297 304 309 323 324 320 314 330 333 329 327 329 330 331 331 336 338 340 340 341 339 338 338 343 343 342 341 342 344 343 341 345 348 349 349 347 350 347 346 345 347 342 347 346 342 340 336 338
293 299 302 304 318 321 317 315 328 331 329 328 329 331 332 332 334 337 339 340 342 337 337 339 341 342 342 343 342 343 343 343 344 347 348 349 351 348 344 346 344 337 345 345 344 341 339 337 340
301 304 304 309 314 319 317 317 326 329 329 329 328 329 330 332 335 337 339 339 339 337 335 338 339 341 343 342 340 337 338 339 342 345 348 349 352 349 346 346 343 343 345 344 343 333 333 328 332
298 296 299 306 312 318 317 317 325 328 328 329 329 329 331 332 333 335 337 338 338 336 336 338 338 340 344 343 344 339 338 338 340 343 347 349 351 352 349 346 345 346 346 343 343 337 336 330 332
297 296 297 301 309 314 312 313 317 327 329 331 331 332 332 332 332 333 335 337 338 337 337 338 338 340 344 344 342 341 340 339 338 339 343 348 351 353 351 348 346 347 346 343 342 340 335 327 332
292 301 302 302 302 300 309 298 313 321 324 327 329 330 331 333 334 334 335 336 337 337 340 340 339 340 344 344 342 340 337 335 335 337 339 348 351 352 353 350 349 347 347 345 344 342 337 329 328
299 302 302 302 298 300 304 298 306 319 320 323 327 330 332 334 334 334 335 337 338 339 340 341 340 340 342 344 343 341 336 337 339 338 339 343 348 351 354 352 349 347 347 347 345 342 338 329 326
306 302 300 299 297 295 300 299 298 312 316 323 327 330 332 333 335 336 337 339 338 339 340 341 340 340 341 343 343 341 340 338 337 338 337 338 345 349 350 352 349 348 348 347 345 346 342 336 330
303 296 289 288 289 292 298 297 303 314 319 322 325 329 331 332 334 334 335 336 338 338 338 339 340 340 341 342 343 342 341 339 340 337 338 336 340 343 348 350 349 348 347 348 346 345 344 342 336
300 297 289 284 286 293 297 293 300 315 321 324 327 329 330 329 329 334 334 337 338 338 337 339 341 341 342 343 343 343 342 342 342 341 339 338 341 344 348 351 351 350 350 349 347 346 346 342 343
300 297 300 291 287 289 294 295 303 312 317 321 324 327 327 329 329 333 335 336 336 337 337 339 340 342 343 343 344 344 344 343 342 341 341 339 339 345 346 349 351 350 351 350 349 348 347 345 341
304 303 294 290 286 283 288 292 299 301 305 318 322 324 326 328 330 333 335 335 335 337 339 339 341 341 344 344 345 345 345 345 344 341 339 339 338 343 347 348 350 351 351 351 349 348 348 348 345
297 300 298 297 292 291 284 291 298 303 305 312 318 324 327 329 331 331 333 336 336 337 340 339 340 340 342 345 345 345 346 345 346 344 343 343 341 341 345 347 349 352 351 351 349 348 349 348 348
296 298 295 296 290 287 293 296 301 303 304 312 320 324 328 330 333 333 332 335 336 335 339 340 340 340 341 345 345 345 346 347 348 346 343 343 344 343 342 347 348 351 352 352 350 348 349 349 347

GFSSGP_sfc_thetae_054.txt.gz
Theta_e
352 350 348 341 323 322 314 318 327 324 325 332 329 328 325 329 323 314 337 342 347 349 355 358 364 362 361 361 362 363 362 362 362 362 362 361 361 361 360 361 359 358 359 359 357 356 356 355 355
350 347 344 335 319 309 312 323 322 326 331 331 332 331 328 325 332 334 335 345 350 352 355 356 362 363 362 361 361 363 361 362 362 362 361 361 361 361 360 360 361 360 358 358 358 356 356 356 356
348 347 333 325 318 312 315 324 325 330 332 330 329 333 330 327 334 334 340 349 352 352 354 357 363 363 362 362 363 362 361 362 362 361 361 359 360 360 361 361 360 358 358 358 357 357 356 356 355
342 340 336 318 314 321 323 326 329 329 332 333 330 325 333 339 335 339 348 351 351 353 354 361 362 362 361 362 362 360 361 362 362 362 360 361 361 360 361 360 360 358 357 358 358 358 356 354 354
342 334 316 315 318 323 327 330 331 328 330 329 330 324 327 336 341 345 348 351 351 351 352 356 363 363 361 361 363 360 361 362 362 362 361 361 360 360 360 360 359 360 359 359 359 358 356 355 355
334 327 311 308 315 323 328 331 333 329 329 328 325 325 329 339 340 345 350 351 353 352 353 355 361 363 361 360 362 360 361 361 361 360 361 362 362 361 361 360 359 359 359 359 359 357 356 356 356
326 317 312 313 316 320 325 332 330 328 327 326 330 324 331 334 341 347 349 351 353 354 354 352 354 358 361 360 361 360 361 361 361 362 362 362 362 361 361 361 360 359 359 357 356 356 356 357 357
330 320 316 318 317 317 328 329 334 331 327 334 333 322 325 334 342 348 349 350 351 352 353 350 351 352 353 355 361 360 360 360 360 360 361 361 361 360 360 359 359 360 359 357 357 356 356 358 358
331 315 311 316 318 322 329 327 336 336 329 332 332 330 334 339 345 344 345 347 348 351 350 350 349 350 351 354 356 360 361 361 360 359 360 357 353 353 356 358 360 359 359 358 358 358 359 358 357
327 313 314 323 325 324 331 332 331 329 328 326 328 333 336 338 342 338 338 339 344 346 349 348 349 350 351 356 353 354 356 355 354 354 351 349 351 353 354 356 359 359 358 359 358 358 358 352 351
329 318 325 325 329 328 328 329 333 329 324 326 325 329 333 336 339 336 337 338 341 345 350 348 348 349 350 352 351 352 352 352 351 348 345 347 351 354 353 351 344 341 349 348 351 349 348 349 350
321 328 329 326 329 326 325 331 329 330 330 332 331 332 333 333 337 335 336 338 340 343 347 348 348 347 348 349 350 350 350 350 349 346 341 348 349 349 349 348 345 346 347 346 349 351 352 350 350
323 324 327 331 330 325 327 328 331 330 332 333 332 333 332 332 335 338 340 341 343 343 347 347 347 346 347 346 348 348 348 349 349 346 340 347 346 346 345 347 348 348 349 349 347 351 349 346 342
319 324 323 325 324 326 321 324 330 330 331 329 329 330 332 332 333 339 341 340 342 344 345 346 346 346 345 343 345 346 346 347 348 347 347 341 343 345 346 348 349 350 350 349 347 350 347 344 342
314 309 313 315 319 322 325 318 325 329 329 326 327 329 331 332 334 338 341 341 342 343 345 344 344 345 343 343 343 344 346 347 347 347 348 344 347 346 347 348 350 350 351 349 348 350 346 343 338
305 305 303 312 318 323 322 311 328 329 325 324 326 328 330 329 333 338 341 342 343 343 343 344 346 344 342 342 342 342 344 346 346 348 349 349 349 348 349 349 351 351 351 351 350 348 340 342 338
296 298 303 309 318 321 319 313 328 330 324 323 325 326 327 327 334 337 340 342 343 343 342 341 343 342 342 342 341 341 343 344 345 348 349 350 351 349 351 349 350 351 350 351 350 347 345 341 341
293 295 301 304 312 319 316 315 326 328 325 322 323 324 324 325 332 337 339 341 343 342 341 340 342 341 341 341 342 343 344 344 344 348 350 351 351 352 350 348 350 345 349 349 351 346 343 343 342
299 300 302 306 312 316 315 316 325 327 326 324 323 322 322 323 331 337 339 340 341 340 338 339 339 340 341 341 339 341 340 343 345 347 350 351 353 353 348 349 347 345 349 349 348 340 338 337 338
297 295 297 304 310 315 314 315 325 327 325 326 327 327 328 329 330 335 337 339 340 338 336 338 339 339 343 342 342 342 341 342 345 346 350 352 353 353 349 350 347 349 349 347 346 344 340 337 338
295 293 294 299 305 311 312 310 319 326 328 329 329 330 331 331 331 333 335 337 338 338 335 337 339 339 343 343 342 341 341 341 342 344 347 350 352 355 353 350 349 349 352 348 349 345 340 336 338
289 300 301 299 298 295 309 296 308 322 323 326 327 329 329 331 333 334 334 336 337 337 338 337 339 339 342 343 342 341 339 337 338 341 344 349 352 353 354 352 351 351 352 349 349 348 343 339 337
294 300 298 299 296 294 299 297 300 317 319 323 327 329 330 332 333 333 334 336 338 339 338 338 338 339 341 343 343 342 340 338 339 341 342 346 350 353 355 354 353 351 351 351 351 347 344 337 336
302 298 297 296 294 290 296 299 297 309 317 323 327 329 331 332 333 335 336 337 337 340 339 339 338 338 340 343 343 342 341 337 339 338 339 341 348 350 353 355 353 353 352 351 349 350 346 340 337
300 294 286 285 287 289 297 295 299 307 318 323 326 329 332 333 333 334 334 335 337 338 338 339 339 337 339 342 343 342 341 340 339 339 338 338 342 347 350 353 353 352 352 352 352 351 349 344 341
297 294 286 281 284 291 295 292 299 310 316 325 327 330 332 333 334 334 335 335 337 338 338 339 339 338 339 340 342 343 343 341 342 341 341 340 341 345 351 352 353 353 353 352 352 350 350 349 346
296 293 297 289 287 287 295 296 304 308 311 317 321 325 329 332 333 335 336 337 337 338 338 338 339 339 340 340 341 342 343 342 342 342 342 342 343 346 349 352 353 353 353 353 353 350 350 351 349
297 301 292 289 285 281 289 291 298 303 307 313 317 320 326 331 332 334 336 337 338 339 340 339 340 340 341 341 342 342 343 343 344 343 342 341 342 346 348 349 352 354 354 354 353 352 352 351 350
294 295 295 295 291 287 285 291 300 305 309 310 316 321 325 329 331 331 332 336 338 340 340 338 339 340 341 342 343 343 344 344 344 343 343 343 342 343 347 349 350 351 352 353 353 353 353 352 352
295 292 294 293 290 291 289 293 303 306 307 310 312 321 325 329 330 331 333 334 335 337 339 338 339 340 342 343 343 344 345 345 344 344 344 345 343 343 345 348 349 351 353 353 352 352 353 352 351

GFSSGP_sfc_thetae_057.txt.gz
Theta_e
351 351 349 341 324 324 318 319 327 325 326 331 331 328 326 331 325 320 343 348 349 350 357 358 364 362 362 362 363 364 363 362 362 362 362 361 359 361 361 360 358 358 359 357 357 357 355 356 357
349 348 344 336 318 317 317 324 322 326 331 333 334 332 330 327 334 336 340 349 349 351 356 356 364 363 362 362 362 363 363 362 362 361 362 361 360 360 360 360 359 358 359 359 357 357 356 356 357
350 346 335 328 322 317 315 325 328 330 332 331 331 334 332 329 336 338 346 349 350 353 357 357 364 363 362 362 361 363 362 362 362 361 361 360 360 360 361 360 358 357 358 357 358 357 357 356 356
345 341 337 321 315 322 322 327 331 330 332 334 332 327 334 340 338 342 349 350 349 353 355 360 363 361 363 363 360 362 362 363 362 361 360 360 360 361 360 358 358 357 358 357 357 357 357 356 356
346 339 323 319 318 323 329 331 333 330 331 332 332 325 328 337 344 347 350 349 349 351 356 357 365 362 362 362 360 362 362 362 362 362 363 362 362 361 361 359 359 356 358 357 359 356 356 356 356
333 333 320 313 318 324 329 333 334 332 331 330 328 328 330 342 343 347 350 349 351 352 353 356 363 362 363 362 360 362 362 362 362 361 361 363 362 361 360 360 360 359 359 357 357 356 356 356 357
327 326 318 317 318 322 328 335 332 331 330 328 332 325 333 338 345 348 350 352 351 352 353 355 361 360 361 362 361 361 362 362 361 361 362 363 362 361 361 360 360 358 357 356 356 357 357 357 358
337 327 318 320 319 320 330 331 336 332 329 337 336 326 327 338 346 348 351 351 350 350 352 354 359 355 356 357 360 361 361 361 362 362 362 362 362 361 359 359 359 358 357 356 356 357 358 358 358
332 322 318 318 319 324 331 330 336 337 332 333 335 334 337 342 346 345 348 348 347 349 352 354 355 357 360 359 358 360 361 361 361 360 361 360 361 359 357 359 359 358 359 358 357 358 358 358 359
329 323 321 324 327 326 331 333 333 332 330 330 332 336 339 341 343 341 342 342 342 347 350 353 355 355 357 355 360 361 360 359 359 361 361 359 360 360 357 358 359 359 359 359 358 357 358 355 355
330 324 327 327 330 334 333 333 335 331 328 331 330 332 336 339 339 338 340 340 341 348 348 352 355 357 357 357 358 358 359 359 360 362 358 359 360 361 358 358 354 354 354 354 353 354 356 352 354
326 331 332 331 332 330 328 333 332 333 333 337 336 337 337 337 337 337 338 340 342 346 348 352 355 356 358 357 357 358 357 358 357 357 354 360 359 359 357 356 353 354 356 358 359 359 360 358 357
326 329 330 333 332 331 331 330 332 333 337 338 337 336 335 336 336 338 340 343 343 343 348 351 356 356 358 359 357 357 358 356 356 357 351 358 359 360 356 356 356 357 359 358 359 357 354 353 353
325 327 329 330 329 330 328 327 333 333 337 335 335 334 335 336 336 337 339 341 342 344 349 352 354 356 357 356 359 357 357 356 356 357 351 354 358 359 354 355 356 358 360 360 359 357 354 351 352
320 317 319 323 325 327 328 323 326 334 335 332 333 334 334 336 337 337 339 342 346 348 350 351 353 354 355 356 356 355 354 354 355 357 358 353 354 357 359 359 358 359 361 360 363 358 356 348 350
308 313 313 322 323 324 326 317 329 334 332 330 332 332 332 334 337 340 342 343 347 348 350 352 350 351 352 352 353 352 352 353 355 357 357 356 358 360 362 359 359 360 360 361 365 358 351 349 348
306 301 307 315 322 325 324 319 331 333 332 329 331 332 332 333 336 341 344 345 346 348 350 351 352 350 351 353 352 352 352 353 355 356 357 360 359 357 361 360 360 362 359 359 359 356 354 348 346
300 301 308 313 320 321 321 321 330 330 331 330 330 332 332 333 334 340 344 346 348 348 350 351 350 352 352 352 353 351 349 351 354 355 356 360 359 360 360 362 360 360 361 363 360 358 355 351 345
305 304 304 315 321 320 319 320 328 331 329 329 329 330 332 332 336 340 343 346 347 349 349 350 350 352 350 348 347 348 347 351 353 355 359 360 360 361 362 360 360 359 360 363 358 353 351 349 344
302 302 305 311 315 319 319 318 326 330 330 329 329 330 331 332 334 338 342 344 345 347 349 350 350 352 352 349 351 351 352 353 356 358 359 361 361 363 361 360 358 358 357 360 357 354 344 347 346
300 300 302 305 311 315 317 315 320 329 332 333 331 331 332 331 331 336 340 342 344 346 348 349 352 352 354 355 352 352 353 353 352 354 357 360 362 363 363 360 360 359 368 363 360 353 350 343 347
296 302 303 304 303 304 315 306 316 324 328 330 331 331 330 331 332 334 339 341 343 346 348 351 352 353 353 356 353 355 348 347 350 353 356 360 362 363 364 363 361 361 364 366 359 357 354 350 343
298 302 300 302 302 303 305 307 314 321 323 327 331 333 335 335 334 334 336 340 343 345 347 347 352 354 356 356 356 351 352 351 352 352 357 361 362 362 362 364 362 362 363 364 361 360 358 350 346
304 302 301 300 300 295 303 304 307 314 321 327 332 334 336 337 338 340 340 341 343 344 346 347 351 352 355 354 355 356 356 353 349 351 350 352 355 358 362 363 364 364 362 362 361 362 360 355 349
302 298 293 291 291 292 305 302 306 315 322 327 330 334 336 338 338 339 340 340 342 345 346 348 350 350 353 353 354 356 356 357 355 354 350 352 350 354 360 363 363 362 365 363 363 362 362 358 351
300 300 293 288 289 292 302 299 305 315 318 325 330 334 337 338 339 339 341 343 344 345 347 348 348 349 351 352 354 356 357 350 350 354 350 349 349 352 360 362 363 364 365 364 364 360 359 361 356
301 297 303 296 298 295 297 303 310 315 317 319 321 331 334 337 338 339 341 342 344 345 347 348 349 350 351 349 353 355 356 356 352 356 355 351 356 351 356 360 361 362 363 364 364 359 360 361 360
303 306 297 297 289 289 295 298 301 311 313 318 319 326 332 337 339 340 341 342 344 345 347 349 350 350 351 351 352 353 355 356 356 356 355 356 354 355 354 358 360 361 363 364 364 361 362 361 359
300 299 301 302 298 292 291 296 310 311 317 318 320 324 328 334 338 340 341 344 345 345 347 348 348 351 350 351 352 353 353 353 354 354 355 357 356 356 356 358 358 360 360 362 363 362 362 361 362
300 300 302 296 296 299 298 297 311 315 317 319 321 324 328 333 338 340 342 343 344 345 346 346 347 347 349 352 352 352 353 354 352 354 354 357 358 356 356 358 359 359 359 360 360 359 358 359 360

GFSSGP_sfc_thetae_060.txt.gz
Theta_e
353 351 353 344 325 326 321 323 331 328 328 334 335 329 329 333 329 325 349 352 354 353 356 360 364 364 363 363 363 363 363 362 362 362 361 361 362 362 361 360 358 360 358 357 357 356 358 358 356
352 350 346 338 322 318 319 328 326 329 334 336 335 333 332 330 338 341 345 352 354 354 354 359 364 364 363 364 363 363 363 363 362 362 361 360 361 361 361 359 359 359 359 358 358 357 357 358 358
351 350 336 331 325 318 316 329 330 330 334 335 333 337 336 333 340 343 351 352 352 351 352 362 364 364 364 363 363 362 362 363 363 362 361 360 360 360 360 359 358 358 358 359 358 358 357 357 357
346 346 343 327 320 326 323 331 334 333 334 336 336 331 338 343 342 347 351 352 351 351 352 362 363 362 364 362 363 363 363 363 362 362 361 362 360 360 359 359 358 358 358 358 358 358 357 356 356
349 342 326 322 320 325 333 334 336 332 333 334 336 331 330 340 345 349 350 351 349 349 352 361 364 363 363 361 362 363 363 363 362 361 361 362 361 361 359 358 357 358 358 358 357 356 356 357 357
338 338 324 315 319 328 334 336 336 334 336 335 334 333 333 342 343 347 350 349 348 347 350 360 362 364 364 361 363 363 363 362 362 362 362 362 362 362 362 361 360 359 358 358 356 356 357 357 359
332 330 324 322 323 327 333 340 335 335 334 332 338 332 337 340 345 347 349 347 348 348 350 358 356 363 362 361 363 363 363 362 362 361 361 363 363 362 361 360 358 357 357 356 356 357 357 358 359
339 331 323 325 324 324 334 337 340 337 334 342 341 331 331 342 346 346 347 346 348 348 350 356 355 356 362 358 362 362 363 363 362 360 362 363 362 360 359 360 358 357 357 356 357 358 357 358 359
340 327 323 322 323 329 335 333 340 342 337 338 340 339 343 345 346 343 344 344 346 346 349 354 351 355 358 359 361 362 362 362 363 362 363 362 356 356 358 360 357 358 357 356 357 357 357 360 359
333 327 325 329 331 329 334 336 337 336 335 334 336 341 343 344 343 341 341 340 342 343 346 350 351 354 356 353 360 360 358 358 359 359 361 358 359 359 357 360 360 358 359 358 358 358 357 359 353
333 327 330 330 334 337 333 336 339 335 332 336 336 338 341 342 344 342 341 341 341 344 346 349 352 356 355 355 356 356 356 357 359 362 360 359 358 356 356 355 356 356 358 354 356 357 354 354 352
325 331 333 333 334 335 333 338 335 336 337 342 341 341 341 341 341 341 340 341 341 343 345 349 352 355 356 356 355 355 354 355 354 357 363 361 358 358 357 354 355 357 358 358 360 354 359 359 359
325 329 333 335 334 334 334 333 334 336 341 343 342 341 340 341 341 342 343 342 342 343 345 348 353 357 359 359 355 355 355 355 356 359 359 361 358 358 356 357 357 359 357 355 356 354 354 356 358
322 324 328 333 334 334 331 331 335 337 342 341 340 339 340 340 339 341 342 340 342 344 345 348 352 356 358 358 361 357 357 357 357 357 356 363 368 361 356 357 356 357 359 356 354 354 351 352 353
320 319 322 326 332 331 333 327 328 339 341 338 338 339 339 340 340 340 342 341 344 345 347 348 352 354 358 359 360 358 357 355 355 357 361 359 362 363 364 357 357 357 360 361 359 358 356 347 349
311 314 312 324 330 331 330 321 331 339 338 337 338 338 338 339 339 341 343 343 345 346 348 350 349 351 355 357 358 355 355 355 356 357 358 359 361 364 366 360 357 360 358 356 354 353 348 347 347
308 305 308 322 329 329 327 323 334 338 338 337 337 337 337 338 340 341 342 344 345 348 350 350 351 350 352 356 355 355 358 357 357 358 358 363 362 363 366 358 361 367 362 353 352 350 352 346 346
303 304 309 317 325 327 325 325 333 336 336 336 337 337 337 338 339 341 342 344 346 349 351 352 350 352 354 353 354 352 353 356 358 358 359 365 362 363 364 362 367 360 355 354 354 356 353 351 349
307 308 307 317 325 325 324 325 331 334 335 335 337 337 337 338 342 343 344 345 345 348 350 352 351 354 352 349 347 349 349 353 355 357 362 364 364 366 366 361 364 366 355 355 359 357 355 345 348
305 306 308 312 321 324 324 323 327 334 333 336 336 337 337 338 339 341 344 344 344 346 349 352 353 355 354 349 352 350 353 353 355 358 363 365 365 366 364 365 362 365 354 358 359 357 347 349 348
304 303 306 309 314 319 322 321 324 330 335 336 338 339 339 338 339 340 343 343 344 346 349 351 355 355 356 357 351 355 356 357 356 357 358 362 365 366 366 366 365 368 359 354 359 356 353 343 349
301 306 305 307 308 307 319 310 320 325 330 333 335 337 338 339 340 341 342 343 344 346 350 354 356 357 356 357 356 359 352 348 350 354 355 358 366 365 366 367 365 364 358 364 357 355 354 353 345
302 307 305 304 306 308 311 311 316 324 324 331 334 336 337 339 340 340 341 345 346 347 349 353 357 361 361 360 360 353 356 349 351 352 361 365 367 366 364 368 367 368 358 362 361 362 361 350 347
308 305 304 304 302 298 307 309 312 317 323 327 334 337 338 339 340 341 343 345 347 348 348 352 358 361 362 359 356 361 361 358 351 355 354 354 356 360 366 366 368 368 364 361 360 363 364 359 355
306 302 297 295 294 293 306 306 311 320 326 327 331 336 339 341 341 340 340 342 346 347 349 350 357 360 361 358 357 357 358 361 360 358 354 358 351 353 360 367 368 365 370 366 365 371 365 362 358
304 303 297 292 294 296 302 300 308 319 324 329 332 336 340 341 343 343 342 343 344 347 348 350 354 359 359 358 361 363 364 354 355 358 354 353 351 352 359 364 365 366 366 367 367 361 360 363 360
305 301 307 301 303 299 301 303 311 318 320 323 326 331 334 338 341 343 346 347 346 346 350 353 356 357 358 356 362 363 363 362 356 364 359 354 362 354 357 360 364 364 365 366 367 361 363 363 362
306 310 300 301 294 294 300 301 301 311 316 321 323 325 331 336 341 343 345 347 349 348 349 351 353 356 357 356 358 358 358 362 362 361 361 361 358 360 358 358 360 360 362 365 367 363 365 365 361
303 302 304 304 302 296 295 300 311 311 314 319 322 326 328 336 340 343 345 347 349 350 349 350 351 353 354 356 359 359 357 358 359 358 360 360 361 361 361 360 359 358 361 364 365 365 362 364 365
305 303 304 299 298 301 301 302 313 314 315 319 322 325 329 332 338 342 344 347 348 349 349 348 350 351 353 357 361 359 359 360 356 358 359 362 361 362 362 362 360 358 359 362 364 362 359 361 361

GFSSGP_sfc_thetae_063.txt.gz
Theta_e
353 350 352 343 328 328 320 321 330 328 329 335 336 332 331 334 329 326 349 352 353 353 356 359 363 363 362 362 362 362 361 362 362 362 361 363 361 362 360 358 360 358 359 357 357 359 358 357 360
351 349 350 343 325 320 317 328 326 329 334 337 334 335 332 332 341 341 344 351 353 353 355 356 364 365 363 363 363 363 363 363 363 362 361 361 361 360 360 359 360 358 359 358 358 358 358 358 359
352 350 341 333 329 316 320 328 332 334 336 336 335 338 337 334 343 344 352 352 351 351 352 358 364 364 364 364 363 363 362 362 362 362 361 360 360 360 360 359 359 359 360 358 359 358 358 359 357
345 345 344 329 321 328 326 330 334 328 335 337 336 333 341 345 343 347 353 353 349 350 352 361 363 363 363 363 363 363 362 362 362 361 361 360 360 360 359 359 359 358 359 359 359 358 358 357 357
346 343 329 326 324 327 331 334 333 331 333 335 338 333 335 342 348 349 349 349 346 349 352 359 365 363 363 363 363 363 363 361 362 361 361 361 361 359 359 359 359 358 358 358 358 358 358 357 358
335 340 324 320 321 329 332 338 334 333 335 336 336 335 336 347 345 347 348 350 347 347 351 355 363 363 363 362 362 363 362 362 362 362 362 361 361 362 362 361 359 359 359 357 357 357 357 358 357
333 333 323 320 321 327 332 340 334 332 334 335 340 335 337 342 345 347 348 347 346 347 350 354 359 363 362 363 362 363 363 362 362 363 362 363 362 361 360 359 359 357 356 358 357 356 358 359 359
341 335 324 324 324 324 336 337 338 335 335 343 344 334 332 342 346 346 346 346 345 347 349 351 355 359 357 362 362 363 363 362 361 361 362 363 361 358 357 361 360 357 356 358 356 357 358 359 359
342 326 321 323 324 328 337 335 341 343 338 340 342 340 344 345 346 344 342 343 343 344 348 349 351 357 357 361 362 362 363 363 362 362 362 361 355 357 357 360 359 358 357 356 356 357 359 360 359
333 327 324 327 332 333 336 336 338 336 336 336 338 343 345 345 344 339 339 340 340 341 345 347 350 352 354 352 361 361 360 357 358 356 361 358 358 360 354 358 359 358 358 358 357 357 356 359 354
333 327 333 332 336 336 336 335 340 333 331 337 336 338 340 343 343 340 339 341 340 342 345 345 350 353 351 355 356 354 357 354 357 359 358 356 354 357 352 355 355 356 360 354 355 355 357 356 353
326 331 332 333 337 334 334 336 333 336 334 341 343 343 341 342 341 340 340 340 340 341 344 345 350 353 353 351 352 355 352 351 352 356 360 360 359 355 358 356 356 357 353 354 355 353 355 355 352
326 327 334 335 335 336 337 333 333 334 341 344 344 343 340 341 340 342 342 342 341 340 343 346 351 356 358 360 365 353 351 350 354 357 360 357 358 357 360 355 352 362 355 352 353 351 354 356 353
324 326 329 334 334 334 331 330 334 336 343 342 342 341 341 342 341 342 342 341 341 342 343 348 351 356 357 361 368 355 352 361 356 357 357 363 359 361 356 362 358 354 350 353 356 358 354 358 351
322 319 324 328 332 331 334 326 329 339 342 340 340 341 339 340 342 341 343 341 342 342 344 348 351 354 357 365 358 355 355 355 357 358 362 361 365 363 366 360 350 355 359 362 357 356 349 348 350
315 317 314 324 329 333 332 321 330 340 340 339 339 340 340 340 342 344 344 342 344 344 344 348 348 352 355 358 358 355 353 355 356 357 359 360 362 363 366 357 356 356 353 353 350 349 351 344 347
310 308 312 316 325 327 330 322 325 339 339 338 338 339 339 338 341 344 344 342 344 345 346 347 350 351 355 359 358 359 360 358 358 363 360 363 364 363 364 357 360 361 358 355 350 344 351 346 343
305 307 311 313 324 327 327 325 329 337 337 338 338 339 339 339 340 343 344 344 344 345 348 349 349 357 360 357 358 354 355 358 360 358 360 364 363 363 364 358 360 359 356 348 357 354 354 353 346
310 309 309 315 326 324 323 325 327 335 335 337 338 337 338 339 343 343 344 344 344 345 348 350 353 363 356 352 350 350 350 353 359 359 363 364 363 364 365 359 361 360 358 352 356 352 351 345 352
308 307 308 314 321 324 323 322 327 333 334 337 338 338 338 340 341 342 343 343 343 345 349 355 357 363 358 353 356 354 356 352 354 355 362 364 362 365 363 367 362 361 358 358 360 356 348 343 350
307 306 308 310 315 324 322 320 324 331 335 337 339 341 339 340 340 341 342 342 343 345 348 355 360 363 360 361 357 357 358 357 352 357 356 361 363 364 366 365 359 362 360 353 358 357 360 347 346
304 309 308 308 311 308 320 311 317 322 330 334 337 339 340 339 342 343 343 343 343 344 348 357 360 363 361 364 355 361 351 347 349 354 354 358 364 364 364 367 366 364 360 365 361 356 360 356 346
306 310 308 306 306 310 312 310 318 326 325 330 334 338 340 341 341 342 343 345 345 345 347 351 361 364 363 363 362 354 357 350 351 351 367 373 371 365 362 366 367 365 359 364 361 361 363 352 350
311 308 307 307 305 298 308 310 314 317 321 329 334 337 339 341 342 343 345 347 346 347 347 352 360 364 366 364 362 364 360 360 348 352 355 353 357 360 365 364 371 366 364 363 362 365 363 367 358
309 305 298 296 297 296 305 307 313 322 326 327 332 336 339 341 342 342 343 343 346 348 350 353 360 363 365 364 360 361 365 365 367 363 352 355 349 350 366 370 368 367 369 365 366 368 363 363 357
306 305 300 294 296 298 305 300 309 321 327 328 330 334 339 340 341 343 344 344 348 350 352 354 359 363 365 363 363 362 365 353 352 360 353 350 349 352 371 366 364 366 367 364 369 361 360 368 359
307 303 308 303 305 302 304 306 310 318 321 327 326 332 333 339 341 342 344 345 348 350 354 355 359 363 365 360 365 366 363 359 353 363 366 357 362 354 357 361 364 363 363 367 371 360 366 363 364
308 311 302 302 296 295 302 305 304 309 314 320 325 328 332 338 341 343 344 345 346 348 351 355 358 363 362 362 364 363 363 364 364 366 369 363 365 367 361 362 361 363 366 366 373 365 368 367 361
304 303 306 306 303 297 297 303 314 312 314 318 322 327 332 338 339 342 344 347 347 348 349 351 354 359 360 362 364 362 362 360 363 365 367 367 367 370 368 366 364 362 362 366 371 370 366 367 367
304 303 303 300 300 303 302 304 316 317 316 319 323 326 329 333 338 341 343 347 348 349 349 350 351 352 357 360 363 362 364 361 360 363 364 370 369 369 370 367 367 363 361 366 369 363 363 361 362

GFSSGP_sfc_thetae_066.txt.gz
Theta_e
353 349 349 345 326 327 321 322 329 327 328 333 336 333 331 333 329 323 345 348 351 352 356 358 362 362 363 363 362 362 363 363 362 361 362 363 361 360 359 360 359 360 358 358 360 359 359 361 361
348 344 346 340 323 318 319 326 326 329 333 336 336 335 332 330 338 339 344 351 352 353 355 356 362 363 363 362 364 363 362 362 362 362 362 362 360 360 360 360 359 360 360 358 359 358 359 360 360
352 349 338 331 326 315 319 326 328 332 334 334 334 339 336 333 340 343 349 350 351 350 353 357 366 365 364 364 363 363 363 363 362 361 361 360 360 360 359 360 360 360 359 359 359 359 360 358 360
348 344 341 327 322 323 327 328 333 332 335 339 336 332 338 345 343 347 350 349 346 346 352 361 366 363 365 363 363 363 363 363 362 362 361 361 362 361 360 360 359 360 359 358 359 358 358 358 356
347 342 326 325 324 327 333 334 332 331 333 335 337 331 333 343 348 348 347 347 344 348 353 357 365 364 363 363 363 363 362 363 362 361 362 362 362 360 360 360 359 359 359 358 359 359 358 358 356
334 338 324 321 322 327 332 335 333 332 334 335 334 333 334 345 345 346 347 346 347 347 351 356 362 364 364 363 364 363 362 363 361 364 363 362 363 361 360 359 360 360 359 358 358 358 358 357 356
332 331 322 321 322 325 331 338 333 333 333 334 338 331 337 340 345 347 346 345 345 346 349 355 356 361 363 364 364 363 363 363 365 364 365 366 365 363 362 362 359 358 358 357 358 359 359 358 357
337 333 325 324 322 321 329 336 338 335 333 343 343 331 331 341 347 347 346 341 345 346 349 355 355 355 359 359 363 363 363 363 364 365 366 365 363 359 360 363 362 358 358 357 358 359 359 359 357
340 327 323 323 323 326 332 333 339 342 337 339 341 340 342 344 346 344 341 338 344 344 347 349 351 354 362 361 362 363 363 362 362 361 362 360 356 357 356 363 362 358 359 358 358 358 357 357 356
330 327 325 331 331 326 332 335 336 335 334 336 339 342 343 343 343 341 337 335 340 341 342 347 353 352 358 354 362 362 360 358 359 359 360 363 355 360 354 360 363 359 360 360 358 349 354 357 355
329 323 332 331 334 333 331 334 337 334 330 335 335 338 340 341 341 339 338 337 337 342 342 346 353 355 353 355 360 359 358 359 359 367 359 362 358 361 354 356 356 357 359 353 355 355 352 354 353
322 328 330 330 336 336 332 335 333 333 331 341 342 341 340 339 339 337 337 338 338 341 340 347 350 358 352 356 356 354 357 355 355 358 362 359 351 351 358 352 361 352 352 356 349 354 352 352 352
324 327 329 334 337 334 331 331 332 328 332 342 343 340 339 339 339 339 340 340 340 339 343 347 350 365 352 355 352 354 350 352 357 358 356 358 362 354 360 349 353 352 357 354 348 355 352 347 353
325 325 328 332 334 336 330 331 333 335 339 341 340 338 338 339 338 340 340 339 339 341 344 349 350 362 363 361 367 352 360 352 357 360 358 354 363 364 363 354 353 352 357 355 356 357 354 353 347
320 318 322 326 333 332 333 326 328 338 339 338 338 338 338 339 340 340 342 340 341 343 347 349 350 355 362 357 360 365 359 357 349 362 368 360 359 365 359 352 353 356 362 361 358 361 354 349 351
313 315 312 320 326 332 331 322 329 338 337 336 338 337 338 339 340 342 343 341 342 343 349 349 345 351 357 362 367 365 360 361 358 357 364 366 358 369 354 355 354 357 354 359 347 357 352 346 347
310 305 310 314 325 327 328 322 330 335 335 335 336 337 337 338 340 343 343 342 343 346 350 349 352 353 355 361 363 360 359 363 357 364 360 368 368 368 361 352 358 356 362 362 356 344 358 349 349
304 306 309 311 319 324 323 323 329 330 331 334 335 337 337 337 338 343 343 342 344 347 349 350 353 358 359 361 366 357 362 359 359 365 365 369 364 368 357 358 364 363 348 352 358 344 350 347 346
309 307 308 312 317 320 319 322 323 328 328 327 334 337 336 337 342 344 344 342 344 346 348 351 355 359 357 356 355 353 352 359 352 353 359 368 365 365 359 361 363 363 351 351 360 359 355 346 352
309 307 306 311 315 322 322 317 321 323 324 326 334 335 337 337 339 342 343 341 342 345 347 353 355 359 356 358 359 358 354 356 353 356 362 366 367 368 363 359 363 352 362 362 357 347 347 343 346
307 306 306 307 313 321 320 315 319 322 326 331 336 336 337 339 339 341 341 341 343 345 348 352 355 358 357 361 358 363 367 361 356 361 361 366 367 369 365 365 363 366 355 356 360 360 343 343 350
303 310 308 307 306 304 315 309 314 322 324 323 325 334 335 339 341 341 341 342 341 345 350 353 356 360 357 362 355 360 354 351 355 356 361 362 369 368 368 367 369 368 361 357 364 362 351 344 346
306 311 309 307 305 305 308 307 317 323 317 321 323 333 334 338 340 341 341 343 343 347 349 352 355 359 356 357 361 357 355 354 359 357 362 363 371 371 366 371 369 365 364 365 364 362 364 360 353
311 308 308 307 304 298 303 305 308 318 318 318 323 331 335 336 340 343 344 345 344 347 348 353 354 356 358 356 357 359 354 360 357 358 354 359 362 364 371 368 367 368 367 364 364 368 366 365 363
309 304 296 296 296 296 304 301 308 318 324 321 324 331 337 339 339 342 343 344 345 344 347 350 353 354 356 356 353 360 356 357 362 365 355 354 357 356 363 370 366 366 367 368 367 369 366 367 363
306 304 298 292 294 297 305 299 304 314 329 330 330 331 333 340 341 342 344 345 346 346 346 348 353 354 356 358 353 355 361 355 356 363 357 363 355 358 363 366 366 368 368 367 367 364 365 364 364
305 302 307 301 303 299 302 306 311 313 316 329 326 329 328 335 340 342 344 345 348 348 347 349 353 355 357 356 358 353 359 358 353 362 366 359 365 362 364 366 367 368 366 366 367 361 363 361 364
305 308 301 301 294 294 300 303 304 310 312 318 327 328 331 333 332 338 344 346 348 349 350 350 354 355 358 357 359 356 353 358 359 354 364 361 365 364 364 366 365 365 369 368 366 362 363 363 360
303 302 304 304 303 296 295 301 314 317 315 316 328 329 326 330 332 337 334 347 348 349 351 351 352 356 358 360 358 358 356 355 354 357 355 360 361 373 368 371 367 365 364 369 368 364 362 361 361
303 303 303 299 299 302 302 301 315 317 317 317 318 329 329 332 331 332 332 342 347 348 349 351 352 354 359 360 359 358 360 357 355 351 359 363 367 365 374 367 370 365 364 365 365 363 358 361 360

GFSSGP_sfc_thetae_069.txt.gz
Theta_e
352 350 345 341 323 321 319 321 327 325 327 334 336 332 330 333 328 318 343 347 349 350 354 358 363 362 363 363 364 363 362 362 362 361 361 361 360 361 360 360 360 357 360 359 359 360 361 361 361
347 344 343 336 320 314 317 326 325 327 332 336 336 334 332 327 335 336 339 347 350 352 353 355 362 363 363 362 364 364 363 363 362 363 362 361 361 361 361 360 361 359 359 359 359 359 360 361 361
347 346 334 327 321 313 317 325 329 331 335 335 333 336 333 329 338 339 346 349 351 351 353 355 363 365 362 363 363 365 362 363 362 361 361 361 361 360 359 361 360 360 359 360 359 359 359 360 359
345 343 336 320 319 320 324 327 331 332 335 336 334 329 336 342 341 344 348 350 348 350 354 362 363 364 363 363 364 364 363 363 363 363 362 362 361 361 361 360 361 360 359 359 358 358 359 357 358
346 338 323 320 322 326 328 329 331 330 333 333 334 329 332 340 345 346 347 346 346 349 356 360 366 366 363 363 364 363 363 363 362 363 362 363 361 361 361 360 361 359 360 360 358 358 357 357 356
333 333 319 316 320 327 331 333 333 332 334 334 332 331 333 342 342 344 346 345 349 350 355 357 363 364 364 363 363 363 363 363 362 362 361 362 360 360 360 360 361 360 359 359 358 357 357 356 355
329 328 321 320 321 324 328 335 331 332 331 331 336 328 335 338 342 343 344 346 347 351 354 356 357 360 364 363 363 363 363 362 363 362 363 363 363 361 360 360 360 359 358 358 358 358 357 356 355
336 330 323 324 319 318 329 332 336 334 333 339 339 328 329 337 343 343 344 344 345 349 353 350 354 355 355 357 363 363 363 363 363 363 362 361 361 361 360 363 362 359 358 358 358 358 358 355 354
338 322 319 322 318 320 329 329 338 341 335 337 339 336 339 341 342 340 338 340 342 347 349 348 350 353 354 356 359 364 363 363 364 363 361 361 350 352 355 360 362 359 358 358 358 358 356 356 356
326 320 324 327 328 326 330 331 334 334 335 335 335 339 341 341 340 337 336 335 338 343 346 345 347 353 353 357 355 355 356 355 353 355 353 352 351 347 354 359 363 359 359 359 353 356 357 356 351
327 319 329 331 331 334 333 333 336 333 330 333 331 335 338 339 338 335 336 336 337 342 343 345 349 351 349 351 355 354 352 352 353 354 351 354 349 348 349 350 351 350 357 352 351 348 349 350 349
319 326 328 332 335 334 333 336 331 332 333 340 337 338 338 337 337 333 334 335 335 337 344 346 347 350 347 352 354 353 352 352 349 348 352 347 341 343 350 348 351 345 349 350 350 346 347 347 347
321 324 327 331 334 335 336 331 326 329 338 341 339 338 336 336 337 334 333 334 335 338 343 344 346 346 347 349 350 348 349 350 350 350 348 348 349 347 349 349 347 347 348 348 347 348 347 348 346
321 323 324 331 332 333 329 331 331 333 339 338 337 335 336 336 337 335 333 333 332 340 340 341 348 346 346 345 347 348 347 352 352 348 341 345 348 353 348 346 347 346 347 349 347 348 347 346 346
318 310 314 321 331 331 334 327 328 337 338 335 335 335 336 336 336 335 334 332 331 341 340 342 346 348 349 349 349 348 346 350 350 352 347 351 350 351 351 347 349 345 348 345 346 349 349 345 343
310 305 301 312 321 331 330 320 332 337 337 332 334 335 335 336 335 337 335 333 335 341 340 341 346 349 348 346 353 348 347 347 354 355 354 354 352 351 349 347 347 350 349 349 339 346 343 344 342
305 298 302 306 316 321 324 320 332 333 333 332 332 333 335 335 336 337 336 335 337 341 340 338 340 346 347 347 348 348 344 351 351 354 354 354 356 355 349 346 346 348 347 348 348 341 346 340 341
298 298 300 302 311 316 323 323 325 327 332 332 333 333 333 335 337 338 337 336 339 342 341 342 343 346 348 349 346 349 352 350 354 354 353 358 355 355 351 350 349 352 346 343 346 338 341 336 341
305 304 302 305 311 310 320 321 321 324 329 333 332 331 332 334 337 338 337 337 340 342 340 343 344 346 350 349 346 345 343 345 348 353 356 357 357 347 342 349 351 348 344 340 347 345 338 339 343
304 302 302 306 308 313 321 319 322 322 328 331 328 332 332 334 336 337 336 336 337 340 339 342 346 347 349 348 348 345 345 350 347 349 351 357 357 352 352 350 351 348 346 348 344 341 338 335 336
302 300 301 302 306 314 318 314 318 324 327 330 333 332 334 334 335 337 334 336 337 338 340 341 349 348 349 347 346 349 350 349 344 348 349 355 357 357 355 351 352 350 349 347 347 345 341 336 338
294 304 305 304 299 293 309 303 313 317 321 327 331 328 328 333 336 337 334 334 337 338 343 342 349 348 347 350 343 344 344 342 346 349 352 355 355 357 357 355 352 352 347 347 348 351 341 337 335
300 306 304 303 298 294 299 293 310 318 316 322 326 327 328 331 335 335 336 335 338 340 342 345 350 348 347 349 345 344 342 345 346 350 352 352 355 357 358 356 355 352 348 349 349 349 349 345 341
308 303 301 299 295 290 295 294 306 313 317 318 324 325 330 331 334 337 338 338 337 342 341 346 349 346 346 347 349 344 343 343 347 346 348 352 354 356 357 361 355 353 353 352 351 351 348 349 348
302 295 288 286 288 288 295 293 295 320 323 320 322 327 330 332 336 336 336 336 336 339 342 344 346 348 346 345 346 350 344 343 347 347 351 351 351 351 353 356 354 355 354 353 353 352 352 351 348
298 295 289 284 286 289 297 291 297 316 327 325 326 327 332 333 333 335 337 337 337 339 342 344 344 346 347 345 344 347 349 345 347 349 348 351 352 351 353 356 353 354 355 355 353 351 352 352 351
299 295 298 292 295 290 294 298 303 307 321 323 322 325 332 334 333 333 338 338 338 340 340 344 344 344 348 347 343 345 351 344 345 347 351 350 348 352 353 358 354 357 355 355 354 350 350 352 352
300 300 291 292 285 284 292 294 296 303 308 321 321 328 325 329 333 336 338 339 339 340 342 343 346 345 348 348 346 344 347 351 347 346 349 350 346 350 354 358 357 358 355 353 354 349 352 350 350
296 294 293 293 291 287 287 292 303 305 307 312 324 326 323 327 332 336 337 337 337 338 342 343 346 346 348 347 350 345 343 350 349 346 344 349 349 353 357 357 356 356 357 356 354 350 353 350 350
297 293 291 289 289 293 292 294 308 307 309 316 324 329 327 331 334 334 337 338 331 333 342 342 344 347 349 350 350 350 345 346 349 346 344 349 348 350 355 358 357 356 353 354 355 350 351 353 350

GFSSGP_sfc_thetae_072.txt.gz
Theta_e
352 351 347 338 321 322 316 320 328 325 326 331 333 332 329 331 326 313 342 346 347 346 353 358 363 362 361 362 362 361 362 362 360 362 361 361 361 361 359 358 359 359 359 359 359 360 360 361 361
349 346 341 335 321 313 316 326 324 327 333 335 335 334 330 326 335 337 339 347 349 350 354 357 363 364 361 363 363 363 362 362 362 362 361 360 361 360 360 359 357 359 359 358 360 360 360 360 361
346 344 333 327 321 312 315 324 327 332 335 334 332 335 332 328 337 338 345 349 350 351 353 356 362 363 362 362 362 363 363 362 361 362 362 360 361 359 360 360 359 359 359 359 359 359 360 360 359
342 341 336 319 317 321 324 327 332 330 333 334 332 326 335 340 338 343 348 350 349 351 353 360 363 362 362 363 362 362 362 362 361 361 362 361 360 360 360 360 360 359 359 359 358 359 359 358 359
345 337 323 319 320 321 327 331 333 329 331 332 333 327 331 340 345 346 348 350 348 350 355 357 365 365 363 362 362 363 362 362 362 362 362 361 360 360 360 360 359 359 359 358 358 357 357 359 359
333 334 319 316 318 324 329 333 332 331 332 332 330 330 330 342 343 345 347 348 352 354 357 358 364 365 365 363 363 363 363 362 362 362 361 360 360 360 359 360 359 359 359 358 358 356 357 357 357
329 327 320 321 321 322 328 335 332 331 330 330 335 327 331 338 343 344 346 348 352 355 354 355 357 360 364 363 363 362 363 363 362 362 361 360 360 360 360 360 360 358 358 358 357 356 356 356 356
335 330 322 320 320 318 327 333 336 332 331 339 338 326 325 336 342 344 346 346 350 352 354 352 353 355 355 357 364 363 363 363 362 363 362 361 361 360 359 362 361 358 358 358 357 357 357 356 357
338 320 319 322 318 321 330 329 337 339 334 336 338 335 336 341 341 341 341 344 348 350 350 351 352 352 353 354 359 363 363 363 362 361 361 359 350 351 353 358 360 358 358 358 358 358 358 357 358
328 317 322 328 327 327 330 330 333 333 331 332 334 337 339 340 338 337 337 340 342 344 345 350 351 351 353 357 355 353 356 354 353 355 353 349 349 349 352 357 360 358 358 356 357 358 358 354 348
326 320 327 329 332 335 332 333 337 333 328 332 331 334 337 337 336 337 337 339 341 344 344 347 350 351 351 353 352 352 352 351 350 349 349 349 349 349 351 349 349 349 354 349 347 347 347 347 347
316 324 327 328 335 335 332 334 330 334 334 338 337 337 336 336 333 335 335 338 342 343 342 346 351 349 345 350 352 352 351 350 350 350 349 343 342 346 345 347 347 345 347 347 345 344 346 345 346
317 321 325 328 335 336 335 327 330 331 338 340 339 337 335 335 335 336 336 338 342 340 342 344 349 347 345 350 349 349 348 350 347 348 349 343 342 344 348 346 345 346 349 346 344 344 344 344 346
320 320 319 321 334 335 330 329 329 333 339 337 337 335 335 336 335 334 334 335 339 340 342 345 345 346 346 347 346 346 346 347 349 344 347 347 348 345 345 343 339 341 346 345 345 343 345 343 344
318 310 310 328 332 329 331 325 327 335 339 335 334 334 335 335 336 333 334 333 337 341 343 342 343 345 345 345 345 346 346 350 347 342 341 347 350 349 343 344 344 344 344 346 344 346 346 343 342
307 303 298 313 330 331 328 319 330 337 336 332 333 333 334 334 335 335 332 336 340 341 340 344 347 347 345 346 348 345 344 348 350 346 347 349 352 349 346 343 343 346 345 344 340 344 346 340 341
301 297 300 303 326 328 325 322 328 335 335 332 332 332 333 333 333 336 332 338 339 337 342 341 346 343 343 348 345 344 345 348 350 351 350 350 351 351 347 345 345 344 345 346 338 342 339 338 339
296 297 297 299 306 324 321 323 328 334 333 332 332 332 331 333 333 335 334 339 338 338 340 341 344 342 343 346 345 345 345 347 350 350 350 352 351 351 348 346 346 347 342 344 343 338 338 337 337
301 299 299 304 308 305 321 323 326 329 329 331 331 331 331 332 336 335 334 339 338 338 336 339 341 340 343 344 342 341 342 345 350 350 352 353 352 349 346 348 349 348 340 340 341 342 333 335 337
302 299 298 303 307 317 320 320 324 327 329 331 332 332 332 332 334 336 332 337 337 337 337 338 342 341 344 344 343 343 342 343 350 350 353 353 352 344 346 347 348 344 340 343 342 338 333 333 333
300 297 299 299 312 319 318 314 316 322 329 332 335 334 334 332 333 334 332 337 337 336 338 340 343 342 345 345 345 344 345 344 344 344 347 353 354 350 352 349 349 346 345 343 341 339 335 330 334
293 302 303 301 296 291 310 303 314 318 322 329 331 330 332 333 335 336 332 333 336 336 340 342 344 343 346 344 342 342 343 340 341 343 346 350 355 353 352 350 351 347 346 345 345 346 336 333 332
301 305 301 300 294 291 295 292 300 317 316 323 329 329 332 333 335 336 332 333 337 338 338 344 345 344 346 345 341 343 339 340 343 344 346 349 350 353 353 352 351 350 345 344 346 347 343 336 337
306 300 297 294 292 287 291 292 296 309 315 320 329 331 332 331 334 336 337 334 335 339 338 345 344 343 345 345 340 340 340 339 343 344 347 348 349 351 352 353 352 349 347 346 346 347 346 346 344
299 292 286 286 285 285 291 291 293 313 319 320 325 330 332 331 333 335 334 333 334 336 338 342 344 342 343 344 345 340 342 339 342 343 347 347 348 350 351 354 350 349 350 350 349 348 347 346 344
296 292 287 282 283 286 293 288 295 309 322 323 324 329 332 330 331 333 334 333 335 336 338 340 343 342 343 344 344 345 342 342 342 345 347 348 350 352 353 355 351 351 351 351 350 348 349 350 347
296 292 295 288 286 286 290 295 301 303 313 322 321 325 329 332 333 334 337 335 336 337 337 340 342 342 342 342 342 343 347 342 342 345 347 349 349 350 351 354 351 352 351 351 349 347 346 349 348
293 296 290 287 283 282 288 290 293 299 307 316 320 322 326 333 333 335 337 339 339 338 339 340 342 342 344 343 342 342 343 347 341 344 344 348 347 348 349 354 351 350 352 351 350 347 347 347 346
291 289 288 288 288 284 283 288 299 303 310 313 319 324 325 331 333 335 338 339 339 338 339 341 341 341 344 345 343 341 341 344 344 342 344 345 345 347 349 354 352 352 352 350 349 347 346 347 346
293 289 286 283 283 287 288 290 304 308 311 318 322 322 326 331 334 335 337 338 338 336 336 340 342 342 342 346 345 342 340 342 345 345 342 344 345 348 352 354 353 353 354 350 349 347 348 348 346

GFSSGP_sfc_thetae_075.txt.gz
Theta_e
352 350 346 336 318 321 312 315 327 325 323 328 328 328 326 330 325 312 336 342 343 344 352 356 362 361 361 362 362 361 361 359 360 362 360 361 359 358 357 359 358 357 359 358 359 360 361 361 362
349 346 340 334 320 312 314 324 323 326 329 329 334 333 329 325 335 334 337 344 343 349 352 356 363 362 361 362 362 362 361 360 361 361 360 359 360 359 357 358 359 358 358 359 359 359 359 360 360
348 345 333 326 320 312 313 323 327 330 333 333 331 334 330 328 335 334 343 344 345 350 353 356 362 362 362 363 362 362 361 361 361 361 360 361 360 359 359 359 358 359 359 358 359 358 359 359 359
339 338 335 320 316 321 321 327 331 330 333 333 331 326 334 340 336 342 346 346 348 351 353 360 362 362 361 361 362 362 361 361 361 360 359 360 359 359 359 358 358 358 357 358 359 358 358 359 359
343 337 322 318 320 321 327 331 332 328 331 330 332 327 329 338 344 345 345 347 348 348 353 357 363 362 362 363 362 362 361 361 361 361 360 359 359 360 359 359 359 358 357 357 357 357 358 358 358
331 333 318 315 318 323 328 333 332 330 331 331 329 328 330 341 342 345 347 347 349 351 354 356 362 363 362 362 362 361 361 361 361 361 360 359 360 360 360 359 358 359 357 356 356 357 357 357 359
329 326 319 318 320 323 326 335 330 330 329 329 333 325 332 337 344 346 347 350 351 355 354 355 356 359 363 362 362 362 361 362 361 361 360 359 359 358 360 359 359 358 357 357 356 357 357 357 357
334 328 320 318 320 319 328 332 336 332 330 337 335 324 326 337 343 345 347 350 351 352 353 352 353 354 354 356 362 362 362 362 361 360 359 359 359 359 359 361 360 358 357 357 357 357 357 356 358
337 322 318 320 320 322 330 330 336 339 333 334 337 332 337 341 343 342 343 346 348 350 349 350 351 352 352 354 357 362 362 362 361 358 360 358 350 350 351 358 359 359 358 357 357 356 356 357 359
327 318 322 328 326 326 330 332 330 333 331 331 331 335 339 340 339 338 339 339 343 346 347 349 350 350 351 357 354 353 355 353 353 352 349 348 348 348 352 356 358 358 359 358 357 357 357 353 347
326 320 327 329 332 330 329 331 334 331 327 331 327 332 335 337 337 337 338 340 341 345 349 348 349 350 351 352 351 351 351 351 350 350 348 346 347 349 350 349 348 349 352 346 348 347 347 346 345
317 324 328 327 334 333 330 330 329 331 334 339 333 336 334 334 335 335 336 339 341 341 346 348 349 349 347 350 350 349 349 348 347 346 347 344 343 344 345 346 345 346 345 344 343 343 343 344 345
317 320 322 325 327 335 332 326 326 328 336 340 337 336 334 334 335 337 338 339 342 339 341 346 348 346 345 349 348 349 348 349 348 347 346 342 343 343 344 345 342 343 345 344 342 342 342 343 343
320 319 319 318 331 331 327 328 328 333 339 338 336 334 334 333 335 335 336 338 341 340 339 344 346 345 345 347 347 347 346 348 346 346 345 342 342 344 345 343 341 342 343 344 343 342 343 342 340
318 313 310 329 332 329 328 321 326 335 338 336 334 333 334 335 334 334 336 338 340 340 340 342 344 344 344 346 347 346 346 348 346 343 345 346 347 344 344 342 338 340 343 343 343 343 344 342 341
304 302 298 324 328 328 326 317 329 335 334 333 333 333 333 334 333 335 335 338 340 340 340 342 347 344 343 344 344 344 345 347 346 342 342 347 349 349 342 343 342 342 342 342 340 342 341 339 339
299 296 299 302 327 327 324 318 328 336 332 331 331 332 333 333 334 334 335 336 339 340 340 340 342 343 342 344 344 342 344 346 346 344 344 347 351 348 344 342 343 344 343 340 338 341 338 336 337
295 295 295 298 320 324 322 320 328 332 332 330 331 331 331 332 333 332 334 335 339 340 341 342 344 341 344 344 342 341 343 346 347 347 347 348 350 349 345 342 343 345 342 342 337 338 337 336 336
301 298 297 301 306 302 318 320 324 329 329 329 329 330 330 331 334 332 334 337 339 339 340 341 341 339 342 340 340 340 340 343 346 348 349 351 350 349 345 345 347 344 337 340 338 337 333 334 334
301 298 296 301 310 309 318 318 324 329 328 331 331 329 330 331 332 330 334 336 336 338 339 341 341 339 342 341 341 341 342 343 344 346 349 351 350 346 346 346 346 343 337 342 341 335 332 332 333
298 296 297 298 306 319 317 317 320 325 328 331 333 334 332 331 332 329 333 334 335 337 338 341 340 340 342 341 342 342 343 343 343 343 347 350 350 344 347 346 347 342 340 342 338 336 331 329 332
293 302 302 300 294 290 311 303 315 318 321 326 330 332 332 331 333 332 331 333 334 335 338 342 341 341 341 341 341 340 339 338 341 342 343 349 353 348 348 348 348 345 344 341 340 341 334 330 329
300 304 300 298 293 290 294 293 302 316 315 322 328 331 333 334 334 333 330 334 335 336 336 338 341 340 342 342 341 340 339 340 340 342 342 345 349 350 351 349 349 345 344 343 344 343 337 334 333
305 300 295 292 290 285 290 290 292 308 315 319 327 331 334 332 334 335 332 335 335 336 337 339 340 340 342 341 339 340 339 338 339 340 341 343 346 349 350 350 348 348 345 344 344 344 343 341 340
296 291 285 284 284 284 288 289 293 310 317 319 323 329 333 332 333 334 331 331 334 334 336 339 340 339 342 341 339 339 340 339 339 340 341 343 344 346 349 349 348 346 346 346 344 345 343 343 342
293 291 286 281 282 285 289 287 294 300 306 319 324 328 332 333 334 333 334 331 333 335 335 340 340 339 341 342 341 339 338 340 340 342 343 345 347 348 350 351 350 349 347 348 346 346 346 346 343
292 289 291 286 284 286 287 292 298 308 313 316 319 324 330 333 333 334 335 332 332 335 335 339 340 340 341 342 342 341 339 338 339 343 344 345 346 350 350 353 350 349 349 348 347 346 345 346 345
291 293 287 286 282 281 286 288 293 302 307 315 318 320 326 332 331 332 335 332 333 334 336 337 341 340 341 342 342 342 343 342 339 340 344 345 345 346 348 352 349 348 349 348 347 345 345 345 345
289 287 285 285 285 282 283 287 300 303 307 315 319 321 322 329 330 332 335 335 335 335 336 337 338 340 340 341 342 341 341 342 342 340 341 343 346 345 346 350 350 346 348 349 347 345 345 345 344
292 286 284 281 281 283 285 288 297 299 308 316 320 322 324 329 331 333 335 336 334 335 336 336 338 339 340 342 341 340 340 341 342 342 341 341 342 344 347 347 350 349 349 349 347 346 348 344 344

GFSSGP_sfc_thetae_078.txt.gz
Theta_e
351 349 344 336 319 321 313 314 325 324 323 327 326 325 322 327 322 311 333 336 342 344 351 356 362 360 360 361 362 360 358 358 361 360 360 359 357 357 358 357 357 359 359 361 360 361 361 361 362
349 346 339 334 319 311 314 323 321 326 327 327 332 331 328 325 334 331 333 341 343 349 352 355 362 361 361 361 361 360 359 360 360 359 360 359 359 357 360 359 359 358 359 360 360 360 360 361 361
348 344 332 326 320 310 313 323 326 328 329 332 330 333 330 327 333 331 340 341 348 350 352 355 362 361 361 361 361 360 359 360 360 359 359 358 359 358 357 359 358 358 359 360 359 359 359 358 359
338 334 333 320 314 321 321 327 329 328 332 333 332 326 333 338 332 339 341 346 348 351 354 360 361 361 362 361 361 360 359 360 359 359 359 359 359 359 359 359 358 358 358 358 359 359 359 358 358
340 335 322 318 320 323 326 331 332 329 330 330 332 325 328 337 343 342 341 347 348 349 353 356 363 361 360 360 361 360 360 360 358 359 359 359 359 359 358 358 358 357 357 358 357 358 358 358 359
332 332 318 315 318 323 329 333 332 330 331 330 328 327 329 340 340 341 344 347 350 350 353 355 361 361 361 361 361 361 360 359 359 359 358 358 358 358 359 358 357 356 356 356 357 358 357 358 360
329 326 318 316 319 323 326 334 331 330 329 328 333 325 332 337 341 344 346 347 350 353 352 354 356 358 362 361 361 361 360 361 360 360 358 358 359 357 357 357 358 356 354 356 358 357 358 359 359
334 326 319 318 318 319 329 333 335 332 329 336 335 323 325 337 344 346 347 349 351 351 353 352 354 356 354 356 361 361 361 360 359 359 359 359 358 357 356 359 360 356 356 357 357 357 357 359 360
337 319 317 320 320 322 330 331 336 338 332 333 336 331 336 342 344 344 344 346 348 350 349 350 351 352 353 355 358 361 362 360 359 358 359 356 351 353 356 357 359 357 356 357 357 356 356 359 360
328 319 320 326 327 326 330 328 331 328 330 328 332 337 340 341 341 338 338 337 340 345 348 349 350 351 352 357 354 354 356 355 354 353 350 350 350 351 354 357 359 358 357 356 355 356 357 353 352
328 321 327 328 330 332 330 327 333 330 327 329 329 333 337 338 338 337 338 338 339 345 349 348 349 350 352 352 352 352 352 352 352 350 349 349 349 351 350 352 351 352 354 351 350 349 350 349 348
320 324 327 328 333 331 329 332 330 332 333 337 335 336 337 336 336 337 337 338 341 343 347 348 349 349 350 352 350 350 350 350 349 349 349 347 347 349 349 349 350 349 348 345 347 347 348 348 349
317 321 322 325 327 331 330 328 328 331 338 336 337 336 335 335 336 338 339 341 342 342 345 346 348 348 348 350 349 350 350 349 349 348 349 347 346 346 347 348 346 347 349 346 347 347 346 348 347
318 319 318 318 323 330 325 325 329 329 339 333 334 332 334 334 335 335 336 338 339 340 340 345 347 346 347 348 348 348 349 350 350 349 348 346 346 346 348 346 345 346 349 348 348 347 348 346 344
315 311 314 329 329 327 328 321 324 333 338 332 331 332 333 334 335 335 336 338 340 338 339 342 345 345 345 347 348 348 348 350 348 348 348 346 346 347 348 347 344 345 348 347 348 347 348 345 345
303 301 298 325 327 328 324 314 330 335 337 332 331 332 331 333 335 336 337 339 340 338 338 342 349 344 344 346 347 347 348 349 348 346 347 348 350 349 347 346 345 346 348 347 345 347 347 344 343
299 296 298 303 326 325 322 316 328 335 335 331 330 331 331 331 333 335 337 339 340 339 339 341 345 343 343 345 346 345 348 347 349 346 344 349 351 351 346 347 347 349 349 345 344 346 344 342 343
295 295 295 297 321 323 319 318 326 333 330 331 331 330 331 331 330 334 335 339 340 340 340 342 343 343 343 344 344 344 345 347 348 347 346 350 351 350 348 348 349 349 348 346 343 345 341 342 342
300 298 297 300 303 301 312 316 324 330 329 330 330 329 330 331 334 333 334 337 339 340 339 340 341 342 342 341 340 340 341 345 349 349 350 351 352 350 347 347 346 349 347 346 344 342 341 340 340
301 298 297 302 309 307 314 314 323 326 326 330 330 330 330 331 331 330 333 334 336 338 339 340 342 340 343 343 342 343 344 346 349 350 351 353 353 350 349 349 350 348 343 347 346 343 338 338 339
297 296 296 300 302 318 314 314 320 326 328 330 332 333 331 331 330 329 330 332 336 337 339 340 341 341 344 343 343 343 345 345 346 347 349 352 353 350 349 349 350 347 345 345 346 342 341 338 339
291 301 302 300 293 289 309 296 310 319 322 326 328 331 330 330 333 329 331 332 335 337 340 341 342 341 343 342 342 342 341 341 344 346 348 352 354 350 348 351 351 349 346 347 345 344 341 340 338
299 302 300 298 292 289 294 295 301 314 313 319 325 330 333 333 332 329 331 334 335 337 339 341 342 341 343 342 343 342 341 342 344 345 346 349 352 352 351 352 352 350 349 349 349 347 344 341 341
303 296 293 290 288 285 288 291 291 307 313 316 323 327 333 334 334 332 332 335 334 337 338 341 341 340 342 343 340 341 341 341 341 342 344 345 349 352 352 352 351 351 348 349 350 351 347 346 345
295 290 283 283 283 284 287 289 292 298 306 314 317 326 333 336 335 333 329 332 334 334 336 338 340 339 341 341 340 341 342 342 342 343 343 344 347 349 352 353 352 351 349 350 350 350 350 349 348
291 290 285 280 281 285 289 287 295 307 313 319 321 324 331 335 335 335 332 332 333 334 335 336 338 339 340 342 340 340 341 342 342 344 345 345 347 350 353 353 353 352 352 351 350 349 349 350 349
291 287 290 285 283 285 287 294 299 303 309 317 320 321 326 333 335 334 336 331 334 334 335 336 337 338 340 342 341 339 340 341 341 344 346 347 349 351 352 354 354 351 350 352 352 350 349 352 352
291 291 287 286 282 281 285 289 290 293 296 306 317 319 322 326 333 334 335 332 333 335 335 337 339 338 339 342 342 341 340 341 342 343 345 347 349 350 353 354 355 353 351 350 351 350 351 350 350
287 285 285 285 284 282 282 286 294 294 300 301 315 320 324 325 332 333 335 334 333 335 336 336 339 339 339 341 342 342 342 341 340 341 344 347 349 349 350 352 354 354 350 351 350 350 351 349 350
288 285 283 283 282 281 284 285 295 302 308 312 317 321 325 328 329 332 334 334 334 333 335 335 337 340 340 341 342 342 343 343 342 341 342 345 347 349 350 351 353 353 352 352 352 349 352 349 349

GFSSGP_sfc_thetae_081.txt.gz
Theta_e
352 350 346 340 323 322 316 316 326 324 325 330 329 326 324 326 324 320 340 340 347 350 356 357 363 361 362 361 360 359 359 361 361 361 359 358 357 358 357 359 360 360 361 360 362 362 362 362 362
350 345 342 334 318 312 315 324 323 328 330 331 333 330 329 325 335 333 334 343 349 351 354 356 363 362 362 363 361 359 360 361 360 361 360 361 358 360 358 359 359 359 361 360 361 361 361 363 362
347 346 336 328 321 312 316 324 328 328 330 331 331 335 332 329 333 333 340 346 350 353 355 358 362 362 362 361 361 360 361 360 360 360 359 359 358 358 359 358 359 360 360 360 361 361 360 359 358
342 341 338 322 316 322 322 328 328 329 334 335 333 328 335 339 334 340 343 348 349 353 355 361 361 362 362 362 362 361 361 360 360 359 359 359 359 359 359 359 359 359 359 360 359 360 358 358 357
345 340 326 322 321 324 328 332 331 329 331 331 333 326 326 339 344 341 345 347 348 351 356 358 363 362 362 363 360 361 361 358 358 359 359 359 359 359 359 359 357 359 358 359 359 359 358 356 357
336 336 320 317 319 327 330 334 334 332 332 331 328 328 331 343 339 340 346 348 350 352 355 358 362 361 360 361 361 360 361 359 359 358 359 359 358 358 357 358 357 358 358 359 359 359 357 359 359
332 327 319 317 321 323 327 336 332 331 331 329 333 327 333 337 339 343 347 350 351 354 356 359 357 361 361 361 361 361 360 361 360 360 359 359 358 359 357 357 357 356 357 359 359 359 359 361 360
337 331 321 321 320 320 330 334 336 334 330 338 337 326 326 336 342 345 348 350 352 355 355 356 360 360 360 361 361 361 361 360 359 359 359 359 358 357 358 358 359 357 358 358 358 358 360 359 358
339 325 320 321 321 323 331 330 335 337 333 333 335 334 337 341 343 343 345 348 351 352 355 356 357 360 362 362 361 362 361 361 359 360 360 359 358 358 357 358 359 357 358 358 357 357 360 359 360
331 320 323 328 328 327 329 331 332 329 330 330 332 338 339 341 340 339 341 341 346 348 352 356 359 357 359 357 362 362 361 360 360 360 361 358 359 359 357 359 358 358 358 357 357 358 358 357 357
331 324 328 329 332 334 329 328 334 330 328 331 330 332 337 338 338 338 340 343 343 348 351 355 358 358 357 359 358 358 359 358 359 360 358 358 357 359 360 359 356 356 357 354 355 355 355 354 355
324 328 329 331 335 333 330 332 331 331 333 337 337 337 337 336 337 338 340 342 342 347 350 354 356 358 360 358 355 357 356 357 355 358 360 357 354 357 357 356 354 355 353 352 355 354 357 357 357
323 326 326 328 333 334 334 330 330 331 336 338 337 338 336 337 338 342 343 343 344 346 350 353 356 358 360 360 358 357 356 356 356 357 358 356 354 355 355 356 354 355 355 354 356 355 356 356 355
321 323 322 323 322 332 328 329 330 334 336 335 336 336 337 338 340 341 342 341 344 346 349 353 355 357 359 358 359 357 356 356 358 357 358 357 355 356 353 353 352 356 359 358 358 356 355 354 354
319 314 325 330 330 329 330 323 324 336 334 333 334 336 338 339 341 340 341 340 343 347 350 351 354 355 358 358 357 356 355 357 358 358 359 357 357 358 359 356 353 356 359 359 360 359 358 353 353
310 310 308 328 331 330 329 319 330 336 331 332 333 335 336 338 339 341 342 341 344 346 348 352 351 353 356 357 357 355 356 357 359 359 358 357 358 358 360 357 353 355 359 357 358 357 353 352 352
308 308 305 319 330 329 326 320 333 337 332 331 331 333 334 337 340 342 343 343 343 346 347 350 352 352 353 356 356 356 357 359 360 358 357 358 359 360 358 357 356 358 356 355 356 354 354 351 352
306 305 305 312 326 326 324 323 331 335 335 331 332 332 333 335 338 342 344 344 345 346 346 350 352 353 355 355 355 354 355 356 358 357 356 358 361 360 357 358 358 360 355 354 352 355 352 353 353
307 306 305 306 313 314 314 317 325 333 330 331 331 332 333 334 339 342 343 344 343 345 345 348 351 354 353 351 349 351 351 354 356 358 359 359 360 360 360 356 358 359 357 357 354 353 352 350 353
308 306 305 307 318 311 320 320 326 330 331 331 333 331 335 335 337 339 341 343 342 343 346 348 351 354 354 352 353 354 354 355 358 359 359 358 360 361 359 359 358 359 355 357 356 353 348 351 353
307 307 305 304 306 323 320 318 322 329 333 334 336 336 335 336 337 338 339 341 343 344 345 348 352 354 355 356 354 354 355 356 355 356 357 359 361 361 361 360 360 359 357 353 356 353 351 346 349
306 308 308 305 304 300 318 303 318 322 326 330 334 336 336 337 339 340 339 339 341 344 347 350 352 353 354 356 354 354 350 348 352 355 358 359 362 360 357 360 361 360 355 357 355 352 351 352 345
306 308 307 306 304 301 306 306 304 322 319 325 329 333 335 337 338 339 340 340 341 344 346 348 352 353 356 355 357 353 355 352 355 355 358 361 363 362 358 359 362 360 358 359 359 356 355 351 348
308 304 302 302 301 297 301 304 305 309 312 318 325 331 335 337 337 340 342 342 342 344 345 347 350 352 354 355 355 356 357 355 353 355 354 355 358 360 362 360 361 362 360 359 359 361 357 355 355
306 303 295 295 294 295 298 302 306 312 316 321 323 326 330 338 340 339 339 340 342 342 344 345 349 350 352 353 353 354 356 358 357 356 354 356 354 355 361 363 362 360 362 361 361 362 361 359 356
304 304 297 291 292 295 298 298 302 306 312 317 326 328 331 334 339 341 340 340 342 342 344 345 347 351 351 352 355 356 356 353 354 357 354 354 355 356 362 364 364 363 362 361 361 358 357 360 358
299 299 301 296 295 297 297 302 307 309 314 319 324 327 329 331 338 341 342 340 342 343 344 346 348 350 350 350 353 354 355 354 354 357 359 356 360 357 361 362 363 364 363 363 362 357 358 360 360
300 299 297 299 292 291 295 296 297 306 312 318 319 322 328 333 333 340 343 341 341 343 344 345 347 348 351 350 352 352 351 354 355 356 357 358 359 361 360 361 362 362 363 362 362 359 360 361 358
297 297 296 299 295 294 293 294 304 310 314 312 316 323 326 334 333 338 343 344 343 343 343 343 345 346 348 349 353 352 351 351 353 352 354 358 359 361 361 362 362 362 362 363 363 362 360 359 359
295 293 294 297 293 295 298 293 310 313 314 314 316 322 325 330 336 339 340 343 341 342 343 342 344 344 346 349 350 351 352 352 350 351 353 356 358 360 361 362 362 362 362 363 361 360 359 359 358

GFSSGP_sfc_thetae_084.txt.gz
Theta_e
353 349 350 341 325 324 322 320 329 326 328 334 333 328 326 329 327 324 343 347 352 353 356 359 364 363 360 360 359 360 363 361 363 359 358 357 357 357 359 360 361 361 361 363 363 362 363 362 363
348 345 347 335 320 318 322 328 326 329 334 335 333 331 329 331 338 337 339 348 352 354 354 356 363 364 361 361 360 360 362 361 362 361 362 359 361 359 358 360 360 360 362 362 362 362 362 361 362
349 349 339 332 321 320 321 329 330 331 335 334 333 338 335 333 337 337 344 350 353 353 355 360 362 363 363 362 361 362 362 361 361 361 360 359 360 360 359 360 359 360 361 361 362 361 359 359 360
346 345 342 327 320 325 327 331 331 331 336 337 336 332 337 341 336 340 347 349 351 353 355 361 362 363 362 362 361 362 361 361 361 360 360 360 360 360 359 358 360 361 360 360 360 360 357 357 360
348 344 329 325 324 327 334 333 335 332 334 335 336 329 331 338 343 344 347 349 350 351 355 359 365 363 363 362 362 361 360 359 360 359 360 359 360 359 358 359 359 359 360 360 360 359 357 358 359
339 338 327 319 323 329 334 336 334 334 335 332 333 332 333 343 340 344 348 349 350 351 353 358 362 363 363 363 361 362 359 360 360 359 360 359 359 358 358 359 359 359 360 360 359 358 358 360 361
333 333 324 324 323 327 330 337 334 334 334 332 335 330 336 337 341 345 348 350 351 352 353 358 358 361 361 362 361 361 360 360 360 360 360 359 359 359 358 357 358 359 360 359 360 360 362 360 361
339 336 324 325 324 325 333 334 336 336 333 339 340 329 329 337 343 346 348 349 351 352 354 355 356 359 360 359 360 361 359 359 360 360 360 359 359 359 358 360 360 360 359 359 359 359 360 361 360
341 331 321 323 324 327 335 330 335 338 335 335 338 337 337 340 344 345 345 347 349 351 352 353 357 360 362 360 361 361 361 360 360 361 359 359 355 356 357 360 359 360 360 358 357 362 362 362 360
333 332 324 330 332 331 333 331 330 332 332 332 336 339 339 339 342 341 341 342 346 347 349 353 356 357 358 355 362 363 360 357 356 356 359 357 357 359 356 358 360 360 359 358 360 358 358 359 355
333 325 330 331 333 335 333 331 333 329 330 335 333 335 336 338 340 340 341 343 344 347 349 354 356 358 356 356 355 357 355 355 358 359 358 357 356 357 353 354 356 357 359 355 358 357 356 357 353
328 332 331 333 334 332 331 334 330 333 336 340 338 338 337 337 338 340 341 343 344 346 350 353 355 357 356 354 354 354 352 352 352 356 359 358 354 353 352 352 356 356 354 356 358 355 359 359 358
330 329 329 328 333 333 336 332 332 333 338 340 339 338 337 338 339 341 342 344 344 346 349 351 356 359 357 358 354 355 353 351 353 354 357 355 353 354 353 353 353 354 355 355 356 357 358 358 356
328 328 325 326 324 333 332 332 333 334 338 336 336 336 337 337 338 341 342 342 343 347 349 353 355 359 358 358 361 363 356 355 353 353 356 359 355 356 354 355 355 356 358 357 357 358 356 355 355
325 321 326 327 329 330 334 327 330 336 336 333 334 336 337 338 340 341 342 341 344 347 350 352 354 356 358 360 362 364 356 355 355 355 360 360 360 361 359 355 356 356 360 363 361 361 357 352 352
320 320 316 328 333 332 332 322 334 336 334 332 333 335 337 339 340 342 342 341 345 347 350 353 351 353 355 356 359 357 356 356 357 356 358 360 361 362 363 356 355 358 360 359 358 358 351 351 351
318 313 313 324 333 331 330 326 331 335 333 333 334 336 337 339 339 341 342 342 343 347 351 352 353 352 356 360 358 358 361 360 362 359 357 361 361 363 361 356 357 361 357 357 356 355 355 350 350
313 315 314 319 327 329 325 327 333 335 335 334 334 336 337 335 336 343 344 344 343 346 350 353 353 354 358 358 360 356 357 359 361 359 358 363 362 361 361 359 360 358 355 355 355 356 355 353 352
317 315 314 322 327 321 319 324 332 336 335 333 333 335 335 333 339 345 346 345 343 345 347 352 353 356 356 354 352 354 353 357 357 359 361 361 362 363 364 358 357 359 356 359 358 356 354 349 355
315 313 310 315 317 315 317 317 331 333 332 336 336 334 334 334 339 343 345 346 344 344 345 350 354 357 356 353 355 356 357 357 358 359 363 362 362 362 362 362 356 359 355 360 360 358 350 350 353
314 313 311 311 313 319 320 318 322 330 331 334 334 338 337 334 336 342 344 345 346 342 347 350 355 357 358 359 358 360 361 362 359 359 359 360 363 363 363 362 363 362 359 353 360 358 355 346 353
309 316 312 310 309 309 320 311 321 324 326 331 333 335 338 339 337 340 344 345 345 345 347 351 355 357 358 361 359 360 352 349 352 355 357 361 364 363 363 364 364 365 359 360 359 357 356 355 344
310 316 314 311 309 307 310 310 318 323 322 328 331 335 337 339 340 340 343 345 347 348 347 349 355 359 359 361 362 356 357 352 354 353 361 364 365 365 360 363 364 364 359 362 360 360 359 352 349
314 312 311 312 310 302 308 310 310 316 319 323 327 332 337 341 342 343 345 347 347 348 349 350 354 359 360 361 361 361 359 357 353 355 355 355 357 360 364 364 365 365 362 362 361 363 362 359 356
312 308 301 301 300 300 309 308 312 316 317 323 327 330 333 341 340 343 345 345 346 346 348 350 354 357 359 359 359 361 361 361 361 357 354 356 354 355 365 366 368 361 363 363 363 361 360 360 356
309 308 302 296 298 301 307 305 306 316 322 328 331 333 335 337 343 342 342 346 346 347 349 351 352 356 358 358 359 361 363 357 357 357 352 354 354 356 361 366 363 362 363 364 364 357 356 360 356
308 305 309 303 306 302 304 307 312 317 321 325 328 330 335 336 339 342 345 346 346 348 350 352 354 356 357 357 359 360 361 361 356 358 359 355 359 356 362 364 360 362 364 366 366 357 361 361 361
308 311 302 303 298 297 301 304 305 313 317 321 322 325 331 339 338 341 346 347 348 348 350 353 354 355 357 357 357 358 359 361 361 360 359 359 357 361 361 364 364 361 364 365 366 360 363 361 356
303 304 305 306 304 299 298 301 312 315 316 317 321 323 326 330 339 342 346 346 349 349 350 350 352 354 356 357 356 357 357 358 360 358 358 359 360 362 365 365 365 361 362 365 366 363 361 359 359
302 304 305 301 301 304 303 300 315 319 318 320 322 321 323 326 333 330 334 341 347 347 348 349 350 351 354 356 357 357 358 358 356 357 357 359 360 360 363 366 366 364 362 364 365 361 357 360 359

GFSSGP_sfc_thetae_087.txt.gz
Theta_e
352 349 349 341 329 326 319 323 329 328 327 333 332 329 329 335 330 323 347 351 352 351 355 359 363 361 360 359 362 362 361 363 360 358 356 357 357 360 360 362 362 362 363 363 363 362 362 362 361
350 345 347 337 326 317 320 329 325 330 333 335 332 331 333 331 338 338 342 351 351 351 353 358 364 362 361 359 360 362 361 361 362 360 360 360 359 358 358 361 360 362 362 362 362 361 362 363 362
354 347 338 328 325 318 321 330 328 333 335 333 332 339 337 331 338 341 348 351 350 350 353 359 363 363 361 360 361 362 361 362 361 360 359 361 360 360 360 359 359 362 362 362 360 360 359 361 361
345 343 340 324 322 326 328 328 333 332 335 337 337 333 338 342 339 345 349 351 349 350 353 361 363 362 362 362 362 362 361 362 360 359 360 360 360 360 359 360 360 361 360 359 360 359 360 360 360
344 341 330 325 325 329 331 334 335 330 333 333 336 332 331 338 344 348 349 349 348 350 354 359 365 363 362 361 362 362 361 361 361 361 360 360 360 359 360 360 360 361 361 360 360 357 360 361 361
337 342 326 322 325 330 335 337 334 333 336 335 335 332 333 342 343 346 348 348 348 349 355 358 362 363 362 361 362 360 360 361 360 360 360 359 359 359 361 360 360 360 360 358 359 359 361 362 361
334 333 324 325 325 328 332 339 334 333 332 333 339 331 336 338 344 346 348 349 347 349 352 357 358 361 363 361 362 361 361 360 360 359 360 359 359 359 360 359 360 360 360 360 360 361 360 361 360
339 338 326 327 325 326 336 335 338 335 333 340 341 329 329 338 345 347 347 347 347 348 351 353 354 357 359 360 361 361 361 361 360 360 360 360 360 359 358 362 361 360 358 358 360 361 361 360 359
343 330 321 323 325 329 337 331 336 340 336 337 341 335 337 342 344 344 344 346 346 347 350 354 354 356 360 358 361 360 359 361 361 359 359 360 357 355 356 362 361 359 358 359 358 361 361 361 359
336 330 323 331 333 333 336 331 333 333 335 335 336 336 339 341 342 340 341 342 344 345 346 351 354 354 357 352 361 361 356 358 356 355 357 361 358 355 353 359 360 360 360 359 359 360 358 358 354
334 326 329 333 336 337 336 332 334 332 330 335 332 334 337 339 340 340 341 342 343 345 348 352 354 357 354 355 354 358 354 351 351 359 360 356 352 353 350 356 356 357 360 354 358 357 355 354 348
329 332 331 332 335 333 332 335 330 332 336 341 339 336 337 337 337 338 339 341 343 346 348 349 352 354 352 352 351 351 349 349 351 355 359 359 351 350 358 354 354 352 354 356 351 353 358 355 353
329 331 330 332 335 334 336 333 332 334 339 343 341 337 336 337 338 339 341 344 345 345 347 350 353 356 355 364 356 353 350 350 352 354 358 358 352 351 351 354 355 355 356 356 359 356 355 354 354
332 332 329 328 330 336 331 332 334 334 340 338 338 335 336 336 337 339 341 342 344 346 347 351 353 355 356 361 363 358 353 351 351 352 355 359 358 361 353 356 354 353 356 353 355 355 354 349 351
330 325 326 327 330 333 335 327 330 336 339 334 334 335 336 336 338 338 341 341 344 346 349 350 352 353 357 358 360 361 351 353 351 355 359 359 359 361 360 358 356 357 358 360 358 355 355 348 352
325 325 318 327 333 334 331 323 332 336 334 331 332 334 334 336 337 340 341 341 345 347 350 351 349 351 355 360 360 362 358 357 358 354 358 360 361 362 365 356 356 355 359 358 361 355 352 351 352
322 317 317 324 332 332 329 326 333 338 334 330 331 333 334 335 338 340 340 341 344 348 351 351 352 351 354 359 359 363 363 362 364 359 359 361 361 360 361 354 357 361 355 356 351 352 351 353 351
313 315 320 319 328 329 324 329 333 336 333 331 331 332 333 333 336 339 339 340 343 348 352 353 351 354 358 356 362 362 357 362 363 359 358 361 360 359 366 361 358 360 354 356 354 362 360 349 352
318 316 315 321 328 324 322 327 332 332 334 333 334 333 333 334 339 339 342 342 341 345 350 353 353 357 356 353 351 358 353 361 364 363 362 362 362 361 364 359 359 358 353 358 357 354 355 348 350
318 316 315 320 326 323 323 323 332 334 333 335 335 333 334 335 335 338 341 341 340 343 347 353 355 358 358 355 359 354 354 357 357 359 361 365 360 361 361 363 357 358 356 360 359 358 355 350 349
317 316 316 315 318 319 319 320 328 331 336 336 336 337 336 334 332 338 341 341 342 343 345 351 355 358 358 362 357 358 361 358 354 356 356 359 361 360 362 361 353 361 362 354 360 358 355 344 345
312 318 316 316 315 311 321 310 322 328 329 334 333 335 336 336 335 340 340 342 342 341 345 351 356 357 357 363 360 365 352 351 352 360 358 359 361 362 361 361 361 364 362 361 359 355 361 357 345
312 319 316 314 313 313 315 312 315 329 327 330 335 337 337 337 337 339 341 342 344 343 345 350 357 360 363 363 366 357 360 352 352 355 361 365 365 362 360 363 363 361 359 363 362 362 361 353 349
317 316 317 315 313 305 311 313 312 320 324 328 332 334 339 340 339 340 343 344 346 344 346 349 356 361 361 361 362 363 360 357 351 355 353 354 356 358 362 362 365 366 363 363 360 363 362 362 361
315 312 305 303 303 302 311 311 312 321 325 327 328 333 337 341 339 342 339 343 346 344 345 348 355 358 360 359 360 361 361 361 360 358 355 350 353 354 365 365 365 361 365 363 364 366 363 360 357
312 311 304 298 300 303 311 308 311 322 328 331 333 335 336 338 342 342 343 344 345 346 346 349 354 359 360 359 363 366 364 358 355 358 360 352 361 355 370 365 363 363 362 362 364 359 356 364 357
311 307 312 306 309 304 308 311 318 324 325 328 327 333 339 337 342 344 347 342 344 347 349 350 355 358 360 360 362 365 365 364 359 367 361 356 361 355 360 362 362 362 363 364 365 358 360 362 360
310 315 306 306 300 299 305 307 309 317 321 322 323 328 335 341 340 344 344 344 343 346 347 350 353 356 360 361 360 360 362 364 363 361 361 362 362 359 353 361 362 362 363 362 365 364 366 362 358
308 307 310 309 307 302 300 305 319 319 322 320 321 323 327 335 340 345 345 342 348 348 347 350 352 355 357 360 361 361 360 361 362 360 360 361 361 362 362 366 362 364 363 364 366 368 363 361 362
309 309 310 304 303 306 304 305 322 321 325 323 321 321 326 330 333 334 338 340 341 344 344 344 348 351 355 359 361 359 360 361 359 361 361 364 364 361 362 362 364 362 362 367 365 360 357 358 358

GFSSGP_sfc_thetae_090.txt.gz
Theta_e
351 348 347 341 325 325 319 322 329 325 325 329 333 332 330 332 327 322 346 348 350 351 354 357 363 362 361 363 361 363 363 360 360 359 359 358 361 360 362 364 363 363 363 363 362 362 361 362 362
348 345 344 339 321 315 318 327 325 329 329 332 335 334 330 327 337 340 342 348 350 349 350 354 363 363 361 362 363 364 362 362 361 361 361 360 360 359 362 362 362 362 364 363 363 363 363 362 361
354 348 334 329 323 318 320 329 329 328 330 332 334 335 331 330 338 341 347 348 347 350 353 357 365 364 361 361 361 362 362 361 361 361 361 361 362 360 359 360 362 362 364 363 361 362 361 361 360
345 344 338 323 319 326 326 330 330 329 332 335 334 328 334 340 340 345 348 347 348 353 356 363 364 363 361 362 361 360 361 361 361 361 361 362 360 361 361 361 362 360 361 361 361 361 361 358 356
344 340 324 320 323 326 331 332 333 329 332 334 331 327 329 340 344 347 347 349 349 351 355 358 365 363 361 361 362 362 362 361 360 362 362 361 360 361 361 361 361 361 361 359 361 360 361 359 357
334 339 321 318 322 329 334 337 333 332 335 332 328 327 330 342 342 345 346 348 350 350 352 356 363 364 363 362 361 361 361 361 362 362 360 361 362 360 360 361 361 361 361 361 360 361 362 359 357
331 331 322 324 325 328 332 339 333 333 333 330 333 325 333 338 342 345 348 349 347 351 353 356 358 362 362 363 361 361 361 360 360 361 360 362 362 360 360 363 360 360 360 360 362 361 361 359 357
336 335 325 326 325 325 335 337 337 335 331 341 337 325 327 337 342 344 345 346 347 348 351 354 355 356 356 357 362 362 361 361 360 361 360 359 360 359 360 363 361 359 360 361 361 360 359 358 357
341 329 322 324 326 328 335 331 337 340 335 338 340 333 336 340 342 342 341 343 346 348 350 352 353 356 360 360 359 360 361 361 361 360 358 358 356 355 357 363 361 360 360 361 360 352 355 356 357
334 328 325 331 333 333 333 332 335 334 334 333 331 335 338 339 340 340 337 341 342 345 348 352 355 355 356 352 360 356 356 356 355 356 354 360 358 355 354 359 361 360 363 361 354 347 343 353 353
333 326 330 332 336 338 334 332 336 333 330 329 328 332 335 336 337 339 337 340 339 345 350 350 357 357 355 355 359 355 357 354 357 358 363 360 351 352 354 358 358 356 360 354 355 348 346 346 350
328 334 332 333 337 335 332 335 332 333 334 338 334 334 335 334 335 337 339 339 345 346 348 349 354 352 357 351 353 354 355 354 350 356 349 362 361 356 348 354 349 345 350 344 352 354 354 356 352
328 331 333 335 334 336 336 331 331 334 340 341 335 335 334 334 335 338 340 341 344 345 346 347 356 361 363 364 360 354 350 354 353 357 361 355 361 354 348 352 346 351 351 350 354 352 353 356 350
330 331 330 332 333 336 332 330 333 335 340 337 334 333 334 334 334 338 339 340 344 346 345 352 353 360 355 368 363 352 351 354 355 355 358 364 363 364 360 359 348 350 350 354 345 355 348 357 354
332 328 328 327 334 332 334 326 329 337 338 336 333 333 333 333 335 335 339 341 343 346 349 352 351 353 359 366 368 367 354 355 354 357 361 360 363 353 347 357 355 350 355 357 351 354 354 357 354
326 325 318 325 333 333 331 321 331 336 334 332 331 332 332 333 334 338 340 341 345 348 350 353 347 350 358 364 368 362 358 357 361 358 362 364 368 366 365 357 353 364 359 359 354 357 353 346 354
322 315 318 321 332 332 330 323 331 336 332 331 330 331 331 333 335 338 339 342 344 351 351 354 352 351 358 365 367 356 360 357 360 355 359 365 366 364 356 354 356 367 360 347 356 345 355 354 350
312 315 318 319 325 326 326 326 330 334 331 330 330 330 331 332 333 337 338 340 344 350 353 358 351 358 364 362 364 360 362 356 363 360 353 370 365 361 354 358 362 353 358 354 354 359 348 354 346
317 317 317 319 329 327 325 325 327 331 330 329 329 330 331 332 337 338 338 339 343 349 352 356 356 360 359 358 354 359 353 363 365 351 355 365 367 360 354 359 364 355 351 359 364 360 358 355 353
316 314 316 318 321 321 325 324 329 331 330 330 331 330 332 332 334 336 337 337 340 347 352 357 359 361 363 359 363 361 357 364 361 360 366 367 365 367 358 352 356 359 354 365 363 360 351 356 345
312 313 317 316 319 320 320 320 324 329 334 334 334 334 334 334 333 336 339 339 340 346 350 355 360 360 362 366 361 348 349 348 350 361 361 363 365 367 366 361 351 359 362 358 364 361 354 347 355
308 317 318 317 310 310 322 311 322 327 328 331 333 333 334 335 336 338 339 339 339 344 349 356 361 359 358 367 367 359 349 346 356 360 354 362 366 366 366 366 356 361 355 352 363 361 349 350 352
311 319 317 317 313 311 312 313 314 313 324 327 333 334 334 335 337 338 340 342 342 345 346 354 359 361 359 363 366 361 358 351 349 353 355 363 366 367 365 367 364 359 360 353 358 363 365 361 353
317 315 317 316 313 305 310 310 314 312 316 328 333 334 336 338 336 339 342 342 343 341 344 352 358 361 364 362 363 360 358 348 353 358 360 358 361 362 367 365 368 367 354 358 358 366 366 365 363
313 310 305 302 302 301 312 309 315 317 320 321 332 335 337 339 339 338 339 341 343 339 345 352 357 358 361 361 361 362 360 361 350 354 348 353 349 356 362 369 371 364 364 364 367 370 364 366 362
310 311 304 298 299 302 310 308 312 318 329 331 334 335 334 333 341 339 340 344 345 345 344 350 356 358 360 361 363 366 366 363 357 360 359 351 357 356 364 364 368 370 367 367 367 365 363 364 363
309 307 313 307 307 303 308 313 319 325 325 328 330 335 337 336 340 343 343 345 346 344 343 349 356 358 360 360 363 365 366 365 359 365 368 366 362 353 356 360 366 369 365 365 368 364 364 364 364
311 314 305 307 299 298 305 308 311 319 320 323 326 327 332 336 341 342 341 343 347 349 346 352 355 358 361 361 362 362 364 366 367 369 360 370 360 350 352 352 352 364 367 364 365 363 362 363 364
308 307 309 309 306 300 300 305 320 321 322 322 324 327 329 330 333 336 339 341 345 343 340 341 347 356 360 361 362 362 362 364 366 365 369 368 371 356 351 338 340 358 365 367 367 362 357 360 360
311 309 309 303 304 306 306 305 320 323 324 324 323 325 328 327 327 332 335 338 338 336 341 343 345 347 355 360 363 363 363 363 363 364 365 369 368 369 363 354 357 362 366 363 362 363 360 359 360

GFSSGP_sfc_thetae_093.txt.gz
Theta_e
349 348 344 338 322 320 318 321 327 324 325 331 333 330 328 331 326 319 344 349 351 353 357 359 364 362 359 359 363 361 359 358 358 358 359 362 362 362 364 363 364 363 364 363 362 362 362 360 361
346 343 343 335 319 313 316 326 322 327 330 330 332 331 330 327 336 338 340 348 351 352 353 356 362 363 363 362 364 363 362 361 362 361 360 360 360 363 363 363 363 364 365 364 363 362 362 361 360
350 348 331 326 320 314 317 329 328 331 335 329 329 333 332 329 337 338 345 347 348 347 353 355 363 363 362 362 362 362 361 360 361 361 361 361 360 360 362 362 362 362 364 364 361 360 360 360 359
345 341 336 320 317 325 326 328 329 329 329 331 331 327 335 341 338 342 345 346 345 349 354 362 362 362 362 362 361 361 361 361 361 361 361 361 360 361 362 362 362 362 361 362 361 360 358 358 359
344 337 323 313 317 327 331 333 333 329 327 327 329 327 330 339 343 344 347 351 350 352 355 358 365 364 361 361 362 362 361 361 361 362 362 361 361 362 362 361 361 361 361 361 361 360 358 357 357
332 335 315 313 322 327 331 335 333 328 327 328 328 328 331 341 341 344 347 347 351 351 355 356 362 363 363 362 362 362 362 361 362 360 361 361 361 361 361 360 361 360 359 361 361 360 359 356 356
329 326 319 321 323 324 328 336 333 327 325 326 332 324 330 338 342 346 346 348 349 351 352 355 356 360 363 361 362 362 361 361 361 361 361 362 360 361 361 360 360 360 361 361 361 359 358 357 357
335 330 323 325 322 322 332 335 335 334 330 333 334 324 324 336 343 344 346 348 348 350 353 352 355 354 354 356 362 361 361 361 361 360 360 361 360 361 360 361 364 360 360 360 359 359 358 355 355
340 324 320 323 323 327 334 328 336 339 335 333 332 332 335 340 343 340 340 344 346 348 348 352 351 352 352 354 358 360 361 361 360 360 359 359 349 351 355 359 361 360 360 361 360 358 357 356 355
332 323 325 332 331 330 332 331 332 333 334 333 330 335 335 340 338 337 336 339 341 343 346 348 350 351 352 354 353 353 354 352 353 353 349 349 349 348 354 356 360 359 359 357 351 350 352 354 351
332 323 331 334 335 334 331 331 335 332 329 328 326 330 333 336 335 336 337 338 341 345 347 349 350 350 348 350 352 350 350 351 348 349 349 347 348 349 350 350 352 350 354 349 342 349 344 343 344
319 330 333 335 337 333 330 336 333 333 332 336 332 332 333 335 333 333 335 340 344 345 347 348 349 351 351 352 352 347 349 349 347 351 349 348 347 336 342 345 347 344 341 343 343 346 347 340 343
327 331 333 337 336 334 334 331 332 332 338 342 333 333 330 334 336 334 341 342 341 341 344 346 347 353 350 348 348 348 348 345 348 348 347 350 349 342 347 347 339 346 346 344 346 345 347 351 343
327 327 331 334 333 334 328 330 331 332 337 338 331 329 329 330 336 337 340 341 341 341 345 345 349 350 351 353 345 347 346 346 348 346 350 351 348 343 346 345 345 346 345 338 346 344 345 346 341
326 321 328 331 332 329 331 326 327 335 337 329 329 329 329 330 336 336 340 342 341 341 345 342 345 347 353 353 353 348 347 349 347 351 350 351 346 348 349 346 344 346 346 348 346 345 349 345 344
323 325 316 329 331 331 329 319 330 335 335 328 329 329 329 331 334 335 338 341 341 343 341 340 349 349 351 350 353 349 349 349 347 349 352 352 350 353 352 349 346 347 349 350 342 349 346 340 340
317 311 316 323 331 328 327 322 331 334 332 329 328 327 328 329 332 335 337 338 342 344 343 341 342 347 351 351 353 351 345 348 350 352 352 351 355 351 351 347 346 352 344 344 346 340 343 343 340
304 310 315 316 324 323 322 322 329 332 331 329 326 326 326 328 328 335 337 339 343 342 342 343 342 349 351 351 349 351 348 349 352 350 352 354 354 350 347 348 351 350 344 345 347 343 342 342 338
311 313 314 317 322 320 322 322 326 329 329 326 326 324 325 327 329 333 338 342 344 342 342 345 343 348 346 349 347 346 344 350 348 349 349 354 350 346 343 348 350 352 345 344 345 348 343 345 342
309 309 314 318 322 321 323 321 326 328 326 327 326 324 326 327 328 330 334 340 342 342 342 348 345 348 344 347 350 349 349 349 350 349 352 354 353 350 352 346 349 347 347 348 349 346 344 343 338
306 303 314 314 319 322 318 315 322 328 329 331 331 330 328 328 328 329 329 338 341 342 344 348 348 347 349 347 347 346 346 341 347 347 351 355 355 354 350 351 346 346 346 345 347 342 339 335 342
297 309 315 316 313 305 318 303 311 322 324 327 328 329 330 330 331 330 329 335 339 342 347 350 349 347 348 351 344 344 335 334 343 348 350 351 353 355 354 346 343 351 346 344 348 351 344 340 338
302 318 318 316 311 312 312 307 313 320 320 323 326 330 330 332 333 331 332 333 340 343 345 350 349 347 344 349 347 342 341 345 343 346 348 352 352 354 356 353 351 348 345 345 346 350 348 349 346
310 311 312 310 307 299 309 310 309 314 320 325 330 331 332 332 333 335 335 335 339 342 345 348 350 348 347 349 349 347 343 342 343 344 347 348 351 352 354 355 352 351 344 342 349 348 350 348 347
306 302 295 297 296 296 305 309 308 319 320 324 325 326 334 334 334 334 336 336 337 338 344 347 349 349 350 349 350 348 348 344 345 345 343 345 348 349 349 353 353 353 349 349 350 352 347 351 347
302 300 294 294 293 296 305 302 308 320 323 328 333 333 333 333 332 333 336 337 338 336 342 345 347 348 348 350 350 351 349 347 345 348 347 348 347 348 355 354 355 354 354 352 353 349 350 348 348
304 299 304 299 299 295 303 307 314 318 318 325 329 328 330 334 340 337 336 338 339 337 341 345 348 349 349 352 352 353 350 349 350 350 354 349 350 356 357 355 355 355 354 352 353 350 351 349 348
307 306 296 297 293 290 301 303 306 316 320 325 325 326 328 333 338 339 341 342 340 343 343 347 346 348 351 351 354 354 352 351 352 353 351 349 348 349 350 350 352 353 355 353 352 350 350 350 350
302 299 300 299 297 294 295 301 317 317 319 320 323 324 325 328 331 337 336 337 339 343 343 341 341 343 344 350 353 353 353 354 354 353 354 352 346 349 346 343 344 345 350 353 351 350 349 347 348
304 301 300 294 293 300 301 300 320 321 321 321 322 323 325 327 329 331 334 336 336 337 342 341 343 343 345 344 346 354 355 354 352 354 355 352 349 348 345 337 334 338 349 354 353 351 351 348 347

GFSSGP_sfc_thetae_096.txt.gz
Theta_e
349 348 346 337 322 321 316 320 328 323 324 330 330 329 327 328 324 314 342 348 351 353 357 360 364 361 359 362 359 358 357 358 358 362 361 362 363 363 363 363 363 363 362 363 361 360 361 359 359
346 345 342 334 318 312 315 326 320 325 329 333 333 331 328 325 335 338 340 349 354 354 355 357 362 362 361 364 361 361 363 362 359 360 360 362 363 363 363 363 362 363 363 362 361 362 361 359 358
346 344 331 325 319 313 315 325 323 327 331 330 330 334 331 329 338 339 347 351 353 351 352 354 363 364 362 362 363 361 361 362 360 360 360 361 362 362 362 363 362 363 363 362 360 361 361 358 357
342 341 334 319 316 323 325 326 326 326 330 332 331 326 334 340 339 344 349 350 348 350 352 359 361 362 362 362 361 362 361 361 361 361 361 360 361 361 362 362 362 361 361 360 360 359 359 358 358
343 337 322 315 317 324 331 329 327 324 328 329 331 326 329 338 344 346 345 346 347 350 354 356 364 363 361 361 361 361 361 361 362 362 361 361 361 362 361 362 361 361 361 361 358 357 359 359 361
332 332 315 311 319 327 330 333 327 326 329 330 329 327 328 340 340 343 345 347 350 351 354 357 362 362 362 362 362 361 361 362 361 361 361 360 361 362 361 361 361 360 360 361 360 358 358 358 360
329 323 316 319 321 324 328 336 326 327 328 328 332 325 330 335 344 347 349 350 352 355 353 353 355 360 362 361 362 362 361 361 360 361 360 360 360 360 361 361 360 360 360 361 359 357 356 357 358
334 330 320 321 320 321 332 333 335 330 327 336 335 325 325 337 345 346 348 349 349 351 353 352 353 354 352 355 361 361 361 361 361 360 360 360 360 361 360 363 362 360 359 358 359 357 357 355 356
339 323 319 320 321 324 333 328 335 339 330 331 334 333 337 342 344 343 343 345 347 350 350 352 351 351 351 353 357 360 361 360 360 359 360 357 350 352 354 360 363 361 360 360 356 357 355 354 355
330 322 323 329 329 328 331 330 331 333 330 330 331 337 339 340 341 339 339 339 341 344 348 349 348 349 351 356 352 350 353 350 350 349 349 348 347 350 353 357 361 360 361 355 351 353 354 350 348
328 323 328 331 334 334 330 331 335 331 326 328 327 332 336 336 338 338 340 340 341 344 345 347 348 349 348 350 350 350 350 349 348 346 346 346 348 349 349 346 346 349 352 341 345 347 344 341 341
320 325 329 334 335 332 328 333 331 332 332 333 333 335 336 334 335 338 338 340 342 343 345 346 347 347 346 350 349 347 347 345 345 346 347 342 341 343 342 342 343 341 339 340 341 343 346 348 346
322 324 331 334 333 332 335 331 330 330 335 335 332 335 334 333 335 337 340 342 343 343 345 346 347 347 348 349 347 345 346 344 345 345 345 345 337 341 343 343 339 344 342 340 341 343 343 344 347
330 331 330 334 332 333 329 329 328 331 338 330 330 332 332 333 333 337 339 341 342 343 345 344 348 350 347 346 346 345 346 345 344 343 345 347 340 340 338 342 337 343 341 335 340 340 339 343 339
330 323 329 331 331 328 332 325 324 331 335 328 329 329 333 333 339 338 340 339 341 343 343 345 345 349 349 344 344 344 344 345 346 348 348 346 343 342 342 342 342 343 344 345 342 343 346 345 340
321 323 316 327 329 329 329 318 327 331 334 327 328 327 328 335 337 339 340 339 342 342 343 345 347 349 349 347 345 345 345 345 347 349 350 345 346 346 344 342 341 343 344 345 342 343 342 339 338
314 310 314 323 329 327 326 320 328 333 333 325 326 325 329 332 336 340 341 340 343 340 339 342 345 347 348 349 347 345 346 346 347 347 348 349 350 350 346 344 344 345 344 344 342 339 340 340 340
297 309 314 317 324 324 321 322 327 331 332 325 326 323 329 330 332 338 340 341 342 340 338 344 343 347 348 346 347 346 346 345 351 352 350 352 350 348 347 345 347 346 342 343 344 340 341 338 336
302 302 313 318 325 320 320 322 326 329 330 328 325 321 326 330 333 336 339 341 341 341 337 338 344 345 346 344 342 343 341 345 345 347 351 352 349 344 345 346 348 346 343 341 342 345 339 341 339
302 305 315 319 322 322 318 321 325 328 326 329 325 322 324 327 330 334 338 339 338 339 337 340 344 343 344 345 345 346 344 345 346 346 346 351 348 344 347 345 345 345 345 345 345 343 340 339 336
299 298 313 314 316 317 317 315 320 327 329 328 329 326 325 326 326 332 336 337 337 339 342 340 344 340 342 347 346 344 341 341 343 345 346 350 351 351 345 347 346 343 343 342 344 340 335 334 339
292 304 316 317 312 307 316 302 311 318 323 326 328 329 326 326 327 333 335 336 337 340 345 343 344 343 346 345 342 341 338 335 340 342 347 348 352 351 349 349 344 347 343 342 345 345 342 339 339
299 307 316 316 309 311 310 303 309 315 318 323 328 329 329 329 328 329 334 337 339 342 345 344 344 342 346 346 343 339 334 337 342 345 345 347 346 351 352 344 344 345 343 342 343 347 345 345 343
307 313 313 313 305 298 306 308 309 312 318 323 327 329 332 331 331 330 333 338 339 342 346 345 343 340 342 347 344 340 339 340 341 341 344 346 347 348 351 351 348 345 344 343 345 343 347 345 346
303 297 292 296 295 295 308 307 308 318 324 325 326 328 330 335 333 333 332 336 338 340 344 347 343 340 341 345 345 344 343 341 343 342 344 344 345 347 346 350 348 346 342 341 345 348 344 347 344
298 298 292 290 291 294 309 303 306 322 328 329 331 333 333 333 334 335 335 335 337 340 343 348 344 341 344 345 346 345 346 345 344 343 342 344 346 347 348 351 351 350 350 349 349 346 348 346 345
297 296 300 295 295 296 303 307 315 320 322 328 328 327 329 333 335 335 336 337 336 339 343 344 346 346 345 347 346 346 347 346 343 344 346 343 346 350 352 352 352 352 352 349 350 348 348 347 345
302 304 295 293 290 292 299 301 303 310 318 324 324 325 329 333 338 339 339 340 341 342 342 344 346 344 344 348 347 350 348 346 346 347 347 349 348 351 351 352 352 352 352 351 350 348 347 346 346
300 297 298 296 294 296 295 301 318 317 322 322 323 325 327 329 333 335 337 340 340 341 341 341 341 342 343 344 343 344 349 349 347 349 349 347 347 347 347 348 349 349 351 351 348 347 348 345 346
302 299 296 293 294 298 297 304 321 321 322 321 323 324 326 327 330 333 335 337 338 339 341 341 341 341 342 343 344 345 348 347 349 350 350 349 346 346 344 343 343 343 345 349 350 348 349 346 344

GFSSGP_sfc_thetae_099.txt.gz
Theta_e
350 347 345 337 321 320 315 319 327 321 319 327 326 326 325 327 323 310 340 345 350 352 355 355 361 361 359 358 357 357 358 359 361 362 360 362 362 361 362 362 361 362 362 360 361 359 360 360 360
346 345 341 333 317 311 314 324 320 323 327 329 331 329 327 325 335 336 339 349 352 354 355 356 362 360 362 358 358 358 357 357 360 360 361 362 362 362 361 362 362 362 363 361 360 359 359 359 359
344 344 330 325 318 312 314 323 324 328 330 329 328 333 331 329 337 338 345 351 353 351 353 353 360 362 362 361 361 361 361 359 359 359 361 362 362 361 362 362 363 362 361 361 360 359 358 357 357
342 339 333 318 315 322 323 324 326 326 329 332 331 325 334 340 338 344 350 352 349 350 350 361 362 361 362 361 360 360 361 360 360 360 360 361 361 362 362 363 362 360 360 360 360 359 357 356 357
342 336 321 317 317 322 327 328 327 325 328 329 330 325 327 339 346 347 348 348 347 347 351 355 363 362 361 362 360 361 361 360 361 359 359 360 361 361 362 361 362 360 359 359 359 358 357 358 359
332 330 315 312 316 326 328 329 328 328 329 329 327 326 327 342 342 345 346 346 351 351 352 355 362 361 361 361 361 361 360 359 360 359 359 359 361 361 361 362 361 361 360 358 359 359 358 361 361
328 321 316 317 319 321 326 332 327 327 326 326 331 323 330 337 341 343 345 348 351 353 353 353 354 357 360 361 360 360 360 359 360 359 359 361 361 361 360 360 360 362 361 359 358 357 358 357 359
335 328 319 318 318 319 331 332 334 330 326 334 333 323 324 334 342 346 346 347 349 351 352 350 350 352 353 354 360 360 360 359 359 359 360 360 361 361 360 361 363 360 359 359 358 357 357 357 358
339 322 316 319 321 322 331 327 335 337 329 330 334 331 335 342 346 344 344 344 346 349 347 348 349 349 351 352 355 358 360 359 359 358 359 356 348 350 354 358 361 360 360 358 357 356 357 356 356
326 320 322 328 328 326 330 329 332 329 327 328 330 337 341 342 342 339 339 339 342 343 347 348 348 348 350 355 351 349 352 349 350 349 347 346 348 348 353 357 360 360 356 355 353 357 353 348 345
328 322 326 328 330 332 330 329 335 327 324 327 328 334 338 339 339 339 339 340 341 344 347 346 347 348 349 350 349 349 347 346 345 346 346 346 347 348 346 346 349 349 349 340 346 345 345 342 340
322 325 330 332 333 332 328 333 332 330 330 334 335 336 337 336 337 338 337 339 341 343 344 345 347 347 345 349 348 347 346 344 343 343 344 344 343 342 341 342 343 339 337 339 340 343 345 345 347
321 326 331 335 334 332 333 330 330 328 336 336 335 335 335 336 337 339 340 341 341 342 343 345 346 346 345 347 346 345 345 343 344 346 343 341 341 340 341 340 338 342 340 337 339 341 341 342 342
327 329 327 333 332 332 328 329 330 332 337 333 333 332 334 334 336 337 339 339 341 342 343 345 346 346 346 345 344 343 345 344 343 342 344 340 338 340 339 338 333 340 339 334 338 338 339 343 337
331 323 327 331 330 328 330 323 324 332 332 330 331 332 333 333 336 337 339 339 342 342 344 343 346 347 346 344 344 343 344 343 341 343 344 344 339 339 337 339 339 341 342 342 341 342 343 340 338
323 323 316 328 329 330 328 316 325 332 330 326 329 330 332 331 335 339 341 340 342 341 341 344 349 348 345 344 343 343 342 343 345 346 345 344 341 344 341 340 340 342 342 342 341 339 341 338 336
309 306 315 320 329 327 324 317 326 331 331 325 327 328 329 333 336 338 339 340 341 341 342 341 346 345 345 344 343 342 343 344 346 346 345 346 346 348 343 341 341 342 342 341 343 339 338 338 337
297 307 316 317 324 325 321 320 324 328 328 326 325 325 328 333 334 338 339 341 341 341 340 342 344 345 347 344 343 343 342 344 345 348 347 349 348 348 344 343 345 345 342 340 342 338 339 338 334
302 302 314 319 326 320 320 321 322 327 328 324 323 325 328 330 337 339 339 342 339 338 339 341 342 343 344 343 341 341 340 344 347 348 349 349 347 345 344 344 344 344 340 340 342 344 337 338 337
302 309 313 319 321 321 321 320 325 327 327 326 325 323 326 330 333 336 337 339 337 336 337 339 342 343 342 343 342 343 343 344 343 344 346 349 347 341 345 343 344 344 343 343 343 342 337 335 335
298 298 314 314 318 319 318 315 321 326 329 331 328 324 328 328 330 334 335 337 338 335 336 340 341 342 342 344 343 341 341 341 343 343 343 347 347 346 347 344 344 343 342 341 342 338 334 333 337
292 303 312 315 309 303 314 303 312 319 321 326 327 323 326 328 331 334 334 334 337 336 339 341 341 338 343 344 342 340 338 336 339 341 344 346 349 349 346 347 345 343 341 340 343 343 341 338 336
298 306 314 314 309 305 307 303 309 314 314 321 325 327 323 327 332 333 334 334 337 339 339 342 340 339 342 342 341 339 336 337 339 342 343 344 346 348 350 347 341 345 342 340 342 345 343 343 341
306 312 311 308 305 297 304 304 307 310 315 321 327 329 327 326 331 335 336 336 336 341 340 342 340 340 342 342 341 338 335 336 338 339 342 343 344 346 349 345 342 343 341 341 343 342 344 342 343
299 303 296 294 295 295 304 304 305 316 320 324 326 328 328 328 330 331 333 335 335 339 341 341 340 338 342 344 342 340 338 340 339 340 342 342 342 345 346 348 346 344 344 342 342 346 344 344 342
295 299 293 290 291 294 306 299 306 320 324 327 329 330 333 331 334 332 333 336 337 338 343 341 340 337 339 342 343 343 342 340 342 342 343 344 344 346 347 348 348 347 344 343 346 345 345 344 342
296 294 298 295 292 295 300 304 315 323 324 326 326 329 330 332 335 335 335 337 337 338 342 343 341 338 340 340 343 343 343 343 342 343 342 343 345 347 348 348 349 349 349 347 347 345 345 345 343
299 301 294 291 287 288 296 297 301 315 320 322 321 324 328 333 336 337 336 335 338 338 340 345 346 343 341 342 343 343 343 346 344 342 343 344 344 345 349 349 350 350 350 349 347 346 345 343 343
299 295 294 294 293 290 292 299 314 312 320 320 323 325 327 329 334 336 338 339 338 341 341 341 342 341 343 345 343 344 346 345 344 345 346 348 347 347 347 349 349 350 349 349 347 346 345 344 342
299 297 295 291 291 295 297 301 321 321 321 322 321 324 326 329 331 333 337 339 338 339 339 339 339 341 341 341 343 345 346 346 345 345 346 349 347 346 346 346 345 346 347 348 348 345 347 346 344

GFSSGP_sfc_thetae_102.txt.gz
Theta_e
348 347 345 336 320 318 314 317 323 313 312 320 322 323 322 327 322 308 336 344 348 350 353 356 359 361 358 358 358 358 360 360 361 361 361 360 360 361 361 361 361 362 362 360 359 360 360 360 360
345 344 341 332 315 310 313 322 317 317 320 322 325 329 327 324 334 335 337 348 352 353 353 354 361 360 358 356 355 356 358 360 361 360 360 361 362 360 361 361 362 360 361 362 360 361 359 359 357
345 343 330 324 318 312 314 323 323 325 326 322 328 333 330 328 334 337 344 351 353 352 353 354 358 361 358 358 359 359 356 358 359 358 360 361 360 361 361 361 361 361 360 361 359 359 358 359 359
337 337 332 318 315 321 322 324 326 325 328 332 330 325 333 338 337 343 350 351 350 350 351 357 361 360 360 359 360 359 359 358 360 358 361 361 361 360 361 361 362 361 360 358 358 358 357 357 357
341 336 320 316 317 323 327 328 328 324 327 329 330 323 326 340 345 349 349 350 348 346 352 356 362 361 361 360 360 359 358 359 359 359 360 361 362 362 361 361 360 361 360 359 359 357 357 358 359
332 330 315 312 316 325 326 330 330 327 328 327 325 324 329 342 343 346 348 347 348 348 351 355 360 360 361 360 360 359 359 358 357 359 358 361 360 362 362 361 360 359 359 359 358 357 359 360 359
328 322 316 317 318 321 326 333 328 327 325 325 329 323 333 336 343 345 345 348 350 351 352 353 355 357 360 359 359 359 358 358 358 359 360 360 360 361 361 361 361 360 360 358 358 357 358 358 358
333 325 318 318 318 318 330 331 331 329 325 332 333 322 324 335 341 344 346 346 348 350 351 350 352 353 353 353 359 358 359 358 358 359 359 359 359 360 360 361 360 360 359 358 357 357 357 358 358
338 322 316 314 319 321 331 327 335 335 328 330 333 331 335 340 344 342 343 344 346 349 348 348 350 350 352 353 355 357 358 358 358 358 359 353 351 353 355 362 360 360 358 357 356 357 358 358 357
326 320 320 325 327 324 329 329 330 326 326 326 330 336 340 342 340 337 337 338 343 344 347 348 348 349 351 355 350 350 352 350 351 350 348 349 350 354 357 359 361 358 353 355 357 356 353 349 349
327 321 327 328 329 330 328 329 333 326 322 326 328 333 338 338 338 336 338 340 341 343 347 347 348 349 350 349 349 349 347 347 347 348 348 349 351 350 349 350 350 348 347 346 346 346 348 346 346
322 328 327 331 330 330 327 332 328 330 328 333 335 337 337 336 336 336 337 339 340 343 346 346 348 348 347 348 348 347 346 345 344 346 347 347 346 345 344 345 344 341 341 343 345 346 348 348 350
322 326 331 333 331 332 332 328 327 327 334 336 337 337 335 336 337 338 339 340 340 342 344 345 347 347 346 348 347 347 346 345 345 346 346 346 344 343 343 342 341 345 343 341 344 344 344 347 344
325 328 328 332 331 331 327 327 327 329 335 334 334 334 335 336 337 337 337 339 340 342 343 345 346 346 345 345 345 345 347 345 346 347 345 344 344 342 344 342 336 345 341 340 344 346 346 345 341
331 324 327 329 330 328 331 324 325 330 334 331 331 333 335 336 337 337 339 339 340 342 343 344 345 346 345 345 345 345 346 345 344 346 346 343 342 342 342 343 344 345 347 347 347 347 347 343 343
323 322 315 328 328 328 327 316 327 331 331 329 330 331 333 333 336 337 340 340 341 342 342 343 348 347 345 345 345 345 345 345 344 346 347 347 344 345 342 343 344 346 347 347 347 344 345 343 343
310 308 313 319 329 326 324 317 327 332 329 327 329 330 331 330 334 338 341 341 341 342 342 343 347 346 345 345 344 344 345 346 348 348 347 346 345 348 346 344 346 347 347 346 346 345 345 344 343
298 306 313 315 322 326 321 319 324 328 327 327 328 329 328 330 334 337 340 341 341 342 343 343 345 345 345 344 343 344 344 346 346 348 348 348 350 351 347 348 349 349 346 346 347 346 344 344 341
300 308 314 317 325 320 318 319 320 326 325 325 325 326 327 330 336 338 340 341 341 341 341 342 343 345 344 343 342 341 341 347 349 348 350 349 351 350 347 349 350 348 346 347 348 348 345 344 342
303 312 313 318 322 321 319 319 322 325 323 325 324 325 327 331 332 336 337 339 338 337 341 341 343 344 343 343 343 344 344 346 348 348 350 351 349 347 348 349 349 350 349 349 349 347 343 341 343
298 304 313 314 319 321 318 315 318 325 327 326 326 326 328 329 331 333 336 336 337 337 339 340 342 343 343 345 344 343 344 345 345 347 347 350 349 346 350 348 348 349 348 348 349 344 343 342 344
293 303 318 314 310 304 316 302 315 320 322 326 325 323 326 330 334 333 335 336 336 337 339 341 342 343 343 345 345 343 340 339 343 345 347 350 352 351 349 350 349 348 347 347 351 347 346 346 344
299 305 315 315 308 305 308 302 307 319 318 321 324 326 325 328 333 332 334 336 338 338 337 340 341 340 344 344 344 342 341 341 342 346 348 350 352 353 352 351 348 350 347 348 350 351 349 350 348
306 313 309 308 304 297 303 303 302 309 316 321 323 325 324 328 332 334 336 337 338 338 338 341 340 339 342 342 342 341 341 340 341 342 345 347 349 351 352 350 346 349 347 346 349 351 351 350 349
299 299 294 294 294 295 301 303 302 315 319 324 324 326 324 328 331 333 334 334 335 337 337 340 340 339 341 342 341 341 340 340 340 342 344 345 347 349 351 351 349 349 349 347 349 351 352 352 350
296 297 294 288 290 293 305 299 305 319 324 327 329 329 326 328 332 333 335 335 335 339 339 340 340 339 342 343 342 342 340 342 342 345 345 346 347 349 352 351 352 351 350 348 348 350 351 351 350
294 294 300 294 291 296 300 304 313 322 322 325 327 329 328 327 330 331 335 336 336 337 341 340 341 340 341 343 343 343 343 343 343 345 346 348 348 350 352 351 352 352 352 350 352 350 350 351 350
298 299 292 290 287 288 296 299 301 315 320 322 324 326 329 333 333 334 333 336 338 339 340 344 342 339 341 342 344 344 344 345 347 346 346 345 347 348 350 348 351 350 353 353 352 352 352 351 350
297 294 292 293 292 290 291 297 313 314 321 321 323 326 328 331 334 336 337 337 338 342 342 344 343 343 343 344 343 345 345 346 347 347 347 348 351 349 349 350 351 352 351 353 352 350 351 350 349
297 295 294 291 290 293 294 297 319 321 322 323 324 326 329 331 334 337 338 337 337 340 341 341 341 343 343 344 345 346 348 348 346 347 347 350 351 350 349 350 351 352 351 353 352 351 350 350 349

GFSSGP_sfc_thetae_108.txt.gz
Theta_e
350 350 354 346 330 329 319 321 324 319 319 324 325 322 327 332 325 320 341 346 348 351 355 358 361 360 360 361 361 360 361 362 362 362 362 362 362 362 362 361 361 361 360 361 361 361 361 360 359
346 348 350 341 327 318 319 325 319 321 324 326 329 329 330 329 334 336 340 346 350 352 354 356 362 359 358 358 360 360 359 361 362 361 361 361 361 362 362 361 361 361 361 360 360 358 357 357 357
348 349 341 334 330 318 319 322 321 323 325 333 332 337 335 330 335 337 344 348 352 353 356 359 360 358 357 357 357 359 360 360 360 362 362 359 360 362 362 361 362 362 362 361 359 359 360 358 358
347 348 342 327 320 324 325 323 325 324 332 336 336 331 337 338 338 343 348 350 353 355 357 361 360 360 360 359 358 358 359 358 361 361 361 360 360 359 362 362 361 360 360 359 359 360 359 361 359
352 345 331 321 323 326 331 327 328 324 331 334 335 330 330 341 346 348 350 351 351 350 350 359 361 360 361 360 360 358 357 359 361 361 360 361 361 359 362 361 360 360 361 360 360 360 361 360 359
342 338 325 313 319 327 331 330 329 327 333 333 332 329 332 345 345 349 351 351 346 344 350 356 359 360 360 360 360 359 360 360 360 361 360 362 363 362 362 361 361 360 360 360 361 361 361 360 357
329 329 320 319 319 325 329 334 330 332 332 330 334 326 336 342 347 349 351 348 349 352 353 354 357 361 361 360 359 359 360 360 360 360 360 360 361 362 362 362 360 360 360 360 360 359 359 358 356
339 329 322 322 318 322 333 334 336 334 332 337 336 326 331 343 348 349 347 346 349 351 354 355 357 358 360 358 360 360 360 360 359 362 361 359 359 360 361 362 363 360 360 358 359 358 359 358 356
341 325 322 322 320 324 334 331 336 338 333 333 335 333 340 345 347 344 341 344 346 350 352 353 354 358 360 360 360 360 360 360 360 359 360 360 356 357 359 363 361 360 358 358 359 359 358 358 358
331 328 322 328 327 327 332 332 332 332 332 331 332 338 342 344 343 338 337 340 343 346 349 354 354 357 355 353 360 360 357 356 356 357 360 357 358 361 358 360 357 358 358 359 358 355 353 356 352
330 324 330 328 330 331 332 331 333 332 329 332 332 336 340 340 340 335 338 340 344 347 350 352 354 355 353 355 353 352 353 355 357 360 358 358 355 355 353 352 351 355 358 353 356 355 355 354 352
327 330 331 331 331 331 329 333 332 331 332 337 337 338 338 338 336 335 337 339 344 347 349 350 353 355 356 354 350 350 352 352 353 357 359 356 354 354 352 350 351 353 355 357 359 355 359 360 357
326 328 333 331 331 331 331 330 330 331 336 337 337 337 337 337 336 337 339 343 346 345 348 350 354 356 357 356 351 351 351 352 353 354 356 354 353 354 352 354 353 354 358 356 359 357 357 356 354
327 330 332 330 329 332 328 327 327 332 336 335 335 335 335 335 337 339 341 342 343 347 348 350 353 358 357 356 356 354 353 354 354 352 356 358 354 355 352 351 351 352 358 358 359 358 353 352 351
328 326 331 331 331 329 328 321 322 332 335 333 333 335 336 339 342 340 343 343 345 348 349 351 354 356 357 357 357 354 353 353 353 353 359 359 356 359 357 353 352 355 360 362 361 356 356 350 349
325 327 320 327 329 330 328 316 326 333 333 331 332 333 337 340 341 342 343 343 348 349 349 351 351 353 356 357 359 357 355 353 352 353 355 358 358 358 358 352 354 358 361 360 357 353 349 351 351
322 312 318 321 329 327 324 318 325 334 332 332 333 333 337 339 341 343 343 346 348 351 351 351 353 353 355 360 357 357 360 355 354 355 356 361 360 361 357 355 357 362 358 357 355 353 355 351 352
315 316 318 318 325 326 322 321 325 329 332 332 333 334 337 338 340 345 344 346 350 352 354 355 354 357 358 358 359 356 355 356 358 356 356 361 360 363 359 357 360 360 356 354 354 358 356 354 352
320 319 316 322 327 322 322 321 323 327 331 331 332 334 335 336 342 346 346 346 349 352 354 356 355 359 357 354 351 351 350 353 355 356 360 361 363 363 363 357 361 360 357 360 362 357 356 349 355
317 317 319 322 325 322 319 321 321 324 327 332 332 332 334 335 339 343 346 347 347 350 353 356 357 360 362 355 355 353 354 353 354 357 359 361 362 363 362 362 359 361 355 356 362 361 350 352 357
318 316 319 318 321 320 317 314 320 323 327 332 333 335 336 337 338 341 344 347 347 349 353 355 358 358 360 360 358 357 364 363 362 360 354 357 361 361 362 361 362 360 361 353 360 359 359 347 355
310 316 321 319 317 308 317 307 316 320 321 329 331 334 335 336 340 342 343 345 347 349 354 357 359 359 358 363 358 359 354 354 350 352 355 358 362 359 360 362 362 365 361 361 360 359 360 361 350
309 312 317 319 315 315 314 309 311 321 318 322 327 332 335 337 338 340 344 346 347 350 352 356 360 361 360 363 363 360 353 350 352 353 359 361 362 360 359 362 363 363 358 363 364 365 364 359 355
314 313 315 317 314 306 313 313 309 316 324 323 328 332 334 336 339 341 344 346 347 349 351 353 358 360 360 361 359 359 356 355 358 354 360 353 354 357 361 362 364 365 362 362 360 366 362 363 361
312 312 304 301 303 303 314 312 313 321 326 330 328 330 333 336 338 340 342 344 347 349 350 352 356 358 359 358 358 358 358 357 356 356 353 356 353 356 359 362 362 359 365 363 363 365 364 361 361
310 311 305 297 299 304 312 308 315 324 330 333 335 334 335 336 337 338 342 345 346 349 351 352 354 357 358 358 359 360 361 353 362 357 355 353 362 354 361 360 359 361 364 362 363 359 358 360 358
309 307 314 308 310 305 308 313 321 324 327 330 333 335 334 336 337 338 342 345 347 349 351 352 353 356 357 356 359 359 359 357 363 357 365 357 361 358 360 360 360 361 361 363 364 356 359 362 361
310 313 306 307 300 300 307 308 310 321 323 328 330 332 335 335 337 339 341 345 348 349 350 352 354 355 355 355 357 355 356 359 359 359 357 361 362 363 361 360 360 362 363 364 363 359 360 360 357
306 305 307 308 307 302 301 306 322 323 326 328 330 333 336 337 336 338 343 346 348 349 347 348 354 355 353 355 356 356 355 354 359 360 357 359 362 366 360 360 361 359 360 363 364 361 359 359 360
310 307 307 301 302 307 306 308 327 327 330 332 334 336 338 339 338 340 340 342 344 348 350 348 350 351 355 355 355 357 356 355 353 356 356 359 358 363 362 361 362 360 360 362 361 359 358 358 357

GFSSGP_sfc_thetae_111.txt.gz
Theta_e
351 349 351 346 329 329 318 319 325 321 322 327 327 327 329 332 325 320 342 348 350 350 355 359 362 362 362 362 360 362 362 362 363 363 362 362 362 362 361 361 361 361 361 361 361 360 360 361 360
350 348 349 340 324 317 316 323 320 323 325 328 330 331 330 327 334 336 340 348 350 350 353 357 361 358 360 361 361 360 362 362 362 362 362 361 362 363 361 361 361 362 362 360 358 357 356 359 360
349 350 342 334 324 318 316 323 324 325 328 331 330 338 332 329 335 337 345 348 349 352 355 359 358 357 356 357 360 360 360 360 361 362 359 360 363 361 362 361 361 362 361 360 359 360 359 358 359
345 348 343 328 321 326 322 324 326 326 334 336 336 330 334 340 338 341 346 349 348 352 353 358 359 361 360 358 358 359 358 361 361 361 360 360 362 362 360 360 359 359 360 360 360 360 360 359 359
346 346 331 324 323 325 326 328 328 331 333 333 335 326 329 339 343 345 349 349 350 349 353 357 361 361 360 360 358 358 359 362 361 361 361 362 362 362 360 357 361 361 361 361 362 362 361 358 358
342 338 323 318 320 327 327 329 329 332 335 335 333 330 333 342 342 346 348 350 344 345 352 355 360 360 360 360 360 360 361 361 361 361 363 361 361 362 362 361 361 361 361 361 361 360 359 357 357
335 332 323 320 320 325 325 332 328 331 332 332 334 328 334 338 345 348 348 342 343 351 349 353 357 360 361 360 360 361 360 361 361 362 361 364 364 362 362 361 361 361 361 360 360 359 358 357 357
342 335 324 324 320 322 331 331 334 333 330 339 336 328 330 341 346 348 343 346 351 350 353 353 355 357 357 358 360 360 359 361 359 360 360 362 362 362 360 362 364 361 359 359 359 359 359 357 357
341 330 324 323 324 326 333 333 339 339 335 335 336 335 340 344 345 341 341 343 347 347 349 351 352 354 358 356 359 359 359 361 362 359 361 361 356 357 360 362 361 359 359 359 359 359 359 358 360
332 327 323 331 330 328 332 334 336 334 332 333 334 340 341 343 341 338 339 339 343 344 348 351 351 353 354 352 359 358 354 354 352 355 356 361 357 362 355 360 359 359 359 359 358 357 360 361 357
330 327 330 331 331 334 332 334 337 333 328 332 333 336 339 339 338 336 339 340 342 346 346 352 352 357 350 352 351 354 354 353 353 359 356 358 355 354 348 351 354 356 360 353 354 355 353 351 346
327 331 333 333 333 333 330 335 333 333 333 337 339 339 339 337 335 335 338 340 342 344 347 347 350 355 356 349 349 352 352 352 354 359 362 356 356 351 350 348 354 355 359 355 351 349 354 351 352
328 331 334 333 331 333 334 331 331 332 336 339 339 338 336 336 335 338 340 342 343 343 344 348 351 358 354 352 350 352 351 352 352 353 354 354 353 351 352 354 352 359 356 352 356 352 352 352 350
332 331 332 331 329 331 329 328 330 332 337 336 336 335 335 335 335 338 340 342 342 345 347 348 353 357 355 353 357 354 351 351 355 351 354 360 352 359 352 353 351 352 359 358 357 358 351 349 347
329 326 330 328 329 328 329 323 324 333 335 333 333 334 334 334 337 338 341 341 344 346 348 350 353 352 353 354 354 355 350 353 351 354 358 359 357 359 357 351 351 352 356 360 356 353 352 346 346
325 327 320 327 328 329 326 316 325 334 332 331 332 332 333 336 338 340 342 341 347 348 348 351 348 350 351 354 356 354 355 359 354 353 356 358 359 359 361 352 351 355 359 355 350 351 346 347 345
323 314 319 320 329 326 325 320 325 333 331 330 331 332 334 337 338 341 341 344 348 349 350 351 351 350 354 358 359 361 359 353 357 356 355 361 360 360 357 352 357 361 353 351 352 349 363 345 345
315 317 318 317 324 325 322 321 325 330 330 327 330 331 333 334 337 340 342 345 348 349 351 352 351 356 359 356 358 353 356 357 354 359 359 360 359 360 361 357 357 362 355 350 357 364 353 351 347
317 317 315 320 327 320 319 320 319 329 330 327 328 330 333 334 338 340 342 344 346 349 351 353 356 358 356 353 353 352 357 353 356 356 360 360 361 361 363 359 358 362 353 357 357 355 355 350 350
314 316 316 322 325 318 318 319 322 325 331 330 329 330 333 334 335 340 341 343 344 348 352 354 357 359 361 355 359 354 352 358 356 356 360 360 362 362 360 364 359 358 354 358 360 362 348 347 352
315 317 318 319 320 321 316 314 317 324 330 332 330 331 332 333 334 337 341 342 345 346 350 353 359 359 360 359 359 358 360 362 355 358 355 358 360 361 363 360 365 361 363 353 359 357 360 351 350
309 323 320 320 317 310 319 303 313 319 323 326 329 330 331 336 335 338 342 343 343 347 350 355 357 360 358 364 361 361 351 352 352 353 355 361 360 359 360 361 361 364 354 367 358 356 364 365 350
313 318 322 320 316 314 313 309 310 317 315 321 328 330 332 335 338 338 339 343 344 348 349 352 357 361 361 361 360 356 356 353 352 358 361 362 362 361 359 362 361 362 359 364 364 361 367 357 360
317 315 318 318 314 307 312 310 310 316 318 322 327 332 331 333 337 339 343 343 343 346 348 351 356 359 361 360 359 359 356 356 354 355 354 354 356 357 361 360 364 365 363 362 360 364 363 366 366
314 313 309 304 305 306 314 311 312 321 324 327 328 330 335 335 334 337 340 339 344 346 346 349 355 357 358 358 357 357 359 355 355 357 354 354 352 354 361 363 363 360 365 363 364 365 364 361 362
313 313 307 299 301 304 315 308 312 322 328 329 331 331 334 336 337 337 338 340 345 345 347 347 354 356 357 356 358 359 359 354 354 356 352 352 357 353 365 361 362 361 362 362 364 359 358 363 358
311 310 318 308 309 307 310 316 323 327 327 331 331 331 331 336 336 338 341 344 345 346 348 349 355 356 356 355 358 359 359 358 357 358 360 359 362 358 360 359 359 360 362 363 365 357 360 363 361
311 316 308 310 300 297 306 307 310 321 325 329 331 328 332 335 337 338 339 341 346 347 348 351 354 356 356 355 356 356 356 358 358 359 358 360 350 363 363 360 359 360 361 363 365 364 362 361 357
307 307 310 311 308 301 300 307 323 324 326 327 331 334 334 336 338 340 340 342 347 348 350 350 352 356 356 355 357 356 354 354 357 357 358 359 360 361 362 362 360 360 360 361 362 366 364 359 360
311 308 309 303 304 307 304 305 321 329 330 331 332 335 337 338 339 340 341 347 350 351 353 354 353 354 356 359 361 356 357 355 352 355 356 360 360 361 361 362 361 360 360 365 361 359 359 359 357

GFSSGP_sfc_thetae_114.txt.gz
Theta_e
350 347 348 345 327 328 317 316 322 320 321 327 331 330 327 328 324 318 342 346 347 348 355 359 363 362 362 361 364 362 363 363 362 363 364 364 364 364 362 362 362 362 362 362 361 361 361 361 358
345 347 348 339 321 315 315 321 318 321 324 331 333 330 327 324 333 336 339 347 348 349 354 355 363 362 362 361 362 363 363 362 362 363 362 365 362 365 362 362 362 363 362 359 357 358 359 361 359
343 346 337 328 321 316 314 321 321 324 328 333 330 332 329 328 335 337 346 348 347 352 353 354 359 358 360 360 361 361 361 363 362 362 362 365 362 362 362 362 362 361 361 361 360 360 358 360 359
344 347 341 323 317 325 321 322 323 328 331 332 329 325 332 337 337 343 349 350 350 351 350 357 360 360 358 360 361 360 362 362 364 364 364 363 365 362 361 360 359 360 361 361 361 360 358 359 356
346 342 325 321 321 325 324 325 329 328 330 330 329 325 328 336 342 347 347 350 349 350 349 358 361 361 361 358 359 359 362 362 364 364 363 363 363 359 360 361 362 361 362 361 361 359 358 357 354
338 339 323 318 316 327 325 328 331 330 332 330 328 327 329 338 344 345 347 346 350 348 351 355 360 362 361 360 360 361 362 363 362 363 362 364 365 362 362 363 365 362 361 361 359 357 357 357 354
331 332 322 320 319 324 324 330 330 329 328 328 332 325 331 337 343 343 346 347 347 348 350 353 355 359 361 362 362 361 362 363 363 362 362 364 363 362 365 366 364 361 361 360 359 358 357 356 353
337 334 323 322 318 320 331 332 335 332 327 336 335 325 326 339 341 345 346 347 348 351 351 353 354 354 355 356 360 360 360 362 362 362 362 366 365 362 362 365 364 360 359 359 359 359 358 357 355
341 328 322 322 321 323 334 331 336 338 332 332 334 332 336 341 341 342 343 344 346 349 350 351 352 353 359 358 357 360 360 362 360 360 362 365 357 356 358 361 363 360 359 359 360 360 359 358 358
332 327 325 331 330 327 333 332 334 332 331 330 331 336 337 339 336 336 340 340 343 345 346 351 351 352 352 350 359 358 356 354 350 346 343 353 358 362 356 360 360 359 359 359 360 362 361 359 354
331 325 331 332 334 334 333 332 334 330 327 330 331 332 336 335 335 336 336 337 342 345 352 350 349 354 349 353 356 352 352 349 345 340 341 349 354 353 353 357 355 357 360 350 351 357 357 358 357
327 331 333 333 334 333 331 335 332 332 332 335 336 336 335 333 333 335 336 340 344 344 347 348 352 353 357 353 356 353 352 345 340 343 339 346 353 355 349 352 356 361 345 339 345 350 358 352 351
328 330 334 334 334 333 333 331 332 330 336 337 338 336 333 333 334 336 339 342 344 343 346 350 354 360 362 351 354 352 353 351 352 347 343 353 352 360 356 360 350 348 351 346 351 351 352 355 353
331 332 332 332 331 331 329 329 331 332 335 335 335 334 333 332 334 337 337 339 342 345 346 352 354 359 360 359 359 351 357 357 353 352 348 347 354 364 359 358 359 346 348 351 351 360 350 356 349
334 327 328 328 329 328 330 321 326 331 333 332 332 332 332 333 335 336 339 339 343 345 351 350 353 355 358 362 353 355 355 355 356 357 366 363 363 368 358 356 358 355 363 364 362 360 354 351 350
327 326 318 325 328 328 327 317 328 331 331 330 330 330 331 333 334 338 339 340 345 346 353 353 349 349 353 351 362 362 355 350 358 357 361 363 364 367 366 361 352 357 357 364 361 356 352 350 352
324 315 316 319 327 326 324 320 326 333 330 328 329 329 329 332 336 339 338 342 346 349 352 350 352 351 356 360 350 356 360 358 360 357 358 365 363 365 365 358 363 365 357 358 357 349 354 343 347
313 317 317 317 323 325 321 321 323 329 331 327 328 328 331 333 334 338 339 345 346 349 352 351 350 354 361 360 362 364 353 362 353 357 361 367 364 366 361 365 360 359 357 346 355 349 356 360 348
317 317 315 319 324 320 316 316 322 328 329 329 328 327 331 333 336 338 342 346 344 348 352 356 351 363 358 357 347 354 357 357 351 362 364 366 364 367 368 364 354 339 348 360 356 356 359 358 345
318 317 315 321 323 319 316 316 322 325 327 330 328 330 331 332 334 337 340 343 343 349 352 356 358 362 360 361 355 352 359 353 358 365 366 355 364 368 364 360 355 350 350 364 361 356 358 358 353
317 316 317 316 319 319 316 312 315 320 326 329 332 332 332 334 332 336 339 341 346 350 351 355 357 362 363 362 359 349 353 360 356 358 359 361 364 366 370 364 359 353 354 358 365 364 360 356 351
312 323 319 318 313 308 317 303 312 316 320 325 329 331 332 331 336 337 337 338 343 350 352 356 359 362 360 363 362 352 352 353 359 358 359 357 365 361 365 368 357 340 341 354 364 363 360 361 355
312 321 321 317 314 312 312 307 311 315 314 321 327 330 333 336 334 337 336 340 340 345 351 356 359 362 364 367 358 359 364 360 361 360 357 370 368 361 361 366 367 351 351 357 365 365 363 361 350
319 320 316 314 311 305 311 309 308 312 315 320 327 331 332 332 336 338 339 341 346 346 350 353 357 359 361 364 361 364 354 347 357 357 357 356 359 362 366 365 368 368 358 361 365 368 365 362 351
315 313 307 302 304 304 313 310 311 319 323 322 324 329 333 332 335 335 338 342 344 344 349 353 358 356 359 361 360 359 354 349 358 359 359 351 357 358 361 366 366 364 363 365 369 368 369 366 363
311 311 306 298 300 303 312 306 312 321 326 327 328 329 334 334 337 337 336 341 341 344 346 351 356 357 358 359 362 362 360 358 358 363 355 352 351 361 365 363 365 365 366 365 368 366 363 365 365
310 307 314 310 307 305 305 310 318 323 323 324 326 330 331 333 335 337 343 342 342 344 345 355 356 357 357 357 361 362 363 362 364 362 348 354 361 359 363 365 364 365 363 368 368 364 365 360 366
311 314 306 310 300 297 303 306 308 318 320 326 326 329 332 333 334 336 339 342 339 341 344 355 357 357 357 356 358 358 360 362 366 366 361 359 357 350 347 360 363 362 362 368 367 363 361 364 364
306 306 308 309 308 300 299 307 320 320 318 327 328 330 331 331 333 338 338 341 343 346 349 352 354 356 355 356 356 358 356 358 362 362 364 365 351 346 358 364 364 363 365 366 365 365 362 358 363
310 307 307 302 303 307 306 306 320 323 327 329 330 332 335 336 338 341 342 340 343 349 349 342 351 351 354 356 355 358 357 359 357 360 361 361 363 360 361 365 367 366 366 363 366 363 360 359 358

GFSSGP_sfc_thetae_117.txt.gz
Theta_e
347 349 346 344 323 319 313 314 319 321 322 329 331 327 325 328 323 314 342 347 348 353 358 360 363 362 362 363 362 362 363 363 363 364 364 363 363 362 361 361 362 363 362 363 362 361 359 360 359
341 341 345 337 318 312 311 318 316 324 327 328 328 327 325 323 334 336 337 346 349 353 356 358 364 364 362 362 364 364 363 363 362 363 364 364 363 364 364 360 361 362 361 359 360 361 359 358 359
342 340 334 324 319 312 310 317 323 329 330 328 326 330 329 327 336 337 342 345 350 349 352 354 362 365 361 362 362 363 364 362 362 363 362 363 363 363 363 362 362 362 362 362 359 361 359 360 360
337 342 332 321 316 324 316 319 322 326 327 328 327 323 331 339 339 344 348 350 346 347 350 357 359 360 362 362 362 362 362 361 362 365 363 364 362 363 361 360 361 362 362 362 358 359 358 358 358
337 338 320 317 320 325 320 327 329 325 326 326 327 322 328 339 343 345 348 346 343 347 354 357 364 360 361 361 360 362 362 361 364 364 363 364 363 360 361 362 362 361 361 361 358 358 356 356 356
333 334 317 313 317 323 327 330 331 326 327 327 325 325 330 341 341 341 346 344 345 350 353 355 362 362 362 361 362 362 362 362 362 363 363 360 361 364 365 362 362 362 359 358 357 356 355 354 353
330 326 319 317 318 322 326 331 328 325 325 325 329 323 331 336 342 345 346 346 348 350 351 353 354 358 361 362 362 362 362 361 362 362 364 362 360 365 365 365 362 360 360 358 356 355 354 353 351
336 328 321 321 317 318 332 331 334 328 325 333 331 321 326 332 341 344 343 344 344 346 350 351 352 352 353 354 362 361 361 362 362 362 363 363 362 362 362 365 363 361 360 359 358 356 354 352 352
341 321 319 319 319 324 332 330 334 336 328 329 331 332 336 337 342 341 343 343 343 345 349 348 349 350 350 351 356 360 362 360 360 358 360 359 353 353 356 360 362 359 359 359 358 357 355 355 356
330 319 323 328 326 327 332 331 332 329 328 327 328 335 335 340 339 337 340 339 339 340 345 345 348 350 349 352 352 352 355 347 342 346 345 345 349 351 355 358 359 359 358 357 357 357 357 358 352
330 323 331 331 330 331 331 330 331 328 325 326 325 329 334 336 336 337 337 339 341 343 344 347 349 348 345 348 345 344 347 344 341 342 342 344 346 351 352 351 351 351 358 351 351 354 356 354 353
326 332 333 334 334 332 330 334 329 330 328 333 331 332 331 328 335 336 339 340 341 342 343 346 347 344 347 350 350 346 339 336 338 339 341 341 345 343 344 347 349 349 342 338 339 344 350 347 350
327 331 333 335 333 332 333 330 330 332 334 335 333 332 329 328 330 336 339 341 342 341 343 343 347 346 346 348 347 347 338 340 341 342 342 344 347 347 344 345 345 343 346 346 342 344 346 346 342
331 332 331 332 331 331 327 329 330 332 334 333 331 329 328 328 333 338 339 338 338 343 345 346 346 348 351 349 345 347 342 345 342 341 340 341 345 346 348 343 347 345 344 344 346 344 344 342 339
332 326 327 328 329 328 328 322 324 332 334 330 329 328 330 328 334 336 338 338 341 344 346 345 345 348 350 347 344 343 349 348 345 344 344 349 349 350 343 345 348 344 345 347 349 346 348 342 342
326 324 316 325 327 328 327 315 327 331 330 327 328 329 329 331 334 334 336 340 344 345 342 342 348 343 344 347 347 347 347 350 350 350 351 350 349 349 352 348 344 346 350 353 351 351 344 340 338
318 311 314 317 327 325 323 318 326 331 329 325 326 326 328 329 331 335 336 343 344 344 344 343 340 340 347 345 346 347 346 347 352 351 349 348 349 352 353 351 348 347 347 345 344 345 341 343 340
309 312 315 315 321 323 319 318 322 327 329 324 325 326 325 328 329 334 340 341 342 345 347 346 344 347 345 348 348 348 346 350 348 355 351 351 350 353 354 348 334 340 343 344 349 347 349 345 339
318 317 315 318 323 319 318 316 319 323 327 327 326 324 326 328 332 333 341 341 341 342 345 345 343 347 345 347 340 341 340 345 349 351 353 351 351 353 352 343 340 338 341 342 349 342 348 347 347
315 315 314 319 321 319 316 315 319 323 324 328 329 326 327 328 328 337 338 339 339 343 348 344 349 347 346 348 348 347 344 345 350 354 351 351 353 351 354 344 339 334 343 347 347 349 349 346 341
314 313 314 315 319 319 314 312 316 323 324 327 329 331 330 330 328 335 337 337 341 344 347 347 349 348 349 346 346 344 349 348 346 349 350 351 352 355 352 345 342 342 343 341 348 351 345 345 344
310 320 319 317 313 306 315 302 312 316 318 322 326 329 326 329 331 332 335 337 341 343 347 348 348 348 349 349 344 339 341 339 343 346 350 350 354 352 352 352 348 343 332 342 346 355 352 348 343
314 320 318 315 310 310 309 306 310 317 314 318 323 328 331 329 330 330 335 338 342 345 347 348 348 349 348 348 347 343 343 345 347 349 350 350 352 351 352 353 346 337 336 347 348 354 349 338 337
323 319 315 314 311 302 308 307 307 310 313 318 322 327 331 331 332 333 336 340 343 345 346 348 348 349 349 349 348 346 341 341 345 347 348 347 349 351 353 353 352 349 349 347 351 352 352 339 333
316 309 300 297 301 301 311 308 310 316 319 320 322 325 330 332 330 333 334 334 340 344 346 348 345 345 348 349 348 347 343 341 343 344 344 344 346 348 349 353 351 351 352 352 352 351 351 351 345
312 309 300 294 297 302 308 305 310 319 322 323 325 325 330 331 332 333 331 338 339 343 344 348 347 346 345 349 349 348 345 343 347 348 346 344 346 348 351 352 352 353 354 351 353 350 350 349 350
306 300 305 302 305 301 305 309 315 319 322 320 322 326 328 330 331 334 337 336 340 339 340 348 348 348 346 348 350 349 350 349 347 349 344 346 352 355 349 349 352 351 353 352 353 350 349 348 350
304 308 300 303 295 294 303 302 304 312 317 322 321 324 328 330 332 333 337 338 339 341 339 349 350 349 348 349 351 349 349 350 351 350 342 348 348 343 338 336 344 351 353 355 352 349 346 349 349
299 297 298 302 303 297 296 303 316 315 320 322 324 324 327 331 330 333 337 339 339 340 339 349 349 348 348 349 349 348 349 351 350 351 350 351 345 338 336 338 347 350 350 351 351 349 349 348 348
303 298 298 291 291 300 300 302 321 319 324 324 325 328 328 332 331 331 335 337 336 336 340 348 350 349 348 348 349 349 349 348 351 349 350 349 340 341 349 351 352 351 352 353 352 351 350 348 347

GFSSGP_sfc_thetae_120.txt.gz
Theta_e
350 350 346 343 321 318 313 315 322 320 321 326 327 325 323 326 319 313 340 346 350 352 355 359 364 362 363 363 363 363 363 362 362 363 363 362 362 362 362 362 362 362 362 361 360 360 360 360 360
341 341 343 334 314 308 312 321 318 321 325 329 328 328 326 324 335 336 339 347 353 354 354 356 363 364 362 362 362 363 363 363 362 362 361 361 361 361 361 362 361 360 361 361 359 359 360 359 360
339 342 332 322 316 312 313 320 320 324 328 327 327 331 329 328 337 338 344 350 354 353 355 357 363 363 362 362 362 363 362 362 362 361 362 362 362 361 360 360 359 360 358 360 358 359 360 359 359
340 338 329 319 315 321 318 323 324 324 327 329 329 325 333 340 337 342 347 352 349 350 350 361 362 361 363 361 362 362 362 362 362 362 362 362 362 361 361 361 360 362 359 359 359 359 359 359 359
343 333 316 314 319 323 326 325 325 322 324 327 329 325 329 339 342 345 346 347 346 347 350 354 363 362 361 362 362 362 361 362 362 363 362 362 361 361 361 362 361 361 360 357 357 357 358 358 358
333 330 313 311 317 324 327 330 326 324 326 328 327 327 329 343 342 343 344 344 349 352 354 354 360 361 361 362 362 362 361 363 363 364 361 361 361 363 362 361 361 359 358 357 355 354 355 355 357
327 324 314 317 317 323 324 332 328 324 325 326 332 324 330 337 343 342 343 349 351 352 352 352 352 357 362 363 362 362 361 362 363 362 360 362 363 362 362 360 359 358 356 353 354 352 352 352 354
335 328 319 320 317 319 327 330 333 326 323 334 335 324 325 334 343 342 345 347 348 350 352 350 351 352 352 355 362 361 362 361 363 362 360 362 362 361 361 364 363 359 358 356 354 353 353 353 354
341 321 315 315 318 322 332 326 333 332 327 331 333 333 335 341 341 340 340 341 343 347 347 349 349 349 349 352 356 360 362 362 362 361 362 353 350 351 355 359 360 359 357 356 356 356 356 356 357
328 317 320 323 325 326 332 332 327 326 325 327 330 334 338 339 339 338 337 336 340 342 344 347 347 347 348 354 350 351 349 343 346 343 341 343 346 348 354 356 359 359 358 356 358 359 359 357 351
329 321 330 325 328 332 328 329 332 326 323 328 327 331 336 338 337 338 337 338 338 341 345 345 346 346 345 347 345 347 343 340 341 337 339 342 344 345 351 350 350 349 355 349 349 352 354 352 351
327 332 333 333 333 330 330 332 329 330 328 333 333 335 336 335 337 338 338 338 337 340 344 345 346 343 346 344 343 343 337 336 338 338 340 339 343 343 344 346 347 346 345 337 336 343 348 344 345
327 330 333 334 332 330 330 328 330 330 335 335 334 335 333 333 335 338 340 341 340 340 341 343 344 346 347 345 344 339 337 338 340 339 341 342 341 342 345 344 343 339 343 343 340 341 341 344 344
331 329 330 331 328 327 325 326 329 332 334 330 331 327 330 334 335 337 339 339 339 340 340 343 343 347 347 344 342 338 337 337 341 339 340 340 341 343 344 340 341 341 343 340 343 342 343 339 338
331 324 327 328 328 324 327 321 323 332 331 329 326 326 326 333 337 337 339 338 340 341 342 342 344 347 345 344 345 338 342 343 340 340 340 339 342 344 342 343 343 342 342 343 347 348 344 343 340
325 323 314 324 327 327 326 314 327 331 329 327 325 326 328 335 336 338 339 340 342 342 341 342 347 344 343 343 343 343 344 344 341 341 343 345 347 349 346 342 342 346 346 346 345 346 344 339 340
314 308 315 317 327 325 323 317 324 331 330 323 323 324 330 333 336 336 339 342 342 341 340 339 339 342 344 344 344 343 345 346 344 345 346 346 348 350 347 347 346 345 343 344 344 342 339 338 338
307 310 314 313 320 322 319 319 322 324 329 326 323 324 328 329 331 336 341 342 342 341 340 339 340 343 343 346 346 342 344 347 351 347 346 347 348 351 346 336 334 338 341 340 345 341 346 337 337
317 315 313 317 322 317 317 318 321 323 325 327 327 321 326 328 334 340 341 341 342 342 341 340 342 342 341 343 341 340 340 342 348 348 349 350 349 352 346 337 332 339 339 343 345 339 345 339 340
316 314 314 318 321 319 317 315 320 322 324 327 328 328 325 325 333 335 336 340 341 341 340 341 343 341 342 342 344 342 342 343 347 351 350 351 350 351 347 340 330 341 344 341 346 347 343 343 340
313 312 312 313 318 318 315 311 315 321 325 326 329 331 327 328 331 333 334 336 340 339 341 343 343 343 346 346 343 345 344 345 344 344 346 346 350 351 347 343 337 342 338 336 344 348 346 342 342
305 320 318 316 312 305 315 301 311 316 319 323 326 327 329 328 333 333 333 336 341 341 344 344 345 345 345 346 340 341 338 337 340 343 346 348 350 351 349 345 343 342 330 340 345 353 345 342 337
313 321 318 316 310 309 309 304 307 316 314 319 324 328 330 331 333 332 333 337 341 343 344 345 347 344 345 345 342 338 338 339 343 344 346 346 348 349 351 349 345 334 335 344 348 349 336 338 334
321 316 314 314 309 300 307 306 305 309 314 319 324 327 329 330 332 333 335 338 340 343 344 344 345 342 344 345 345 341 342 340 342 344 344 345 345 347 349 349 347 344 346 345 349 350 341 331 332
316 308 300 299 298 298 310 307 308 317 319 320 322 325 328 330 331 332 334 336 339 341 343 344 345 342 344 345 345 343 341 341 343 344 344 343 343 345 347 349 347 348 348 348 350 349 348 343 339
309 304 298 292 296 300 309 302 307 319 319 322 325 327 329 331 331 331 335 337 339 341 343 345 342 344 345 345 344 345 342 339 343 344 344 344 344 345 348 351 349 348 350 349 349 347 348 347 348
306 303 307 299 301 299 304 309 316 317 320 320 322 325 327 331 331 332 334 338 340 340 343 345 342 343 342 346 345 344 343 340 344 347 344 343 346 350 349 350 349 349 351 348 349 347 345 345 347
305 307 299 300 292 293 301 302 304 311 316 317 320 322 324 329 330 331 333 337 338 343 344 345 345 344 343 344 347 346 345 347 347 346 341 343 346 346 345 343 344 348 349 350 348 347 344 346 346
297 295 294 298 298 295 296 301 313 313 318 318 319 323 322 326 329 331 333 335 339 342 343 346 346 346 343 346 346 344 345 347 348 347 342 345 344 339 338 336 340 348 348 348 348 347 345 345 345
298 295 292 289 288 296 298 300 315 315 321 322 322 322 324 327 332 333 334 335 336 337 338 346 347 346 345 346 346 345 345 347 346 346 348 349 343 342 339 337 345 346 349 348 348 347 349 346 344

GFSSGP_sfc_thetae_123.txt.gz
Theta_e
349 349 346 341 318 315 311 313 320 318 319 324 326 324 323 326 318 309 337 344 350 350 354 357 360 362 361 362 361 361 360 361 360 360 359 359 359 361 361 361 362 361 361 361 360 360 360 359 359
341 343 341 331 312 309 310 319 316 320 324 327 328 328 326 324 335 334 336 346 351 351 353 356 361 363 362 361 361 361 361 361 360 361 360 361 361 361 361 361 361 361 360 360 360 360 360 358 359
341 344 329 320 317 308 311 319 320 323 327 327 327 331 329 328 336 336 342 350 352 351 352 355 362 361 362 361 361 361 361 360 361 360 361 361 360 361 359 357 358 359 360 359 360 360 359 358 358
342 333 330 316 314 319 319 320 323 324 327 330 330 325 333 340 337 341 347 352 351 352 353 359 361 361 361 361 360 361 362 360 361 361 361 361 361 360 361 359 361 357 360 360 360 359 359 359 359
342 331 316 314 318 322 323 324 325 322 325 327 329 325 329 337 343 344 349 350 349 347 353 355 361 360 361 361 360 361 360 361 361 360 361 361 360 360 361 360 360 358 357 359 358 359 358 359 360
329 328 312 311 316 324 325 326 326 325 327 329 328 327 330 340 340 345 348 347 349 348 349 353 359 360 360 362 361 361 361 361 360 361 360 360 360 361 360 359 359 358 356 356 356 357 357 357 361
328 321 314 316 317 322 324 329 326 325 325 326 331 325 332 336 342 343 344 346 349 351 350 350 352 356 361 361 361 361 362 361 361 361 361 361 361 360 360 359 356 356 355 354 354 354 355 355 358
334 326 318 319 316 317 326 330 330 326 325 334 334 324 325 336 341 342 347 348 348 349 350 348 349 352 352 354 361 361 362 362 361 360 360 362 362 360 359 362 360 358 356 355 354 354 356 356 357
338 320 315 316 318 322 331 327 330 333 329 330 334 332 335 340 340 342 342 343 345 347 346 348 349 349 350 351 356 360 360 361 362 359 360 355 349 352 353 358 359 358 358 358 358 357 356 357 357
327 315 319 324 325 325 330 329 326 327 326 328 330 334 338 338 339 338 338 338 341 342 345 346 347 347 348 354 349 347 350 349 350 347 344 345 346 349 353 356 359 358 358 358 359 359 359 356 348
328 321 327 324 327 331 329 328 328 325 322 327 327 331 335 337 337 337 337 339 341 343 345 345 345 346 345 347 348 345 340 344 340 338 341 344 344 346 348 348 349 348 355 347 346 344 350 350 349
324 332 329 328 328 330 327 331 328 329 328 333 334 335 335 334 335 336 336 338 338 340 343 345 345 342 345 344 345 342 337 337 336 335 338 339 342 341 344 345 345 345 346 337 336 338 341 343 344
324 330 332 332 329 330 331 328 329 328 336 334 335 335 334 335 336 337 338 337 338 339 342 343 343 343 344 342 342 337 335 336 337 337 340 341 340 340 342 342 341 337 342 342 342 340 341 340 342
330 329 328 328 328 329 325 325 329 331 337 332 333 333 334 335 336 336 337 337 338 339 340 342 343 345 344 341 339 334 334 335 338 337 338 339 340 342 343 341 339 340 341 338 339 341 340 341 337
329 323 325 327 326 324 326 318 322 332 334 330 331 332 332 333 337 336 338 338 338 338 340 340 341 344 343 341 338 335 336 337 338 338 339 338 340 343 340 339 341 342 342 343 346 346 343 340 338
322 321 313 324 326 326 326 313 324 332 330 327 329 330 331 333 337 339 339 339 338 339 339 341 347 343 343 341 341 338 341 339 338 339 340 341 344 344 342 341 340 345 345 342 342 341 340 339 338
312 306 314 317 324 322 322 317 323 329 328 325 325 325 328 333 335 338 339 339 339 340 339 339 341 341 341 341 341 340 342 341 339 339 342 346 346 348 347 342 344 343 342 344 345 342 339 337 336
304 309 314 313 318 318 317 318 322 325 328 323 323 325 328 331 333 338 339 340 340 339 339 337 339 341 341 341 341 340 341 343 343 342 344 344 348 349 342 337 335 339 339 342 342 339 342 335 335
313 313 313 316 319 315 315 317 320 323 325 326 327 324 328 330 334 337 339 341 339 339 337 335 339 339 342 340 338 338 339 342 344 346 345 346 348 348 341 336 331 338 342 344 346 342 340 336 338
314 313 313 317 320 318 316 315 320 323 323 326 326 326 327 330 330 335 337 339 338 337 338 336 340 338 341 339 341 339 339 340 347 350 347 346 348 349 344 340 330 340 340 342 346 345 340 338 337
310 310 312 313 317 318 315 310 314 321 324 327 327 328 326 329 330 334 335 337 337 337 337 338 340 338 343 343 343 342 342 343 342 343 343 347 348 350 345 338 336 339 335 341 344 346 343 339 339
300 318 317 315 312 305 315 301 311 316 319 322 324 326 324 329 333 334 334 336 336 338 339 340 340 341 344 343 341 340 337 337 339 341 343 344 349 349 347 342 339 339 331 342 346 346 341 338 336
311 319 317 315 310 310 308 304 307 315 313 318 322 326 327 331 331 331 333 336 339 340 340 341 340 342 342 341 341 339 337 337 340 342 342 343 345 347 348 346 343 330 338 343 346 342 333 336 337
320 313 313 312 308 296 307 305 306 310 313 318 323 326 328 330 331 332 334 338 338 340 341 342 341 341 342 342 340 339 338 338 339 340 341 342 343 346 347 347 343 338 342 344 347 345 333 331 336
312 303 296 296 297 294 307 306 307 315 319 320 322 325 329 330 332 331 331 335 338 337 340 342 342 340 340 342 342 341 340 340 341 340 341 340 342 343 345 347 345 343 345 346 347 346 343 335 338
308 303 298 291 293 299 308 302 305 316 322 322 324 325 329 330 332 330 331 335 338 339 340 342 341 340 339 341 342 341 341 340 341 343 342 342 343 343 346 348 346 346 346 347 347 346 346 345 345
308 301 304 300 299 296 303 309 313 316 318 319 321 324 327 330 330 331 332 335 337 339 341 341 342 340 341 341 341 342 341 338 340 344 343 342 344 346 346 349 348 347 348 347 345 345 343 343 345
307 309 298 300 293 290 300 302 302 310 312 317 319 323 326 330 332 332 333 335 337 339 341 343 342 342 343 343 342 342 341 339 340 344 344 342 342 346 348 347 346 347 346 347 346 345 344 343 345
296 294 294 297 297 293 294 298 310 310 315 316 320 324 326 328 331 331 332 337 338 338 340 342 342 342 341 342 343 342 342 343 345 344 343 341 344 343 343 343 342 345 346 347 347 345 344 342 342
300 295 291 289 287 294 298 297 315 314 319 319 319 324 328 330 330 331 333 334 336 338 341 342 343 342 343 343 344 342 342 344 345 344 344 340 344 341 339 337 338 345 346 347 346 346 347 343 343

GFSSGP_sfc_thetae_126.txt.gz
Theta_e
340 348 345 340 315 312 308 312 318 316 316 322 325 324 322 326 318 306 336 344 349 350 353 357 361 360 360 361 361 360 361 360 358 357 357 360 360 360 360 360 359 359 359 360 359 359 359 360 359
343 346 341 329 310 304 308 318 314 318 321 324 327 327 326 323 334 332 335 347 350 351 353 355 360 361 360 360 361 360 361 359 359 361 360 360 361 361 360 360 360 360 360 360 360 359 360 360 359
342 342 327 319 312 306 308 318 318 322 325 326 326 331 329 326 332 334 341 349 350 350 353 354 360 360 360 360 361 360 360 359 360 361 361 361 361 360 360 360 360 360 359 359 359 360 359 360 360
338 333 330 315 311 318 317 319 322 323 327 330 329 325 332 338 335 340 348 351 349 350 352 358 361 361 360 360 360 358 360 360 361 361 360 360 359 357 357 359 358 360 360 358 359 358 358 359 361
340 330 316 314 317 320 321 323 324 322 324 327 329 324 327 337 342 346 349 350 348 349 352 355 360 361 361 360 360 360 359 360 361 361 361 360 360 360 360 358 358 358 360 360 359 359 358 360 361
324 326 313 309 315 323 323 325 326 326 327 328 326 326 327 339 341 346 348 348 350 349 352 353 359 360 361 360 360 361 361 360 360 359 359 359 359 359 360 359 358 356 357 358 358 358 359 361 361
322 319 313 316 317 320 323 329 325 325 325 326 331 324 331 335 343 344 345 346 348 349 349 352 354 355 360 360 360 360 361 360 360 359 360 359 360 360 360 357 356 356 355 356 356 357 357 360 359
332 322 318 318 316 317 327 330 330 326 324 334 334 322 325 334 341 344 346 347 347 348 349 348 350 351 353 354 361 361 360 360 360 359 361 361 360 359 359 360 359 355 354 355 355 357 357 359 360
337 319 315 316 318 320 328 325 332 333 328 330 333 331 335 339 341 342 342 344 346 348 346 347 349 350 352 352 356 358 359 360 360 359 361 354 352 355 355 358 359 357 356 356 356 356 357 357 357
325 315 319 325 326 323 325 329 327 327 326 327 330 336 337 338 338 337 338 338 342 344 345 346 346 347 350 355 350 352 353 352 350 348 348 349 349 353 355 357 358 360 359 359 358 360 359 354 351
326 320 326 325 329 328 327 328 328 324 322 326 326 331 334 335 337 336 338 339 340 343 345 346 346 347 347 349 347 345 346 345 342 343 345 346 348 351 350 351 350 350 354 345 343 344 350 351 349
322 330 328 327 331 329 327 331 326 326 329 333 333 335 335 333 335 336 336 338 340 341 343 345 346 345 347 347 344 341 342 341 337 339 343 344 345 346 346 346 347 344 347 344 346 343 344 345 347
322 327 328 330 329 330 330 328 329 329 333 335 335 334 333 334 335 338 338 339 339 339 342 344 344 344 344 344 343 338 339 339 338 339 344 345 345 344 345 345 343 342 346 346 344 345 346 347 344
327 327 327 327 328 329 326 327 327 329 334 333 332 332 333 334 335 336 337 335 338 340 341 343 343 345 344 342 340 337 337 338 339 340 342 344 344 345 346 345 343 345 346 346 343 347 346 347 342
326 321 324 326 326 324 327 321 322 331 333 330 331 331 333 334 336 335 336 336 338 339 342 341 342 345 342 341 340 336 337 338 339 340 341 343 345 346 344 344 345 347 348 348 349 349 348 347 342
319 319 312 322 325 326 325 313 325 332 330 328 330 331 332 334 335 337 337 338 339 339 340 341 345 344 342 340 337 337 338 338 341 340 342 344 347 347 347 346 346 349 348 349 349 346 345 343 345
309 305 312 316 322 323 321 316 324 330 328 328 329 329 330 331 335 337 339 339 338 339 339 340 343 342 342 341 340 340 342 340 340 341 344 348 350 351 349 347 346 346 347 347 347 348 345 343 342
301 307 313 312 318 319 317 318 323 326 327 327 328 328 328 330 333 337 338 339 339 339 340 340 341 341 342 341 341 342 343 344 343 342 346 349 350 351 348 342 343 346 349 349 348 347 343 343 342
311 312 311 314 318 315 314 318 321 324 325 326 325 323 325 330 334 337 338 340 339 339 338 338 338 340 341 341 339 339 340 343 345 347 349 348 349 348 342 340 342 345 347 350 351 349 344 342 344
312 311 311 316 319 317 315 314 320 323 324 325 327 325 323 329 330 336 336 338 337 337 337 338 339 340 341 341 341 341 341 343 350 350 349 350 350 350 343 342 340 347 345 349 352 350 346 341 341
309 309 311 311 317 319 315 310 315 321 323 326 328 329 327 329 329 331 334 336 337 336 336 337 339 340 342 343 343 343 344 344 346 346 348 350 350 352 347 338 342 345 343 348 351 351 348 345 344
300 315 315 314 311 305 315 301 310 315 318 322 325 325 325 329 331 332 334 335 335 336 339 338 339 339 343 344 343 341 339 338 342 344 346 348 352 351 349 342 343 342 342 351 353 349 347 346 346
304 317 315 314 309 309 309 303 307 313 313 318 322 324 325 327 330 332 334 336 337 338 339 339 339 340 343 344 343 341 339 341 342 344 346 348 350 351 351 348 346 339 345 350 353 345 344 344 345
318 313 310 309 307 298 305 304 304 308 312 318 321 324 327 327 331 333 335 337 336 339 339 341 340 340 343 342 342 341 340 340 342 343 343 345 347 349 350 351 348 341 347 351 353 347 342 343 346
310 301 293 291 294 293 304 303 306 313 316 320 321 323 327 328 331 331 332 335 336 337 338 340 340 339 341 341 341 342 341 341 341 343 344 344 346 347 349 350 349 348 349 350 352 352 344 341 348
306 299 293 288 293 296 306 301 306 315 319 321 325 325 328 328 330 330 332 335 336 337 339 340 340 340 340 342 342 342 342 342 343 345 345 346 345 347 350 351 351 350 350 351 351 352 351 351 351
307 300 304 298 301 296 300 306 313 316 317 320 322 325 327 328 330 331 332 335 337 337 339 340 340 340 341 341 343 342 342 342 343 345 347 347 348 348 349 351 351 350 350 352 352 350 350 350 352
307 309 298 298 293 291 296 300 302 308 313 317 318 322 326 329 331 332 332 334 338 339 339 341 342 341 342 341 342 343 342 343 343 346 346 346 347 349 351 350 351 350 352 353 351 352 351 350 350
298 299 295 298 297 292 292 295 312 312 313 315 318 321 324 328 330 332 332 334 337 340 340 341 341 341 341 342 342 344 344 343 342 344 347 347 347 348 349 351 350 350 349 351 352 351 351 349 350
296 293 294 292 290 295 295 296 316 317 318 319 320 324 326 330 330 332 333 334 335 336 339 340 342 341 343 343 344 343 344 345 345 346 347 347 346 348 348 347 346 347 349 351 351 350 352 349 348